GFSSGP_500_rhum_000.txt.gz
RH
6 5 4 4 5 4 4 3 4 4 10 17 32 38 51 65 68 67 68 68 64 63 68 74 76 73 65 78 90 93 85 86 74 81 64 74 73 73 66 48 33 22 22 22 32 30 33 48 42
2 2 2 2 3 3 3 4 5 9 16 34 50 64 72 76 74 73 73 76 75 74 68 72 66 58 61 63 70 79 59 79 68 63 64 62 58 54 50 38 28 18 23 23 22 22 34 54 46
2 1 1 2 2 2 4 7 17 32 51 61 67 68 74 78 78 79 75 56 24 30 46 68 72 83 84 91 86 67 51 56 47 48 52 46 39 32 30 20 22 8 16 31 26 32 43 50 38
1 1 2 4 6 6 6 12 15 31 42 40 34 30 46 52 53 55 52 22 9 23 46 63 62 66 73 64 57 43 36 36 35 40 33 27 14 9 12 20 15 6 6 8 12 25 32 32 23
1 2 4 7 10 16 24 37 41 23 7 5 4 5 4 3 4 5 8 10 14 34 65 60 64 57 60 61 51 33 24 20 17 20 13 6 4 6 4 3 6 5 3 4 5 8 11 8 6
4 7 8 9 12 41 36 18 7 5 4 4 5 6 8 14 17 18 22 31 20 20 26 29 33 38 24 14 16 13 11 11 16 14 16 13 21 29 26 11 9 10 16 18 19 23 21 18 10
7 8 10 18 39 35 23 10 8 8 9 10 14 15 15 20 22 24 26 29 33 29 27 24 25 25 24 22 15 15 22 15 11 11 12 14 18 14 8 8 19 27 28 28 16 6 7 7 11
12 14 18 38 42 27 16 8 12 14 15 16 17 20 8 5 6 10 10 9 9 8 12 8 7 15 28 28 22 10 5 6 5 4 3 5 5 6 7 7 8 8 7 7 8 7 6 5 5
18 20 29 20 17 11 12 12 8 1 1 1 2 4 7 8 6 7 10 12 11 16 16 13 8 6 4 4 5 6 7 7 7 8 10 12 13 13 14 14 13 12 12 12 12 12 11 10 8
16 12 13 10 4 1 0 0 3 5 6 8 9 10 9 10 12 13 13 14 15 16 16 16 15 14 12 12 13 13 14 14 16 17 18 18 19 18 18 19 20 21 20 18 18 21 22 20 17
2 1 1 3 4 4 5 6 7 9 9 9 10 10 10 10 10 11 12 13 13 14 14 16 17 19 16 16 16 15 14 14 15 16 19 20 18 18 19 19 18 18 18 17 18 20 21 22 21
2 2 4 5 6 6 7 8 8 9 10 12 11 10 10 9 9 10 11 12 13 14 16 17 18 17 17 18 18 18 16 17 19 23 28 33 38 43 45 46 42 34 24 20 20 19 20 22 25
3 4 5 7 9 10 10 11 11 11 13 12 12 11 11 11 8 10 11 10 10 11 12 17 17 16 17 16 17 16 18 26 38 45 47 49 50 50 52 58 61 60 57 53 44 33 26 24 22
5 7 8 9 10 10 10 12 14 11 9 7 8 8 10 8 8 8 10 10 10 10 10 10 10 11 11 12 14 18 24 34 42 41 40 43 45 48 50 51 49 48 49 52 55 58 55 48 46
6 8 10 11 10 12 15 13 17 15 12 11 11 10 10 12 12 9 9 10 13 15 14 14 20 24 26 27 29 32 34 34 32 33 36 44 46 45 43 41 38 38 40 41 44 49 54 59 62
12 12 15 13 14 14 17 14 12 14 13 13 14 14 15 14 13 14 12 16 20 22 25 31 41 46 47 48 50 50 50 48 45 43 42 41 40 39 37 35 35 35 36 40 43 46 49 52 56
17 16 17 16 16 17 17 16 15 14 14 15 16 16 19 21 22 23 24 26 33 38 39 47 57 57 52 47 46 42 38 34 33 34 34 34 36 37 36 36 39 39 40 42 43 44 48 52 53
16 14 15 15 16 15 16 17 17 16 15 15 15 18 21 23 26 28 30 33 37 39 38 40 53 53 51 49 47 48 50 49 49 49 48 48 48 47 44 44 44 44 42 45 47 50 54 58 59
18 18 17 15 16 16 16 15 16 18 18 19 21 23 25 26 32 34 35 38 41 48 59 63 60 53 56 54 53 54 59 59 62 60 58 56 56 55 53 51 50 50 48 47 49 53 57 60 62
18 20 19 18 18 19 22 18 15 17 21 22 27 31 30 32 34 34 35 42 53 67 75 69 60 63 64 62 60 59 54 51 52 49 50 48 42 40 38 39 40 40 38 37 43 55 64 66 66
13 14 16 17 16 18 23 23 26 26 27 28 29 29 30 31 25 30 36 49 50 59 74 71 76 73 60 53 55 50 50 49 44 41 38 39 39 38 38 37 37 37 39 42 49 56 59 61 60
11 10 12 14 18 20 22 21 24 23 23 26 27 29 29 25 29 39 48 58 61 64 60 62 60 59 64 73 59 54 48 39 41 42 43 46 47 46 46 45 45 44 44 45 46 50 54 59 59
16 14 12 11 18 20 21 22 20 20 21 21 24 27 27 28 41 46 51 54 56 53 57 63 68 73 73 61 54 48 42 42 39 42 41 46 46 50 56 56 53 49 46 42 38 36 36 38 37
17 16 15 15 22 22 22 22 17 19 22 23 27 31 37 45 48 50 56 65 66 74 76 72 63 61 60 56 46 40 41 39 41 46 44 47 52 52 50 46 46 46 46 47 45 44 43 47 49
24 19 14 16 18 21 20 19 20 23 30 33 36 44 45 51 56 65 69 71 67 65 65 63 58 61 58 48 39 37 58 61 50 45 42 44 46 45 42 34 25 28 36 42 46 48 46 42 39
24 21 20 23 22 23 23 27 29 29 34 36 33 37 45 51 54 56 57 56 59 56 52 50 46 45 39 37 40 41 41 41 48 49 50 48 46 37 13 9 8 8 7 10 19 20 11 17 32
26 21 23 23 23 23 24 27 30 31 31 32 36 43 49 51 53 53 52 50 45 40 39 34 29 38 51 51 42 47 55 66 78 59 61 59 43 28 16 11 8 7 4 2 4 6 19 17 32
31 28 25 23 22 20 25 35 40 37 33 38 45 44 42 44 43 38 37 36 33 33 38 40 40 42 47 58 68 64 92 100 82 62 48 32 29 27 23 27 12 9 16 4 7 13 10 16 66
32 31 31 31 32 30 31 35 52 48 46 46 46 45 44 39 37 39 38 38 42 48 48 47 49 50 46 44 45 55 84 83 51 37 32 27 10 2 5 4 3 5 4 8 18 38 91 100 100
39 38 38 37 36 40 48 38 54 48 47 46 43 40 38 38 43 49 52 52 48 46 46 48 53 56 57 58 63 72 93 81 84 47 23 13 0 3 17 8 7 16 40 85 100 100 100 100 100

GFSSGP_500_rhum_003.txt.gz
RH
17 14 9 8 7 5 5 4 4 4 6 10 21 32 47 60 51 54 64 74 75 76 76 67 48 43 36 41 55 58 70 71 57 52 51 54 52 56 37 30 32 38 30 25 12 12 16 31 32
14 11 8 3 3 2 2 3 3 5 8 12 22 44 54 51 56 68 75 78 77 71 53 25 31 50 72 80 91 83 72 69 64 42 43 32 29 24 15 12 10 14 20 15 6 21 15 18 36
8 5 2 1 2 2 3 6 10 12 14 21 44 50 48 54 57 60 72 71 64 42 29 28 47 74 83 88 78 61 66 65 50 33 23 12 10 8 5 5 6 14 18 11 5 6 18 22 34
1 1 2 2 3 6 8 12 13 14 33 42 49 50 38 20 7 6 13 20 11 13 18 32 62 60 61 58 59 58 51 34 16 11 9 15 9 5 10 22 17 7 6 5 4 3 3 6 18
1 1 2 4 9 24 23 18 19 28 37 23 11 7 5 5 10 16 13 17 25 25 27 27 28 28 29 28 25 18 19 14 13 15 16 19 19 20 24 25 22 15 11 11 15 16 15 14 9
2 5 6 12 17 22 24 25 19 7 7 8 7 8 10 12 15 19 21 22 23 25 21 20 22 24 26 26 26 22 20 21 16 10 9 8 8 8 6 5 5 9 15 19 24 26 18 18 18
8 11 12 21 23 31 28 21 9 9 9 12 13 13 8 7 11 16 13 11 8 9 8 4 3 5 13 19 22 18 11 6 5 5 4 4 7 7 6 5 6 7 8 8 7 7 6 6 6
15 16 28 38 27 21 24 13 12 12 5 3 5 6 5 4 4 5 6 6 5 11 8 8 7 7 4 4 4 6 8 10 11 12 14 16 17 18 20 20 19 18 17 15 13 12 11 10 10
26 29 31 19 19 20 12 6 1 1 6 6 7 7 8 7 7 8 7 8 11 10 12 12 14 14 16 15 17 17 17 19 18 16 15 16 16 17 16 16 18 19 19 20 20 19 17 15 15
21 20 12 16 15 3 0 1 2 5 8 10 10 10 10 10 10 11 11 10 9 10 12 13 15 18 21 23 22 22 20 17 15 14 17 22 27 32 35 36 38 38 34 25 18 17 17 17 16
9 6 4 3 1 2 4 6 7 7 9 9 10 9 9 9 9 9 11 10 9 9 9 9 14 20 20 18 16 14 13 13 14 18 27 36 40 42 44 47 48 47 50 54 55 51 35 22 19
2 2 3 4 5 6 7 8 8 8 10 13 16 14 11 12 13 15 15 14 14 14 15 16 17 16 14 12 12 12 13 16 20 25 35 41 39 38 40 44 48 49 47 49 51 53 55 54 50
1 2 4 6 7 8 11 12 13 14 15 13 12 13 10 8 10 13 12 13 12 12 11 10 11 11 11 13 16 17 19 20 21 24 28 33 36 40 44 46 48 50 48 46 45 48 51 53 53
4 5 7 8 10 10 10 14 17 14 13 16 15 12 8 10 12 12 9 9 8 9 10 12 14 15 16 18 21 25 31 37 40 42 44 44 44 45 46 46 46 44 42 39 38 39 41 45 48
6 8 9 10 11 13 12 13 19 19 18 16 13 10 12 14 14 15 14 14 12 12 13 20 25 27 33 35 40 44 44 43 41 38 36 36 37 36 35 36 36 36 36 35 36 38 40 40 42
9 10 11 12 14 16 15 15 16 18 16 14 14 15 17 19 21 23 24 25 25 25 26 31 38 43 44 45 43 41 39 39 37 36 39 39 38 36 37 37 37 37 39 41 41 40 40 41 40
15 16 16 16 18 18 17 15 13 14 15 16 17 17 17 19 21 24 28 32 32 36 40 44 46 45 36 37 39 38 39 45 48 49 52 51 48 45 45 44 41 37 38 41 43 43 42 44 44
17 17 17 16 16 16 20 18 19 17 16 16 17 17 20 25 26 26 24 24 28 33 42 44 40 34 31 37 44 45 46 53 56 54 52 48 42 40 36 34 36 36 34 37 37 40 40 39 40
19 18 17 17 21 19 19 16 16 18 18 20 23 25 27 25 25 25 26 29 33 37 41 42 42 43 46 48 55 55 58 60 58 51 48 44 39 35 30 28 31 34 34 37 38 37 42 47 50
18 18 19 19 21 22 20 20 18 20 23 25 26 27 28 25 26 27 27 34 48 49 48 49 44 46 55 62 62 57 52 49 47 40 37 33 28 28 27 26 27 32 33 36 44 48 43 41 47
14 13 14 17 17 16 17 17 18 20 20 22 25 26 27 31 33 32 38 44 46 53 60 63 64 76 76 64 56 52 42 33 31 33 31 33 36 36 33 33 33 33 32 32 41 49 50 50 49
13 13 11 10 11 13 15 17 17 15 18 23 24 30 36 36 38 42 45 56 58 58 62 78 77 70 55 54 50 44 36 32 35 33 30 29 31 32 35 36 39 37 39 37 39 40 40 39 40
14 13 12 11 10 9 14 17 14 16 24 28 27 29 31 38 44 48 53 54 53 55 54 52 57 61 59 51 48 47 43 38 33 34 29 33 35 39 46 44 36 34 35 35 36 36 30 19 16
20 18 17 16 13 12 16 15 15 20 25 25 24 29 37 43 44 43 45 48 51 54 59 66 69 63 62 66 61 43 34 37 42 49 50 52 50 50 59 71 75 53 40 30 21 14 13 12 11
19 21 21 18 14 14 15 17 19 23 24 24 34 39 42 45 50 52 55 56 56 56 58 61 57 54 51 45 41 40 38 41 42 46 47 47 51 57 68 71 63 39 20 14 7 3 2 6 6
24 24 22 19 15 16 18 19 21 26 34 35 33 39 44 48 56 56 51 48 49 50 46 43 40 40 41 41 42 44 50 53 65 75 73 67 63 62 66 62 56 40 21 14 3 0 0 0 0
31 28 27 27 25 23 22 25 31 37 36 38 43 46 48 50 46 44 44 45 38 35 35 39 43 46 48 52 55 60 71 78 78 75 77 86 84 60 57 54 44 31 30 43 35 15 3 3 3
33 29 28 27 26 26 29 31 48 52 49 43 44 44 42 42 39 36 34 34 35 40 44 49 50 53 56 58 62 70 76 80 85 96 97 74 49 37 32 46 53 64 67 39 7 13 19 26 34
37 36 36 34 32 33 33 38 50 48 44 38 37 36 37 39 43 46 46 46 50 50 48 48 51 53 56 63 72 73 80 91 100 65 39 71 65 73 32 16 14 9 6 20 39 97 100 100 100
37 38 40 40 34 36 38 42 48 50 46 42 42 45 49 52 51 50 56 56 46 41 43 47 48 51 53 56 59 66 72 92 87 63 62 84 88 51 16 22 5 9 42 74 100 100 100 100 100

GFSSGP_500_rhum_006.txt.gz
RH
20 18 16 13 8 6 5 5 5 4 4 5 8 12 16 22 32 47 53 52 54 60 62 67 58 32 27 23 30 33 33 39 36 44 44 35 23 19 17 13 9 6 6 8 13 14 7 18 16
17 14 11 7 5 4 3 3 3 3 4 6 9 18 27 33 38 45 53 51 49 52 51 50 31 18 17 18 35 48 38 37 30 20 17 12 8 10 7 4 6 8 6 13 16 12 5 8 20
12 8 7 4 2 4 3 3 3 4 4 7 11 21 27 34 34 24 15 19 28 23 22 17 19 26 36 44 40 46 39 21 11 10 9 9 10 11 9 12 20 25 15 6 8 7 4 3 3
4 2 3 2 2 3 4 5 8 10 12 16 27 33 23 14 6 5 8 9 9 13 21 21 18 21 28 26 21 16 11 16 14 16 14 13 16 17 22 24 20 18 17 11 9 9 10 8 6
1 1 2 3 3 5 8 13 19 24 22 39 22 8 6 6 8 12 17 17 18 19 24 21 17 17 19 21 22 23 23 21 17 6 5 5 5 5 4 4 4 4 6 10 14 18 20 20 17
2 3 12 6 8 14 15 19 20 11 7 8 8 8 11 11 8 8 8 11 15 16 12 8 4 4 8 15 22 18 10 5 5 5 6 7 9 10 11 9 8 8 8 9 8 7 7 6 6
5 9 29 25 30 17 14 20 19 8 8 10 11 10 4 4 4 7 7 6 6 8 4 4 5 6 5 5 5 7 10 11 12 12 11 11 12 12 12 11 10 10 11 11 12 12 11 10 8
12 25 35 36 16 17 20 13 10 5 3 4 4 3 3 3 5 5 5 4 4 6 6 8 10 12 14 14 14 13 14 15 15 15 15 14 14 16 19 19 19 17 16 15 13 12 11 11 12
33 45 24 18 17 14 12 6 3 4 5 6 6 6 5 6 7 8 7 8 7 7 9 10 11 9 12 14 11 11 13 12 12 14 15 18 22 30 37 41 43 44 43 44 46 43 30 16 12
20 26 14 14 13 6 2 0 2 6 7 9 9 10 9 9 7 8 7 8 8 10 15 15 13 10 10 10 9 10 11 12 13 14 15 21 33 38 39 38 38 44 50 52 56 57 55 53 41
16 13 15 10 4 0 2 4 5 7 9 9 9 8 8 7 7 8 8 9 10 12 11 9 8 8 10 12 13 12 14 16 19 23 26 29 31 32 33 34 38 43 48 50 52 52 55 53 51
14 8 7 4 2 2 6 7 8 8 9 11 10 8 8 8 8 8 9 11 10 10 9 10 9 11 14 15 18 20 26 30 36 42 44 44 45 46 45 45 46 46 45 47 49 49 48 46 46
3 3 4 5 6 7 8 9 12 13 14 11 12 11 9 11 9 9 9 8 9 10 10 12 15 23 24 28 27 29 35 40 43 47 48 48 46 44 43 43 42 40 40 40 39 39 38 38 38
2 4 6 7 8 10 12 13 11 12 13 12 10 8 8 8 9 11 13 16 18 18 19 18 21 24 29 36 36 38 41 42 39 40 40 40 41 42 42 44 43 42 41 40 41 40 40 39 37
6 7 8 9 10 12 13 13 12 12 13 12 12 11 12 13 14 17 20 24 27 28 28 29 30 33 38 44 44 47 46 40 38 37 38 44 45 44 45 44 42 41 41 41 38 37 38 40 42
8 8 10 10 12 13 14 14 16 18 13 12 15 16 18 19 20 20 23 28 31 35 37 41 42 38 36 39 46 49 42 36 38 44 46 53 53 51 48 48 46 42 37 34 32 31 31 32 34
9 10 11 12 15 16 15 13 14 16 15 18 18 19 24 25 26 28 30 33 36 37 39 35 36 33 37 39 37 40 42 49 54 55 54 54 52 47 45 43 39 32 27 27 29 34 35 40 41
13 16 17 17 16 17 16 13 16 16 18 18 20 25 26 28 29 31 32 34 34 33 31 34 35 41 45 50 48 49 58 60 60 60 57 50 46 38 35 32 28 25 24 26 26 27 30 32 43
17 18 18 19 21 20 18 18 20 23 22 24 27 28 30 32 34 35 36 36 37 35 35 42 44 49 57 56 53 56 59 62 62 62 58 44 36 29 27 21 18 20 20 22 28 26 24 26 27
17 18 18 20 21 21 20 22 22 24 25 26 29 31 36 37 37 36 37 43 46 48 50 54 58 67 78 78 71 69 64 56 50 46 43 36 28 24 21 21 22 23 24 27 31 32 32 28 32
13 13 12 14 16 19 18 19 20 20 22 25 27 28 29 32 38 46 51 53 54 57 63 70 79 82 73 69 61 55 52 46 37 32 32 33 30 29 29 29 30 30 35 36 36 33 36 34 32
10 13 13 12 12 12 16 19 16 18 19 24 26 25 26 31 35 43 51 51 53 55 60 72 69 64 60 57 52 47 40 35 31 29 30 32 33 34 35 39 43 46 49 51 54 52 49 57 49
20 18 16 14 14 15 15 22 14 21 23 23 21 20 22 30 40 43 46 53 55 52 55 58 55 51 45 43 44 45 37 35 37 38 40 43 45 48 54 58 59 57 57 57 58 56 57 54 41
19 18 18 20 20 19 17 21 12 20 23 22 22 25 30 35 37 44 50 49 49 52 53 50 48 44 42 41 38 38 42 50 48 50 51 57 66 71 68 70 70 68 57 41 36 29 22 15 15
17 19 20 22 22 22 22 20 20 23 25 27 28 32 37 39 45 50 50 52 52 49 46 40 42 41 41 47 48 54 61 64 63 64 67 65 66 64 52 42 40 40 37 26 25 23 13 10 12
26 26 27 26 25 25 24 24 22 27 31 34 34 37 47 52 51 52 52 49 44 39 40 45 44 44 51 54 60 67 70 73 76 69 50 40 37 37 38 42 43 55 45 26 18 19 10 10 5
37 32 34 33 30 28 29 30 36 44 42 45 49 52 51 49 46 44 42 42 48 50 49 46 50 57 62 69 73 75 65 42 39 41 42 42 43 46 47 42 42 38 46 55 37 18 21 8 6
36 33 32 33 32 32 32 36 47 40 40 43 49 50 46 44 47 53 52 49 41 39 45 53 56 58 60 50 41 39 40 42 44 45 41 36 35 36 50 55 60 48 40 29 29 12 10 34 78
32 34 35 34 38 38 30 35 39 43 47 48 50 56 58 60 57 50 46 45 46 53 57 58 51 41 37 39 41 43 45 44 43 34 23 32 62 63 60 51 48 43 24 26 19 56 98 100 100
48 48 47 47 45 51 57 56 58 60 54 54 64 61 58 55 50 47 49 52 53 53 49 46 42 44 45 47 49 46 43 39 22 19 44 99 72 70 31 23 19 23 27 44 67 100 100 100 100

GFSSGP_500_rhum_009.txt.gz
RH
54 43 18 13 7 8 78 37 24 8 5 4 3 3 5 10 12 50 91 44 42 43 37 28 22 33 16 22 27 24 27 21 11 13 16 12 10 9 9 9 3 3 6 5 4 6 11 12 6
25 18 14 8 5 74 98 18 62 34 3 3 3 5 8 16 29 37 38 39 23 13 12 12 12 13 16 22 20 16 14 12 14 11 11 11 10 9 12 9 13 20 25 24 8 7 12 10 6
14 11 7 4 51 71 100 54 10 3 3 4 5 8 16 19 19 20 16 6 5 7 10 13 14 14 12 14 15 16 14 14 18 16 10 8 11 15 17 20 18 16 16 17 12 7 6 7 8
5 4 2 4 86 72 53 28 4 6 7 9 10 12 15 7 6 5 5 9 12 14 15 18 17 16 14 18 20 20 21 17 7 3 4 4 4 4 4 4 4 3 4 5 7 12 18 20 20
2 1 24 81 72 23 58 12 8 40 14 9 15 8 7 7 7 7 9 10 14 15 17 12 5 6 8 13 15 12 5 3 3 4 5 6 7 8 8 7 7 6 7 8 7 7 6 8 7
1 4 81 92 83 9 10 10 13 13 9 8 7 8 8 6 5 6 8 9 11 8 3 2 3 4 3 3 4 4 5 6 6 7 8 8 8 8 9 9 10 10 10 10 11 10 10 9 8
3 86 86 100 23 11 12 21 19 12 8 8 9 9 3 3 4 6 6 4 7 5 5 5 5 5 5 6 6 7 8 8 8 8 9 9 11 14 19 22 25 27 28 28 23 15 12 11 11
27 86 89 71 25 16 20 15 10 9 8 9 8 2 2 4 4 4 4 4 5 7 6 7 7 7 7 7 7 8 9 8 9 9 10 11 14 19 28 34 36 39 41 42 40 37 38 34 12
16 67 64 45 42 16 11 9 4 3 2 3 4 4 4 4 5 6 8 9 9 9 8 9 8 6 7 9 10 9 9 9 9 10 12 15 20 24 30 38 38 38 40 42 45 48 46 46 45
42 57 55 21 18 9 6 4 5 5 6 6 5 5 4 6 7 8 8 7 7 7 7 7 8 8 10 9 8 9 11 13 16 22 27 34 39 42 42 43 44 46 45 46 51 53 53 52 49
49 67 17 14 8 4 1 1 4 6 7 8 8 7 7 7 7 7 7 8 9 10 9 10 10 12 10 9 11 15 20 26 29 34 38 40 41 43 42 39 37 38 40 41 39 41 46 49 50
34 24 9 5 1 1 3 5 7 8 8 8 9 10 10 8 7 7 8 8 8 8 8 9 10 11 12 17 24 34 38 39 40 41 42 42 44 44 43 42 41 39 41 43 42 39 39 40 39
9 7 3 2 2 5 7 7 7 8 9 11 12 9 8 7 8 8 11 13 15 18 20 21 22 24 27 28 32 40 44 48 50 49 50 50 47 43 45 48 47 44 42 41 41 39 38 38 39
3 3 4 6 7 7 8 9 11 13 15 13 10 10 10 13 14 14 14 18 22 28 27 30 33 33 29 28 35 43 52 50 44 44 51 52 48 49 45 49 49 46 44 42 40 39 38 36 36
3 4 6 7 8 10 11 13 14 15 14 11 11 16 17 17 16 16 21 25 30 30 35 34 33 29 31 37 45 50 45 45 44 46 45 45 48 47 48 48 44 43 42 41 38 36 31 28 26
7 9 20 13 12 12 14 78 20 15 12 14 16 16 18 20 19 20 27 31 31 33 32 32 30 32 37 45 46 48 47 47 44 43 49 52 48 51 52 48 42 35 32 29 25 21 18 17 18
13 72 31 14 13 14 17 81 20 17 16 18 17 19 22 23 26 30 32 31 32 32 36 35 33 37 46 48 52 55 57 53 51 50 50 49 48 46 42 40 39 30 26 28 26 25 23 22 25
73 46 20 35 15 17 18 20 17 18 18 18 21 24 27 28 30 32 30 30 31 34 41 47 42 49 50 49 61 64 56 51 55 54 57 54 49 42 37 31 28 27 24 24 25 26 29 28 26
20 18 20 17 19 20 20 20 18 19 18 20 24 27 30 33 32 27 29 36 41 46 55 54 42 54 60 64 74 75 68 60 58 56 51 44 35 28 28 29 29 29 29 28 30 30 28 29 36
18 19 19 20 21 22 22 21 20 22 25 25 26 28 28 28 28 30 33 42 42 53 52 68 57 62 69 72 85 81 66 60 57 46 37 34 32 32 35 36 36 36 36 37 40 41 40 40 44
15 14 13 14 15 18 22 21 17 19 21 23 23 22 25 26 27 32 41 46 54 66 69 69 68 73 79 85 70 67 65 58 47 37 36 37 42 46 46 47 48 46 44 40 40 44 43 39 38
14 16 14 13 14 50 13 90 69 31 21 22 22 23 26 26 33 45 53 55 63 69 77 82 81 70 66 78 68 64 53 41 38 38 40 48 53 59 58 55 51 49 44 39 38 34 34 35 32
21 21 22 22 20 20 19 18 95 68 31 24 26 28 28 34 44 47 43 48 57 70 72 63 61 65 66 53 47 43 40 44 75 72 59 91 91 72 70 55 41 39 38 37 36 36 35 34 31
15 17 19 19 21 27 40 25 99 100 34 26 26 26 28 31 34 38 44 46 50 56 60 66 63 49 44 44 49 49 53 59 78 72 74 76 72 58 44 41 42 42 40 36 33 30 26 20 13
12 14 24 28 25 68 33 28 64 29 36 32 30 30 34 39 44 50 56 56 58 59 55 52 50 52 50 52 58 59 62 67 72 69 54 46 42 42 43 44 42 35 27 23 21 18 14 14 12
30 30 30 32 34 55 29 49 78 32 33 35 39 42 47 56 59 58 57 58 53 54 56 58 54 52 49 50 56 57 57 56 47 42 44 48 45 46 45 37 29 21 16 20 29 37 15 12 13
36 35 34 34 32 30 34 46 48 38 39 44 45 42 49 59 57 57 58 56 59 56 50 50 54 55 50 47 48 48 51 52 53 59 59 49 60 61 32 25 18 14 21 46 55 50 48 15 12
33 32 33 32 34 35 81 54 100 70 54 42 48 52 60 65 66 63 61 59 55 53 55 53 52 53 53 51 52 54 55 61 61 65 63 60 84 73 16 19 20 24 36 50 37 21 19 17 19
38 39 42 45 48 50 45 59 74 68 60 60 62 66 72 71 67 64 62 61 60 59 56 54 51 49 46 48 49 49 46 49 52 58 74 97 94 20 20 16 18 21 24 23 26 31 62 84 89
40 43 44 50 52 49 54 53 51 60 64 58 64 61 64 65 67 64 64 63 56 50 50 43 39 41 43 47 49 54 54 58 77 100 90 51 19 17 15 18 18 21 27 34 77 89 81 89 94

GFSSGP_500_rhum_012.txt.gz
RH
26 18 13 19 38 38 52 97 100 71 80 29 6 4 4 4 16 60 56 92 76 29 27 22 9 7 11 13 17 14 10 8 11 13 12 12 10 9 8 9 7 12 17 20 22 14 6 11 13
46 24 63 65 34 31 96 99 79 37 22 11 4 5 4 6 7 12 19 18 16 18 7 6 10 12 12 11 10 8 10 12 13 7 3 2 4 6 7 9 9 9 9 10 13 13 9 6 6
76 18 28 18 53 76 92 97 72 72 6 2 4 3 4 4 5 10 11 17 9 6 9 11 13 14 13 13 14 13 10 8 3 4 4 4 4 4 4 4 4 3 4 4 4 5 7 13 15
20 34 5 21 86 96 98 92 61 30 4 6 12 9 8 6 6 6 5 6 6 10 11 12 9 5 5 7 7 8 6 4 4 4 5 5 6 6 5 5 5 6 6 6 7 7 6 5 10
93 19 19 56 96 91 91 76 60 18 84 34 21 18 6 5 5 6 6 7 7 10 9 4 3 3 3 4 4 4 4 4 5 5 6 6 7 7 8 9 10 10 10 8 7 7 8 8 6
15 40 56 97 80 84 85 51 68 83 99 25 7 5 5 3 4 4 5 6 7 4 1 2 3 3 4 4 4 5 5 6 6 6 7 8 9 11 14 20 24 28 29 28 28 24 16 9 8
30 42 82 98 100 70 11 12 15 24 14 8 7 5 3 3 4 4 4 4 4 3 4 4 4 5 5 5 5 6 6 6 7 8 8 9 10 12 17 24 31 34 35 35 33 31 31 34 28
41 73 88 97 94 75 13 22 14 26 9 8 8 2 3 4 3 3 3 4 5 4 5 5 5 6 6 6 7 8 8 8 8 9 9 10 13 18 26 30 32 36 38 37 39 42 43 43 41
49 93 98 88 78 41 20 14 11 8 6 8 5 3 4 4 5 5 5 5 5 5 6 7 6 7 8 7 9 10 10 10 12 15 18 24 30 36 42 47 44 46 44 42 42 41 43 45 49
65 61 64 62 57 50 14 9 5 3 3 4 4 4 5 6 6 6 5 6 6 7 7 6 7 8 8 7 8 10 12 17 22 27 32 34 33 33 30 32 34 36 35 32 35 40 41 39 36
65 72 58 48 33 20 9 5 5 6 7 6 7 7 8 7 6 6 7 8 8 6 6 8 9 10 12 13 15 20 24 26 29 35 36 34 31 32 34 34 35 39 44 44 41 38 41 42 38
79 74 68 46 12 6 3 3 4 7 6 8 8 8 7 7 7 7 8 8 9 13 17 17 17 20 24 28 29 27 32 33 29 32 34 35 36 37 40 43 46 47 43 44 45 42 41 41 39
61 45 45 9 2 1 2 5 7 8 8 9 9 10 9 9 10 11 12 20 17 18 18 22 25 27 27 22 29 34 37 34 36 39 40 45 44 44 47 50 51 49 45 43 41 40 38 36 35
9 7 2 1 3 6 7 8 8 9 10 12 12 10 13 14 14 13 14 18 21 18 16 19 18 23 28 28 34 37 41 40 41 45 52 53 50 51 52 49 44 44 43 38 31 28 28 28 25
3 5 6 6 7 8 9 9 12 11 14 13 13 16 18 15 14 15 22 25 25 25 17 26 68 29 35 41 44 38 49 44 42 41 44 43 40 45 45 46 44 40 35 28 23 22 21 21 20
4 7 29 12 12 10 11 31 29 22 14 14 17 16 20 22 21 16 26 28 28 23 28 96 48 33 37 44 39 42 37 43 40 39 36 44 45 44 38 35 31 26 26 26 26 25 23 21 21
18 60 84 39 19 14 15 54 83 26 17 20 25 23 24 25 27 28 26 32 31 30 26 20 16 29 62 73 55 45 48 56 55 52 47 52 46 44 34 27 25 28 28 30 30 28 28 27 26
84 69 75 51 13 14 17 27 95 17 22 23 24 26 34 28 40 35 19 34 36 29 38 34 27 64 86 74 75 66 55 58 62 78 56 56 44 38 31 28 27 27 28 31 31 28 25 23 22
67 58 44 74 16 16 16 22 21 23 22 21 24 28 37 39 32 25 29 41 37 44 46 50 66 86 82 60 68 72 75 89 87 72 46 49 33 36 31 30 32 34 35 32 27 23 20 20 21
48 43 26 18 19 21 22 32 19 22 24 22 24 28 30 30 28 24 31 37 39 55 58 56 70 77 86 79 68 79 97 75 65 56 45 36 38 53 58 51 40 42 39 40 34 28 28 28 32
24 22 18 21 16 17 22 64 23 24 27 26 22 21 23 26 27 26 31 46 55 55 68 82 87 98 96 81 68 76 68 66 55 49 62 47 49 58 96 82 59 45 43 40 33 33 35 34 35
16 17 17 18 19 41 30 86 97 73 55 48 32 26 27 23 22 24 34 43 52 74 84 84 70 66 99 82 70 68 56 52 54 58 60 56 55 56 58 57 48 38 38 40 41 41 40 37 33
20 23 22 22 22 25 29 36 96 85 62 50 46 46 28 28 29 35 36 40 55 59 60 59 68 70 66 61 55 54 58 53 53 52 49 47 43 40 45 47 46 46 48 48 46 41 41 40 36
16 17 17 17 19 20 51 85 96 97 81 90 61 30 30 31 34 39 44 48 56 64 67 70 66 56 51 54 57 52 51 47 44 41 41 44 47 51 55 56 58 58 52 55 53 54 66 38 30
22 16 16 53 58 71 82 80 66 66 94 80 48 34 36 42 50 48 47 50 50 55 57 61 66 63 58 48 47 51 46 45 43 38 42 43 46 50 48 48 51 58 61 74 78 80 73 24 8
32 34 36 39 64 50 64 52 72 63 71 80 55 58 53 42 42 47 55 58 60 64 66 62 61 60 58 59 49 39 32 36 39 44 47 50 52 57 56 56 52 47 58 71 63 40 13 10 11
31 35 33 33 34 34 37 98 100 85 90 69 59 57 52 52 56 58 61 62 66 68 65 60 54 52 50 47 42 40 37 34 38 41 44 44 49 59 88 100 100 72 18 14 11 9 9 11 14
36 37 36 36 38 39 80 98 99 86 95 96 62 60 50 58 70 66 69 70 65 59 52 43 40 33 28 28 30 26 30 36 44 45 42 44 44 52 59 44 19 14 11 10 9 10 14 19 25
30 30 32 39 45 45 45 57 70 73 76 73 74 76 70 77 81 81 72 59 48 40 40 33 27 29 32 25 28 36 43 45 45 43 39 34 25 19 16 14 16 15 13 12 15 19 32 42 67
25 26 28 29 38 37 37 42 50 52 60 84 71 66 73 74 73 63 56 45 34 31 32 33 35 26 28 33 37 49 50 46 41 33 24 17 14 19 23 22 17 13 16 20 39 71 91 99 88

GFSSGP_500_rhum_015.txt.gz
RH
46 46 32 21 19 47 84 93 95 97 86 94 66 56 43 18 22 14 41 51 57 40 28 22 8 7 9 10 8 6 6 9 10 4 2 2 2 3 3 4 4 3 3 4 5 8 11 7 4
85 56 26 14 18 80 78 74 87 94 98 87 84 62 17 7 16 6 8 64 24 18 18 6 9 9 11 11 11 9 9 7 3 4 5 5 6 6 6 6 6 5 6 6 6 4 4 8 12
74 37 72 73 88 91 85 96 98 84 89 73 32 4 4 8 14 8 8 22 25 10 7 8 9 9 8 8 10 7 6 3 4 5 6 6 6 6 6 6 6 6 7 7 7 8 8 6 6
69 57 47 96 94 89 83 84 91 98 95 76 6 3 6 16 12 6 9 7 5 7 8 8 6 3 3 5 5 4 4 4 5 6 6 6 6 7 8 8 11 13 14 13 12 9 8 8 7
84 41 81 68 86 93 98 90 96 97 89 33 38 16 35 7 6 6 6 6 7 8 7 3 2 2 3 3 3 4 4 5 5 6 6 7 8 10 13 16 22 24 26 26 26 25 25 24 15
86 89 95 91 87 98 93 65 100 77 72 71 32 5 11 6 4 3 6 5 6 5 2 2 3 4 4 4 5 5 5 6 6 7 8 8 9 10 12 15 20 25 25 25 24 24 24 26 28
73 95 84 72 97 88 78 92 82 74 57 29 4 5 3 3 5 4 5 3 2 2 3 4 4 4 5 5 6 7 7 8 8 8 9 10 10 13 18 24 29 31 32 34 35 34 32 33 33
93 80 94 93 96 86 91 48 31 8 16 9 5 4 3 4 4 3 3 3 3 4 4 4 5 5 6 7 7 7 8 8 9 12 16 18 23 28 30 32 35 36 35 34 32 30 29 30 31
97 95 97 95 87 95 88 42 17 10 11 9 5 5 4 4 4 3 4 4 4 4 5 6 6 6 6 6 7 8 10 12 16 22 26 29 36 36 41 42 38 34 35 38 41 41 37 34 34
92 74 95 90 88 93 60 29 13 8 5 4 7 5 4 5 4 4 4 5 5 6 8 7 6 7 9 10 12 15 19 22 22 20 27 31 33 31 32 32 35 39 40 43 40 38 39 41 36
68 66 94 94 82 68 46 13 6 5 5 6 5 6 4 4 4 5 6 6 6 6 9 11 12 14 17 22 21 20 25 26 24 27 29 30 33 36 36 36 36 40 43 45 44 43 41 41 42
69 69 64 64 64 55 14 7 4 4 8 8 8 7 7 7 6 7 8 10 15 14 18 16 17 22 21 15 13 13 12 16 26 32 31 33 38 46 48 47 44 43 41 38 38 38 37 33 33
66 51 52 63 58 17 4 3 6 8 8 7 7 8 8 8 10 12 12 12 14 13 16 20 23 30 28 25 28 21 17 19 27 34 40 39 44 46 43 44 44 42 41 41 39 37 34 24 17
51 13 18 22 3 1 3 8 10 10 12 10 9 8 11 13 14 16 13 13 13 10 12 31 47 61 61 39 34 29 27 26 31 40 43 41 40 40 42 45 43 39 35 32 29 24 23 21 19
5 4 4 6 8 9 12 14 11 12 13 14 16 15 13 14 12 12 17 14 16 21 24 35 81 89 96 79 65 71 72 40 28 32 40 47 42 47 49 41 36 27 26 24 21 21 20 18 18
4 6 8 12 18 16 14 12 17 23 16 15 15 17 17 14 10 9 15 26 17 17 21 31 87 46 73 95 97 94 90 63 42 37 36 36 39 52 49 38 32 27 25 24 24 23 22 22 22
72 71 50 70 33 18 18 14 14 15 18 19 19 16 16 19 17 12 11 16 26 25 27 18 34 50 64 82 91 85 59 56 62 52 42 38 49 55 47 33 33 32 28 27 28 28 27 26 26
79 92 98 75 28 20 26 26 30 14 21 25 28 28 25 19 14 18 16 17 24 31 44 22 26 56 57 50 44 53 66 64 55 50 54 54 49 43 38 35 42 42 37 36 33 31 30 27 24
97 80 76 61 20 24 21 36 28 20 25 28 27 25 26 24 20 21 24 26 48 76 43 26 44 37 52 47 56 82 73 74 58 57 53 41 41 47 47 44 41 39 41 41 38 33 31 31 31
89 73 42 12 17 22 21 26 24 22 38 28 27 26 27 26 28 31 35 44 66 78 80 63 55 78 56 63 66 76 87 79 67 58 50 51 47 44 46 46 42 40 37 35 34 33 31 31 34
24 31 44 25 19 22 19 21 19 20 35 54 58 72 43 32 33 37 39 47 46 35 45 74 83 71 57 65 73 82 79 62 58 58 51 52 56 54 47 40 33 29 26 19 18 25 30 31 38
18 21 20 17 16 21 23 38 29 26 43 40 54 45 43 54 57 47 44 42 40 44 50 50 55 66 75 74 67 62 56 59 55 58 59 54 49 43 39 36 31 26 23 25 29 31 33 33 36
19 19 21 22 24 26 26 30 96 69 25 39 70 63 76 54 47 34 38 39 45 50 51 61 68 68 65 61 61 60 60 63 63 56 49 37 30 28 29 27 25 26 30 36 37 37 46 56 57
15 15 17 18 18 18 37 57 62 71 98 64 73 99 87 95 51 42 44 44 43 49 61 64 65 64 60 62 66 64 55 48 42 39 33 27 26 32 36 35 38 42 42 43 43 47 51 53 61
18 19 16 12 20 21 41 60 98 94 73 54 52 58 64 49 48 51 47 42 45 57 61 69 73 72 70 64 47 32 27 23 22 25 26 26 35 44 44 45 44 44 44 42 39 32 25 16 15
22 24 24 27 39 50 72 49 70 68 76 84 79 72 74 76 76 67 61 58 62 64 68 64 60 59 54 45 40 35 29 26 27 30 33 40 46 46 46 45 41 34 24 16 12 9 8 8 8
30 32 33 33 35 37 43 48 77 96 93 93 100 98 78 94 59 61 65 66 68 65 59 54 43 32 27 25 26 30 27 24 25 32 44 45 45 41 32 20 12 10 11 11 12 12 11 10 10
29 30 28 26 29 37 50 64 65 64 76 81 74 95 100 70 79 91 85 80 66 58 48 42 36 31 29 28 27 26 33 33 37 42 44 41 28 13 8 9 11 15 17 21 19 16 16 17 20
18 18 21 22 23 29 38 50 56 64 64 66 64 65 60 74 93 85 76 58 46 43 36 31 30 29 29 30 35 38 36 36 38 40 29 15 8 10 11 21 16 17 18 18 20 20 22 46 82
20 21 21 24 26 26 30 45 50 57 62 70 99 89 67 81 76 58 51 47 44 45 40 34 33 33 34 31 37 36 33 32 34 20 10 11 14 12 33 44 23 23 18 20 22 25 62 91 77

GFSSGP_500_rhum_021.txt.gz
RH
80 94 91 76 95 96 84 74 70 60 55 65 75 67 86 88 96 96 95 75 42 63 55 81 74 19 6 6 8 8 4 4 3 5 6 6 7 8 8 8 8 8 9 9 9 9 9 10 10
85 87 95 92 89 87 77 75 86 95 88 61 62 95 95 87 94 97 97 97 78 33 49 49 30 8 6 8 9 8 5 4 4 6 6 6 7 7 8 10 10 11 11 12 11 13 14 15 13
96 71 72 37 50 89 97 97 98 95 95 84 79 97 94 96 93 58 50 53 38 40 40 65 8 6 7 5 6 6 5 4 5 6 6 6 6 7 10 11 12 14 15 16 18 19 20 20 22
95 87 50 74 36 65 84 92 94 94 96 95 97 96 95 88 96 71 36 11 14 20 13 6 5 6 3 3 4 4 4 4 5 6 6 6 7 8 9 11 13 16 18 20 23 26 28 27 28
100 94 46 57 38 58 57 79 96 97 95 89 96 96 88 86 67 60 30 17 15 10 5 5 5 2 3 3 4 4 4 5 5 5 6 7 8 8 9 10 10 12 14 17 21 24 26 26 27
90 94 94 96 82 87 96 76 71 92 95 96 94 93 86 66 48 23 25 15 7 5 5 5 2 3 3 4 4 4 5 5 6 6 7 8 9 10 12 16 19 23 27 27 27 27 27 26 24
98 71 85 79 88 90 68 77 97 96 96 94 67 86 68 74 63 18 6 6 6 5 6 2 3 4 4 4 5 5 6 7 8 8 10 11 16 22 24 26 27 26 28 24 23 23 24 24 30
96 98 86 93 96 93 93 97 96 100 96 92 41 76 63 35 7 3 4 4 5 5 2 3 3 4 5 6 6 7 8 8 9 11 15 22 24 23 22 26 28 28 29 26 30 31 34 36 37
70 99 100 94 92 92 97 96 92 90 90 63 20 24 12 3 4 6 6 6 3 2 3 4 5 6 6 7 8 8 9 10 14 19 22 23 26 29 32 35 37 39 34 32 29 29 29 31 33
69 80 100 86 86 96 98 88 90 54 42 20 8 9 4 3 5 5 4 4 4 4 5 5 6 8 9 8 9 11 15 19 20 26 20 24 25 27 27 30 31 33 33 33 32 33 33 33 34
96 96 94 84 95 98 90 80 75 24 7 4 5 4 4 4 5 5 4 5 6 6 7 7 8 10 13 14 16 22 24 18 20 24 24 24 24 22 19 22 28 32 33 32 33 36 37 37 36
96 97 93 86 98 90 86 86 66 8 7 7 10 8 7 6 6 6 6 7 8 8 10 13 19 21 20 22 28 31 32 56 67 64 64 67 54 26 20 21 30 32 30 32 34 38 35 31 27
93 90 87 79 89 91 83 71 26 7 10 11 11 9 8 7 8 8 9 11 12 14 17 21 22 25 44 41 57 62 68 90 97 94 82 70 50 21 22 29 35 41 43 41 38 36 34 28 29
89 80 72 71 66 61 59 10 4 11 11 12 13 12 10 8 9 11 11 12 16 20 26 26 30 33 35 58 67 63 78 86 81 73 49 38 21 28 36 42 43 42 38 34 33 34 34 32 30
84 77 54 19 37 50 32 4 10 12 11 12 12 11 11 9 14 12 13 19 22 20 16 13 30 45 59 72 80 70 64 57 32 27 27 41 62 69 55 48 41 40 39 41 42 42 40 40 40
75 76 18 40 38 10 7 10 15 18 17 12 9 9 11 13 13 16 20 20 23 15 15 59 73 87 98 92 95 87 80 48 22 28 42 64 63 67 50 44 47 51 53 55 53 48 39 22 13
60 28 12 36 44 15 16 18 23 36 24 13 11 14 15 15 13 13 10 16 33 16 31 67 93 96 97 96 98 61 32 29 34 58 71 77 77 60 52 58 58 52 35 20 14 12 11 11 11
28 41 22 30 27 18 18 18 16 19 20 19 19 20 17 15 15 20 32 45 40 26 60 97 98 98 99 90 47 39 39 47 84 91 74 72 61 64 64 46 28 16 13 13 13 14 14 14 12
12 21 34 35 21 20 15 12 15 16 16 21 23 21 22 28 38 67 54 43 35 58 88 99 99 79 47 48 39 55 75 92 82 72 71 64 71 63 36 21 18 16 18 17 16 17 18 18 16
50 38 34 26 44 31 22 24 23 22 21 20 20 28 55 53 80 98 91 83 88 100 90 62 50 43 41 46 47 73 67 62 62 67 72 77 62 36 26 27 25 22 20 22 22 22 21 20 19
56 41 60 74 66 53 36 22 19 19 22 23 36 58 96 90 81 70 95 91 86 79 66 74 68 50 42 45 44 47 56 67 74 81 78 54 33 31 34 33 33 31 31 28 26 24 24 21 20
42 62 66 74 72 69 47 28 21 22 28 48 42 36 78 77 90 91 92 83 90 86 85 81 70 68 58 62 64 69 81 87 86 76 57 51 56 56 47 46 40 32 28 26 26 26 25 23 20
27 28 26 31 51 64 51 27 21 21 23 35 51 61 66 100 78 78 84 63 97 96 81 70 80 71 67 71 76 88 94 94 77 65 58 47 44 42 37 37 30 28 29 33 33 29 25 21 17
21 24 25 25 26 31 28 26 21 22 34 51 70 96 77 97 97 76 56 85 87 90 88 85 88 80 83 88 90 90 69 51 45 43 39 35 34 32 30 29 32 35 36 34 29 22 16 13 10
23 19 17 17 17 17 16 17 13 17 28 51 74 74 97 90 77 61 100 97 100 93 83 84 78 90 92 74 57 46 39 35 32 31 30 32 31 30 28 30 35 38 35 28 20 14 10 9 8
21 21 21 19 21 21 29 29 31 34 35 40 38 38 42 51 90 99 99 97 86 76 67 65 58 41 39 33 30 32 33 31 31 34 34 34 30 33 36 41 40 37 30 21 16 12 9 13 61
25 28 28 24 22 21 18 18 24 25 27 28 31 37 39 98 65 65 68 59 68 61 56 41 37 41 44 42 39 37 38 39 38 36 29 27 34 32 37 39 36 28 20 14 10 11 26 34 41
21 18 19 20 19 18 17 16 15 16 20 22 25 29 32 37 43 47 51 60 55 39 48 56 54 53 52 48 46 41 38 36 32 27 26 28 28 35 38 33 26 17 12 8 15 26 48 72 100
20 20 21 20 19 19 19 20 17 15 15 16 19 25 34 36 37 38 39 40 44 51 60 60 60 60 52 47 45 42 34 30 24 19 23 26 33 38 37 24 16 10 9 14 25 37 57 100 100
22 20 19 16 15 15 15 16 17 19 19 18 17 18 22 25 28 29 36 46 54 69 72 65 59 55 54 53 46 38 33 25 20 27 30 34 43 41 26 18 10 10 16 18 27 61 100 97 72

GFSSGP_500_rhum_024.txt.gz
RH
61 81 83 78 65 89 92 99 94 84 49 36 45 54 68 93 94 90 94 96 91 82 88 87 51 45 18 11 6 8 8 6 4 6 6 6 8 10 12 12 12 13 13 13 13 14 14 15 17
73 87 88 81 68 92 95 83 90 96 93 85 91 95 90 96 94 95 93 97 97 76 54 45 35 33 22 5 7 8 9 6 5 6 6 6 7 7 10 12 13 13 14 15 16 17 17 18 19
89 95 77 88 82 82 93 96 96 98 96 96 95 93 96 95 95 97 97 61 48 42 31 15 18 26 8 7 5 6 7 5 6 6 6 6 6 6 8 10 12 14 15 16 18 18 19 19 20
88 91 88 70 93 76 91 93 99 98 90 97 96 94 93 94 97 74 56 65 65 44 24 14 12 8 7 4 4 5 5 4 6 6 6 5 6 6 8 10 10 10 11 11 13 16 19 20 19
82 92 48 71 65 76 87 93 98 96 96 96 96 96 95 96 77 60 64 57 44 34 24 12 7 6 4 3 4 4 4 4 5 5 5 5 6 8 9 9 11 15 18 22 25 25 22 20 18
82 99 70 55 65 68 64 88 96 97 95 96 94 95 94 84 72 83 81 52 34 25 18 6 6 6 3 4 4 4 4 4 4 5 6 7 9 10 13 20 21 21 20 21 21 20 20 23 24
84 94 66 55 45 69 83 79 92 95 95 95 89 68 53 49 50 48 37 15 11 27 14 6 7 3 3 4 4 4 5 5 6 8 8 11 12 17 21 19 20 26 28 28 28 26 27 27 26
95 90 88 93 99 84 89 87 97 96 95 93 65 45 41 36 29 10 3 4 5 7 7 7 3 3 4 4 5 6 6 7 8 9 11 15 19 21 17 17 23 25 27 26 28 24 22 22 22
100 97 89 100 95 100 96 97 93 95 77 66 38 19 18 14 6 4 6 4 5 6 4 2 3 4 5 6 6 7 7 10 11 17 24 26 21 18 19 20 21 19 19 21 26 29 27 24 23
94 98 84 98 98 97 97 97 96 72 22 20 12 8 12 6 4 4 5 6 5 5 5 5 5 7 7 8 8 10 12 17 27 31 32 31 32 29 30 29 22 26 22 20 24 30 31 31 32
85 94 86 97 97 95 97 96 84 64 7 6 8 10 6 6 5 5 6 6 6 6 7 8 9 8 10 14 16 18 24 29 32 41 61 73 77 76 62 61 34 26 29 29 29 32 36 39 41
100 95 96 93 95 96 96 86 72 62 9 9 7 7 7 6 6 6 7 6 7 8 13 15 16 17 19 22 23 27 50 64 48 82 98 93 78 64 62 48 27 29 33 38 38 37 38 37 37
100 94 98 94 89 94 92 72 64 28 9 11 8 10 9 10 9 8 8 10 14 16 13 12 16 20 21 23 35 41 57 55 81 99 61 36 38 41 29 24 32 29 34 38 37 38 40 40 39
95 93 93 89 86 70 65 61 26 8 12 15 13 15 12 11 10 15 15 14 15 15 16 19 34 25 23 27 32 61 78 83 95 78 44 25 22 22 22 27 27 37 43 43 45 47 49 49 47
97 96 90 40 41 65 62 24 5 11 16 16 17 13 15 18 21 26 22 17 17 22 23 28 25 56 78 86 81 84 98 98 71 31 24 20 20 27 31 36 50 57 54 57 57 56 51 32 16
93 87 49 47 28 34 35 17 10 20 24 18 16 16 13 18 18 21 27 27 28 31 27 20 44 78 85 92 96 97 97 92 72 37 40 36 42 63 67 67 66 56 56 54 38 19 15 14 14
77 73 71 48 35 30 10 8 21 31 28 20 20 15 15 18 21 20 22 29 40 44 39 44 75 80 100 98 97 88 94 98 69 56 53 68 83 60 59 64 62 58 29 15 14 15 15 15 15
64 61 43 12 9 9 10 12 19 33 46 32 25 22 24 23 20 24 20 35 49 58 37 59 69 66 96 97 80 72 65 59 53 57 72 66 63 58 65 67 50 26 20 20 20 19 20 18 17
53 34 29 11 10 10 13 17 20 21 22 23 27 27 29 25 37 42 47 47 48 51 61 95 74 98 77 68 81 72 61 66 66 66 65 61 68 69 64 40 24 23 25 23 21 21 22 23 22
39 27 55 37 22 17 21 23 19 18 19 20 21 24 23 29 68 72 41 48 76 93 96 68 53 42 37 41 59 71 71 63 64 65 69 72 68 48 28 25 23 23 25 27 31 32 34 33 26
21 25 41 47 64 47 41 34 32 23 20 17 16 16 19 38 76 67 83 93 93 87 70 60 41 44 64 79 64 60 65 67 68 72 70 52 33 32 33 36 43 48 47 40 33 28 18 16 18
71 65 45 34 55 61 50 44 35 23 18 17 17 23 28 33 32 50 67 79 96 78 55 51 73 99 91 71 62 63 66 68 64 51 42 43 48 53 58 55 38 32 25 20 16 14 16 18 18
39 37 30 26 32 37 35 28 13 13 19 25 28 33 39 36 38 66 98 100 86 59 60 99 99 100 86 74 76 76 84 79 66 67 64 56 50 38 32 30 25 19 15 15 16 18 23 27 34
22 24 24 20 19 18 16 17 14 18 20 20 24 34 31 44 48 96 99 76 54 57 100 90 97 86 89 100 96 86 73 63 58 47 38 33 33 31 28 21 15 16 18 20 23 27 33 38 32
17 20 21 21 20 18 17 16 15 16 20 32 38 34 49 49 44 47 54 65 99 99 98 84 65 79 96 82 66 48 46 44 41 38 38 39 33 29 23 17 19 24 26 32 38 41 37 37 33
18 15 17 19 20 20 20 19 22 24 26 27 28 32 34 37 36 44 96 90 52 50 46 49 63 79 55 43 41 44 46 44 43 46 44 36 31 26 20 23 27 32 40 43 44 36 38 28 9
24 22 25 27 23 19 17 16 18 18 19 20 22 23 23 26 28 34 34 34 35 40 44 51 58 43 44 53 56 53 51 52 51 44 36 32 29 24 23 28 36 38 40 45 43 39 16 7 12
29 28 21 19 18 18 19 20 18 16 15 16 16 17 18 18 19 20 22 28 33 37 42 46 50 53 56 56 59 62 59 51 43 38 37 32 28 31 34 32 36 40 45 44 39 11 8 12 18
22 19 22 22 19 16 15 15 16 16 17 18 19 20 20 20 20 21 22 24 24 27 32 39 48 58 61 66 67 62 54 47 46 41 35 32 34 34 41 43 47 48 48 29 9 10 15 24 60
20 21 22 18 16 16 16 15 15 15 15 16 17 18 20 23 25 26 26 25 25 28 37 43 55 66 71 74 71 60 55 52 46 39 36 39 41 47 49 53 49 48 23 9 13 20 22 42 60

GFSSGP_500_rhum_027.txt.gz
RH
12 8 10 19 50 68 73 78 53 81 92 58 40 38 38 38 45 57 88 93 96 96 96 94 86 34 17 25 22 6 8 5 4 7 7 7 9 10 12 12 13 13 13 13 13 13 14 14 15
18 14 18 22 57 65 73 52 65 99 96 67 50 53 54 57 62 67 91 95 97 96 91 55 36 28 22 28 8 7 7 6 5 7 7 7 8 8 8 10 12 13 14 13 12 13 14 15 16
32 59 50 44 74 76 85 78 74 92 98 97 94 92 90 91 96 96 97 96 93 70 71 53 29 32 27 11 8 6 6 6 5 7 6 6 6 6 7 8 10 10 10 10 11 12 14 16 18
48 77 76 67 70 68 92 100 83 91 95 96 95 96 96 97 97 96 95 85 74 63 47 36 29 26 16 7 5 4 5 5 5 6 6 6 6 6 6 8 9 12 15 16 15 13 12 12 12
72 82 79 71 72 83 81 90 90 86 93 98 97 96 95 93 97 95 91 74 59 47 40 32 33 15 8 5 4 5 5 5 5 5 5 5 5 7 8 9 12 16 15 13 14 16 16 15 18
83 90 80 76 68 68 68 80 93 97 98 94 96 96 96 96 96 82 58 60 63 38 31 32 9 7 8 4 4 4 4 4 4 4 5 6 8 8 10 14 18 15 14 18 20 17 16 17 19
85 84 90 85 66 64 77 70 97 94 97 96 96 93 93 91 90 86 66 23 21 21 23 11 7 9 4 4 4 5 5 5 6 6 7 8 9 11 16 20 16 15 14 17 15 14 12 13 15
59 62 89 88 70 44 62 74 96 94 96 90 92 89 80 54 32 16 6 6 10 20 22 9 9 4 4 5 6 7 7 7 8 8 8 10 15 20 18 18 21 20 20 17 18 17 15 13 12
51 79 97 100 94 96 88 96 98 96 96 89 56 25 17 13 7 4 6 8 12 11 10 7 4 4 6 7 8 8 8 9 10 12 14 19 22 22 34 48 58 58 55 28 27 23 26 27 26
59 99 98 94 82 99 98 91 94 97 81 19 9 8 12 7 6 5 6 8 8 8 8 8 8 8 8 9 9 9 10 13 18 25 30 29 39 69 73 71 70 64 45 36 29 30 32 34 36
96 100 99 97 92 95 93 97 94 95 14 7 10 11 8 7 7 7 8 8 9 8 8 9 10 9 9 11 16 19 22 22 37 58 54 53 73 59 55 50 53 47 44 33 30 33 32 36 36
99 99 97 98 95 98 96 95 75 37 11 8 9 8 8 9 8 7 6 8 8 9 10 14 14 15 18 18 19 23 24 35 47 63 61 66 74 65 42 22 17 17 18 28 30 33 36 37 37
98 95 96 97 97 95 87 75 36 15 11 12 11 11 10 11 12 12 12 12 12 15 15 15 18 18 20 20 19 24 33 41 60 68 74 82 68 44 31 20 19 25 30 30 37 41 42 45 48
96 95 98 95 94 89 80 31 11 20 15 17 13 14 16 16 21 23 21 19 16 13 14 46 26 36 29 31 44 63 72 81 86 93 96 73 47 35 32 30 38 50 46 44 43 50 55 59 57
99 98 95 82 56 90 68 21 15 29 39 17 19 21 17 18 20 21 20 16 16 20 29 21 47 66 50 79 92 96 95 98 98 96 97 96 63 46 45 56 65 55 45 54 59 58 61 42 23
97 96 81 55 26 46 67 27 32 66 22 21 25 24 20 23 29 30 27 22 17 41 32 46 37 61 64 97 100 98 98 98 97 92 73 54 49 44 49 47 51 54 60 61 65 56 27 18 17
95 79 74 51 47 47 47 30 14 20 20 20 28 28 21 24 26 28 32 26 24 38 52 56 56 74 98 100 98 96 96 94 91 83 89 94 81 81 62 64 70 67 63 46 26 22 20 18 20
87 76 68 41 29 43 32 13 27 42 53 56 47 34 27 26 26 29 40 37 48 65 65 62 77 89 97 98 94 78 68 56 55 72 86 74 67 69 75 69 67 47 29 27 25 24 24 23 22
67 50 52 44 20 10 13 16 24 29 44 40 40 43 33 27 23 20 40 49 43 48 69 71 72 98 84 65 34 52 93 78 68 65 61 65 70 71 70 59 32 27 26 27 27 27 27 24 19
70 48 43 31 22 18 21 25 32 31 26 24 25 29 26 23 20 20 20 28 41 73 86 80 73 63 41 44 78 80 82 74 61 52 65 63 56 43 34 32 37 41 43 42 38 30 18 16 16
67 47 63 69 44 22 32 28 26 29 22 19 18 18 19 18 17 16 22 41 62 54 56 75 72 56 47 78 66 46 52 66 51 63 71 63 52 53 53 54 54 49 41 32 27 20 15 16 16
67 52 19 42 44 44 30 26 24 24 19 17 18 20 19 20 21 24 44 72 70 86 93 76 56 39 39 66 72 73 66 70 84 86 74 56 55 58 56 47 44 38 32 29 21 15 17 16 18
45 34 73 68 33 36 25 20 16 15 18 22 21 20 19 19 30 48 47 55 80 90 56 41 70 62 72 100 85 44 72 87 81 68 60 57 54 49 45 45 38 34 31 24 20 22 25 27 28
43 61 35 36 30 22 15 19 14 18 20 17 18 19 30 42 56 46 37 35 32 40 48 94 100 96 85 52 39 60 73 59 54 54 54 53 49 48 45 39 37 33 28 25 25 26 30 33 35
38 31 23 17 16 18 17 15 18 21 21 22 25 28 32 36 36 38 34 30 34 46 61 58 33 28 30 34 44 57 52 49 53 52 51 54 56 46 42 41 37 32 28 28 31 32 35 38 40
24 21 22 17 15 18 19 18 17 16 16 16 15 15 16 18 22 22 22 20 20 22 24 24 25 26 30 38 45 45 45 50 56 62 64 57 46 47 46 42 40 35 34 31 34 40 41 39 35
22 16 18 21 25 18 16 16 14 14 14 14 15 16 16 16 17 18 19 19 20 20 20 21 23 26 30 32 35 40 50 58 65 67 59 55 56 54 49 45 39 35 35 38 42 47 43 34 10
17 23 26 22 17 17 18 19 18 18 17 17 17 18 18 19 20 22 23 24 25 25 25 24 24 26 28 31 38 43 54 70 74 68 67 64 57 51 48 43 37 38 40 47 50 42 25 9 10
28 30 20 20 19 17 15 15 15 16 16 15 15 16 17 21 26 26 28 28 28 28 29 29 30 30 33 39 42 54 67 78 77 73 64 54 50 45 41 43 42 44 49 50 35 16 10 12 29
28 20 21 22 19 17 16 16 17 16 16 15 16 18 20 26 31 35 37 36 33 31 29 30 32 36 41 46 51 60 73 77 74 65 60 57 47 48 50 46 52 53 49 29 14 12 12 31 45

GFSSGP_500_rhum_030.txt.gz
RH
13 11 8 8 15 20 60 64 37 47 73 66 80 93 85 60 56 62 76 83 86 93 89 97 95 79 49 22 22 17 5 6 4 5 7 7 8 9 10 12 12 12 12 11 10 10 11 11 12
18 14 12 12 22 58 96 71 67 34 42 50 60 89 90 55 40 36 52 69 93 92 96 96 86 49 39 29 20 7 6 7 4 6 7 7 7 8 8 9 10 10 10 10 11 11 10 11 12
32 25 19 25 38 76 96 58 52 54 58 67 87 92 81 61 57 77 67 83 98 97 96 86 76 46 40 27 11 6 5 6 4 7 7 6 6 6 7 8 9 9 10 13 10 8 8 10 10
49 39 29 57 86 81 77 64 64 70 72 93 98 97 89 89 96 92 94 97 97 96 92 72 44 47 54 14 8 4 5 5 5 6 7 6 6 6 7 8 8 10 13 11 8 8 10 11 13
67 56 56 90 90 75 74 61 80 82 89 97 96 96 97 97 96 92 97 96 96 97 74 44 56 76 23 9 7 5 6 7 6 6 6 5 6 6 7 8 10 14 12 8 10 10 12 13 11
68 61 80 99 96 83 74 79 79 97 89 96 97 97 94 96 95 93 87 98 95 90 54 49 60 59 12 12 5 7 6 6 5 5 5 5 5 7 8 9 14 13 11 12 12 13 13 12 13
70 74 99 98 86 80 78 88 87 94 97 96 96 94 94 93 90 83 93 82 77 78 52 70 54 12 16 6 5 6 8 6 6 5 5 6 7 8 9 13 15 17 34 39 44 37 14 18 17
72 80 75 100 90 80 78 79 83 96 98 98 94 95 94 94 78 84 71 16 22 32 51 63 13 15 12 5 7 8 7 6 6 6 7 8 10 12 17 19 18 50 59 55 52 37 22 37 29
74 70 88 98 98 96 89 94 97 97 96 95 94 49 33 46 39 24 34 21 14 25 37 15 16 13 5 7 9 8 7 6 7 10 11 15 22 27 27 31 55 67 48 47 51 45 43 26 19
72 52 95 73 93 98 97 96 93 96 95 96 32 12 10 12 14 13 26 13 14 16 13 10 7 6 6 8 8 8 8 8 11 16 23 30 46 52 55 57 57 57 24 20 19 20 20 23 24
68 85 68 98 84 97 98 96 97 96 92 60 16 11 8 22 21 40 11 9 10 9 9 9 8 8 8 9 9 10 15 18 19 27 43 58 68 70 59 62 61 35 23 19 19 26 29 28 28
80 84 87 84 96 96 96 94 96 46 17 9 10 8 10 17 11 10 9 8 9 10 11 12 12 13 17 21 20 19 22 25 40 56 58 59 66 69 66 64 50 41 28 22 23 34 30 36 39
87 85 96 92 96 94 82 84 59 46 14 11 14 16 16 18 16 15 15 14 13 14 17 21 20 21 26 26 27 24 29 34 44 63 66 78 78 83 85 71 50 43 37 31 38 41 32 31 41
100 95 95 98 98 82 32 21 24 36 21 23 21 20 18 18 22 21 19 20 19 17 17 25 51 31 41 53 47 44 78 87 92 94 98 98 99 97 80 71 51 40 36 32 38 38 43 50 58
97 99 99 96 94 79 22 14 21 17 20 34 28 22 19 19 20 22 22 22 18 18 52 68 52 68 80 73 59 62 74 98 98 98 98 98 93 82 59 46 40 42 47 50 54 59 62 63 59
99 96 92 78 72 80 55 26 10 14 28 45 38 32 26 24 22 24 24 23 19 36 40 42 76 76 81 96 93 96 97 97 98 98 96 94 89 74 63 66 69 68 66 69 71 57 33 27 23
95 98 93 73 41 49 60 27 21 18 36 46 53 41 34 29 26 28 31 34 34 32 40 58 77 77 97 92 85 99 98 96 89 66 77 72 67 64 71 77 77 75 80 71 46 32 29 28 27
99 93 77 51 46 46 51 26 50 53 70 77 84 56 40 28 28 28 28 37 42 46 53 58 63 76 90 85 96 91 60 63 74 69 81 69 64 71 76 78 75 61 47 34 30 30 30 32 32
97 93 89 66 44 40 40 20 63 78 76 72 53 53 43 34 26 24 22 23 44 49 40 65 74 80 94 96 69 47 40 77 92 80 61 44 44 52 56 47 41 40 39 44 45 46 45 40 34
82 72 68 93 75 37 39 42 55 50 46 38 31 27 29 28 25 22 20 23 23 32 53 60 56 58 79 70 50 45 62 92 99 74 52 52 70 73 73 72 68 68 64 57 53 51 42 38 34
89 87 80 94 67 43 51 46 37 37 30 26 23 22 22 22 18 18 22 26 47 50 58 59 83 95 76 57 71 69 66 81 66 51 60 72 71 66 63 63 63 59 57 55 48 42 40 35 28
87 72 64 80 82 89 63 89 38 26 26 25 21 20 19 20 22 25 32 40 50 45 65 94 86 59 41 45 47 50 48 39 37 46 57 60 62 64 64 60 57 58 55 47 45 44 40 37 31
68 66 63 44 57 53 34 44 70 25 28 25 20 21 23 22 25 41 51 54 53 36 30 31 27 27 24 36 43 28 23 25 33 42 50 55 53 56 58 63 65 58 52 51 46 38 31 30 32
68 70 54 76 56 47 27 22 63 15 20 21 20 19 17 22 40 44 36 28 22 20 18 18 18 20 21 19 19 20 23 28 35 43 49 50 56 63 67 70 63 59 53 45 35 32 35 33 34
56 44 52 32 25 22 18 18 16 19 19 14 14 18 26 28 27 23 19 16 16 18 18 19 20 20 20 20 20 22 25 33 35 34 33 38 51 69 74 68 60 53 42 33 36 42 43 35 34
33 41 40 24 20 21 16 18 21 21 18 16 15 15 16 16 16 17 18 19 20 22 23 24 25 24 24 24 24 27 30 30 31 32 38 48 61 68 65 58 51 44 44 50 52 41 35 36 36
31 26 24 25 17 20 23 18 15 14 14 14 14 15 16 18 18 19 21 23 24 26 28 28 28 28 27 28 29 29 31 33 38 40 41 52 64 63 58 55 52 55 61 55 38 37 42 38 30
23 23 19 21 23 18 19 18 17 16 16 16 16 16 16 16 17 23 26 29 31 32 34 35 34 31 30 30 32 34 37 43 45 45 50 64 67 64 59 57 65 68 54 40 42 44 36 25 10
17 19 25 26 20 19 17 15 15 15 16 16 14 14 15 17 20 22 25 27 32 33 36 38 39 36 35 33 35 37 41 48 56 54 66 71 68 65 70 74 72 55 45 45 45 37 20 8 10
21 27 27 20 22 19 16 17 18 18 18 17 17 17 17 17 17 18 19 20 24 25 30 38 43 45 46 41 39 41 47 59 59 62 72 68 72 78 77 63 55 48 44 48 34 15 7 10 13

GFSSGP_500_rhum_033.txt.gz
RH
13 12 10 9 9 7 20 85 96 83 20 12 12 64 86 61 81 97 82 77 76 65 46 56 88 96 93 69 41 19 12 5 5 3 6 7 8 8 10 10 10 10 9 9 10 10 7 7 7
26 19 17 14 15 55 69 87 69 23 78 55 36 68 78 71 81 87 80 82 94 82 63 82 97 96 78 54 28 16 7 5 6 4 6 7 7 7 8 9 9 8 9 10 11 8 6 7 8
42 36 26 23 49 74 71 97 26 27 42 55 52 54 62 73 74 83 81 79 83 95 95 97 95 95 72 57 33 9 6 5 6 4 7 7 7 6 7 8 7 8 9 11 10 7 7 7 8
57 47 37 40 90 84 91 64 26 44 57 51 58 62 71 83 94 94 95 96 92 93 97 96 96 92 74 62 26 6 4 5 6 6 7 7 6 6 7 7 7 8 10 11 9 8 9 8 8
78 60 58 90 88 92 96 68 58 58 79 73 81 74 97 98 93 93 85 83 94 97 96 97 96 83 94 71 7 7 4 7 5 5 6 6 6 6 6 6 8 9 11 11 14 17 25 20 12
71 66 69 82 90 92 93 40 77 68 64 87 92 97 91 96 92 94 93 95 96 97 96 95 95 97 97 33 9 5 6 6 5 6 6 5 5 5 6 8 8 9 13 19 50 48 47 40 20
73 78 75 85 90 91 100 71 72 88 65 79 90 89 90 92 93 94 97 97 96 96 96 92 95 97 63 11 9 6 6 5 5 5 5 5 5 6 7 8 10 12 15 33 55 44 44 39 27
84 72 90 94 68 91 98 79 55 64 72 96 91 97 91 92 97 90 96 96 96 96 91 97 97 66 12 13 5 5 5 5 5 5 5 5 6 7 9 13 24 28 26 43 53 35 31 22 17
74 71 90 86 95 71 86 70 77 88 79 89 95 90 94 91 92 95 95 95 90 94 97 97 76 18 15 9 5 5 5 5 5 5 6 7 10 13 15 26 39 44 47 43 47 29 24 21 20
76 73 87 91 60 90 86 74 76 85 88 93 85 66 52 38 75 78 88 89 89 85 55 46 16 12 8 5 5 6 7 7 9 12 16 17 18 21 32 40 47 50 54 55 45 38 26 19 20
77 72 94 93 73 77 70 68 78 96 95 94 78 31 35 40 44 48 36 34 32 22 15 7 5 5 6 8 10 11 16 19 20 24 34 43 46 45 46 58 59 61 60 44 39 36 33 27 26
64 61 85 89 86 61 85 83 78 97 95 77 31 14 21 25 12 24 30 26 11 7 8 8 9 11 12 16 22 20 21 24 35 54 63 63 64 74 75 70 71 72 66 57 52 46 36 38 30
60 95 78 93 86 92 86 81 97 97 68 21 16 15 12 14 12 11 12 10 10 10 12 17 18 21 21 21 24 26 33 42 56 63 77 84 97 96 96 98 77 63 50 44 38 35 34 36 41
91 87 99 96 88 95 76 96 75 41 34 18 21 21 16 15 15 14 12 12 14 17 18 20 22 26 34 36 54 64 66 53 64 91 100 100 100 98 96 95 87 77 66 61 44 39 41 48 49
88 99 98 98 93 54 98 38 77 28 21 18 24 23 19 18 18 19 20 22 23 26 29 68 80 48 42 62 67 77 81 97 97 98 96 98 97 94 92 73 64 88 54 55 63 60 57 58 59
97 98 99 93 100 77 95 86 72 46 38 30 21 26 24 22 22 22 24 26 27 30 34 29 26 39 55 63 84 87 100 98 94 98 93 92 92 87 71 61 59 56 67 68 66 58 60 54 41
98 100 98 90 87 74 96 93 52 31 35 33 37 39 35 29 28 25 24 28 31 34 36 45 64 74 69 76 75 97 98 97 93 76 81 92 90 79 57 58 66 68 62 50 44 41 38 35 34
97 99 92 89 53 60 100 95 22 23 44 70 82 64 52 40 32 29 27 28 32 40 50 58 54 47 64 76 71 96 82 67 54 54 69 92 78 58 44 39 39 41 38 42 45 50 54 54 52
95 97 85 91 49 78 68 37 23 38 58 80 99 75 61 44 34 30 28 26 26 29 41 37 29 42 66 71 65 58 71 60 52 52 56 51 38 30 32 38 46 64 66 70 69 64 61 61 56
92 94 99 71 62 38 49 70 22 67 50 56 52 44 34 32 35 32 29 25 22 23 28 26 29 23 31 38 56 69 54 38 42 30 25 24 24 35 46 61 66 71 73 66 65 70 67 61 56
100 98 91 90 73 41 65 79 21 27 36 32 29 28 31 34 33 35 31 31 30 34 30 40 50 41 62 76 45 31 26 26 24 23 22 24 29 33 41 50 57 58 62 66 65 64 62 56 44
100 75 76 82 64 46 31 93 95 79 28 38 52 52 34 30 31 32 33 30 28 29 33 31 29 25 26 24 20 17 18 20 21 20 21 21 27 30 35 35 37 43 53 61 64 66 55 45 43
97 68 70 78 83 99 98 70 94 96 77 43 44 38 26 24 28 25 20 24 34 37 26 21 17 17 16 18 19 19 20 20 21 21 21 24 25 32 33 33 33 43 56 68 67 60 57 52 47
66 59 68 60 93 93 78 98 89 91 82 37 30 29 23 24 22 18 21 29 22 18 17 18 18 20 22 23 23 23 23 24 24 25 28 29 30 32 34 34 40 54 62 64 58 56 56 54 51
65 74 90 90 99 79 80 48 75 89 46 24 18 17 17 17 15 18 21 16 17 18 20 22 25 26 28 28 28 28 28 28 30 33 32 34 36 42 45 45 57 67 66 66 64 60 57 51 47
47 98 97 94 87 73 73 25 72 21 18 19 19 18 17 18 17 15 16 18 20 21 24 26 27 28 30 33 34 32 32 32 32 34 36 38 43 50 50 52 68 69 71 70 65 58 52 44 34
64 49 41 50 25 22 22 80 26 16 15 14 14 14 14 15 16 16 17 22 24 24 25 24 23 24 30 36 38 39 38 39 42 43 42 43 47 51 48 57 74 77 74 70 62 54 52 49 35
39 37 28 27 23 22 74 60 87 19 17 16 16 15 15 15 15 16 17 19 20 20 21 19 19 21 24 32 40 43 46 51 55 50 47 47 51 52 53 82 84 82 79 66 66 68 52 36 24
28 25 26 24 30 27 23 66 25 16 14 15 15 15 15 15 16 16 16 17 18 18 19 19 20 22 25 26 28 35 47 55 58 57 52 51 51 56 85 89 89 84 74 72 75 60 34 24 20
27 19 17 23 28 21 20 23 17 15 16 17 17 17 18 18 19 20 20 21 21 21 21 22 23 24 25 25 26 28 45 61 60 57 53 52 62 88 90 93 82 75 76 81 63 34 26 21 11

GFSSGP_500_rhum_036.txt.gz
RH
12 10 10 10 9 8 8 9 97 60 72 52 38 29 31 37 60 64 57 77 94 93 94 86 67 57 49 59 100 84 61 30 10 4 3 5 7 8 9 10 10 10 9 9 9 9 7 6 6
18 18 17 12 10 9 28 82 92 42 51 56 31 47 48 38 62 77 66 79 82 92 86 89 92 88 86 96 97 82 34 23 6 4 4 6 7 7 8 8 8 8 8 9 10 9 7 6 5
31 40 30 28 11 13 67 91 83 62 42 34 25 69 39 48 62 70 73 69 81 82 84 81 90 97 96 98 94 61 32 10 5 5 4 6 7 7 7 8 8 8 8 9 10 10 8 9 10
59 60 37 26 16 76 99 64 41 68 48 26 26 24 37 39 48 50 72 78 89 83 81 86 91 97 97 95 92 80 17 6 4 6 5 7 7 6 6 7 8 7 8 9 10 12 25 29 34
68 74 61 37 35 65 84 44 32 33 24 56 83 51 29 40 38 62 77 91 94 99 96 95 97 99 96 95 95 38 7 4 5 6 5 7 7 6 6 7 7 7 8 9 12 24 40 40 43
71 72 67 49 84 86 96 30 32 45 90 82 60 62 49 46 69 83 85 97 95 97 96 96 96 97 96 96 74 14 5 4 7 6 5 6 6 6 6 7 7 7 9 13 18 24 42 42 38
76 80 57 78 96 88 84 52 44 69 96 75 59 41 68 66 81 87 90 92 97 96 97 96 96 96 94 92 62 37 13 8 6 5 9 6 5 5 6 7 7 10 13 32 33 29 34 46 38
91 82 74 80 79 94 84 80 62 90 95 85 66 70 69 72 68 73 91 86 94 96 96 96 97 95 92 77 40 27 14 6 5 6 5 4 5 6 7 7 11 13 23 40 41 41 41 40 34
88 83 58 60 98 93 85 95 91 86 87 87 79 82 70 65 83 86 95 95 97 95 96 96 95 88 49 30 16 5 5 6 6 5 5 6 8 10 13 15 17 29 38 41 44 52 49 43 37
78 82 52 100 96 90 79 96 97 84 68 64 58 74 94 63 93 97 94 96 96 96 96 93 62 19 19 11 4 5 8 9 11 11 11 43 28 23 34 43 45 50 58 55 53 53 50 44 40
58 51 97 98 96 71 78 78 59 63 72 83 68 74 75 91 96 96 97 96 96 94 91 40 34 18 7 5 7 10 12 18 18 24 19 28 48 55 71 73 85 93 87 74 60 55 45 40 39
69 78 96 100 98 74 55 72 79 81 99 92 85 76 75 74 51 92 94 92 38 7 7 7 8 9 10 12 14 18 25 21 33 31 47 63 77 83 84 83 100 93 81 69 60 50 46 43 38
78 92 76 72 54 93 100 96 88 99 94 97 34 25 24 21 15 24 33 34 8 12 13 15 16 18 21 24 23 33 58 62 96 92 80 83 92 88 87 98 83 77 76 53 56 34 28 37 36
62 84 80 68 91 88 84 90 96 90 97 76 40 27 19 10 8 7 9 12 13 14 18 22 24 27 38 56 54 72 86 84 92 100 96 96 85 89 76 90 83 72 63 29 32 36 34 39 45
87 92 81 100 92 98 92 96 87 73 24 21 18 17 15 15 25 11 13 14 18 20 22 29 60 56 38 45 62 73 91 91 96 95 92 99 72 76 85 70 40 32 29 26 27 31 33 36 36
77 94 96 96 96 98 93 97 79 44 32 20 16 17 16 16 16 18 20 20 21 24 24 27 29 40 55 59 70 74 95 83 97 88 86 90 60 50 35 30 39 28 29 32 37 38 38 39 40
100 92 100 96 86 98 96 89 50 68 40 32 26 23 20 18 19 20 18 18 19 18 21 25 27 47 66 74 67 62 76 95 84 64 54 54 33 17 18 26 27 24 25 28 33 43 46 51 52
96 99 97 92 66 94 92 86 45 38 39 27 24 31 37 24 21 24 24 24 22 24 27 33 41 54 39 45 45 54 52 44 61 55 28 22 18 18 20 22 22 24 25 28 28 34 45 49 46
96 95 95 99 60 65 94 91 43 28 23 51 58 66 56 31 33 33 31 31 28 28 27 26 30 26 24 25 30 38 60 54 27 21 21 19 19 21 21 21 23 31 34 30 32 33 36 45 51
98 100 96 100 52 48 97 90 64 14 18 18 25 28 27 26 27 27 29 29 23 17 15 14 20 33 39 34 28 35 30 18 17 18 18 19 20 21 22 25 25 28 34 35 32 30 38 48 53
96 100 94 99 57 41 95 52 79 16 25 27 20 19 20 20 19 22 20 17 15 13 17 22 30 36 31 27 18 17 18 19 19 20 22 24 26 27 28 30 35 36 34 36 36 33 44 49 50
100 90 98 95 95 43 49 97 99 46 37 32 26 25 22 21 19 18 18 18 22 16 19 53 37 23 20 20 19 21 22 23 24 25 26 28 30 32 34 34 35 37 39 41 37 38 57 62 61
94 92 64 69 76 73 88 74 60 81 87 46 65 42 31 33 26 18 21 24 23 26 53 28 18 34 39 22 23 25 26 26 25 26 29 30 34 37 38 38 41 40 38 38 37 53 67 72 70
60 49 39 41 81 96 96 95 97 91 98 99 94 52 32 29 26 21 19 20 16 23 18 24 54 23 24 26 28 30 30 27 29 34 37 38 41 50 56 51 45 42 39 39 55 73 78 76 66
40 75 86 87 72 67 94 82 97 88 52 46 21 16 21 18 17 18 16 16 16 16 18 19 20 24 27 29 29 27 26 28 35 38 41 44 48 57 59 54 49 45 44 54 80 87 78 65 55
52 46 96 100 91 92 95 87 78 50 39 48 20 18 16 16 16 16 15 15 17 19 22 24 25 23 22 21 20 24 27 28 31 32 37 42 44 55 56 56 52 51 55 78 81 80 76 63 61
86 63 87 90 89 29 37 42 34 65 27 16 14 15 14 14 15 17 17 16 16 18 19 19 19 18 19 20 20 22 24 25 26 28 28 31 54 64 59 57 54 58 84 81 79 86 75 75 80
32 37 29 28 24 17 90 88 93 80 48 18 16 15 15 15 14 14 15 16 17 17 18 19 20 20 21 22 22 24 25 27 29 31 32 37 54 59 62 60 65 84 79 78 85 83 77 84 81
34 27 26 28 61 31 36 95 80 62 28 16 15 14 15 15 16 17 18 19 19 20 20 21 22 21 24 24 26 28 28 29 30 35 39 47 98 74 65 71 84 76 82 83 86 82 85 95 79
26 56 46 22 18 15 25 48 70 55 18 15 16 17 17 18 19 19 19 19 18 16 17 23 28 30 30 31 32 32 33 34 52 42 43 77 68 70 81 86 80 80 92 95 100 100 100 86 47

GFSSGP_500_rhum_039.txt.gz
RH
19 20 14 12 13 12 12 26 22 27 28 59 96 93 93 86 84 64 59 58 66 83 88 89 97 97 94 83 83 61 70 75 76 28 22 4 4 6 8 10 11 10 9 8 8 8 7 5 5
37 43 26 12 9 9 24 18 26 44 41 38 53 58 82 93 82 67 43 45 76 73 72 92 87 97 93 95 92 89 93 90 70 20 11 4 5 7 8 9 9 9 8 8 8 9 8 7 6
56 51 41 13 9 13 76 69 70 40 56 34 61 50 59 64 70 58 37 35 62 68 87 94 93 94 96 93 96 95 97 90 50 15 6 4 6 8 8 7 8 8 7 8 8 10 10 11 17
52 57 51 28 21 50 68 91 44 25 56 72 85 70 54 50 43 32 35 33 51 70 84 94 96 92 96 95 97 98 98 94 50 11 7 4 7 7 7 7 7 7 7 8 8 11 15 22 26
48 53 51 30 42 96 63 79 49 43 37 43 54 84 51 53 42 27 31 39 71 95 91 91 93 99 100 97 97 98 96 92 73 9 5 5 7 7 6 6 7 7 7 7 9 19 29 27 32
64 50 46 63 71 95 79 67 70 66 38 35 27 54 46 33 40 40 46 52 86 95 94 98 97 96 97 97 96 94 77 18 5 6 6 6 7 7 10 6 6 7 7 10 12 24 35 34 34
81 69 65 57 84 98 63 79 93 84 78 61 37 67 53 44 37 36 60 65 96 98 99 99 97 97 97 96 95 73 42 24 11 10 6 6 11 18 8 5 7 7 11 12 18 30 42 34 38
96 85 78 62 94 92 100 94 97 93 91 77 52 57 59 44 58 71 72 92 97 96 96 96 96 96 93 91 94 94 74 42 22 7 26 33 9 5 5 8 13 17 22 33 40 52 55 47 50
95 86 81 65 98 100 99 98 93 99 90 75 80 51 63 59 85 71 77 67 100 93 97 96 96 96 90 91 79 31 25 29 33 34 10 7 9 15 26 26 35 53 70 68 74 70 58 49 42
87 97 55 94 100 98 92 85 81 71 98 72 60 55 62 96 94 80 84 92 96 98 96 96 94 90 74 45 19 15 10 15 10 9 13 17 23 28 43 58 62 74 81 69 78 66 58 55 42
66 70 83 96 96 89 72 53 71 78 57 39 52 91 83 92 87 82 98 97 97 96 96 94 81 65 44 31 14 8 11 15 18 21 33 46 52 47 64 62 62 63 61 55 61 58 38 51 46
47 57 97 100 86 91 70 47 54 54 65 47 84 92 95 69 92 100 98 97 95 94 81 29 14 9 9 9 10 11 20 20 41 40 73 66 72 75 66 56 57 36 52 66 59 60 44 18 26
58 95 99 96 71 66 53 76 66 73 93 97 97 99 77 77 90 97 95 88 39 55 45 25 16 10 13 16 19 33 47 68 76 79 73 78 63 61 66 55 36 26 37 48 17 25 15 15 22
95 98 86 99 61 66 68 93 89 84 100 96 95 90 79 28 60 28 59 15 8 8 11 13 15 16 30 42 45 45 60 76 89 72 86 79 62 74 77 51 31 20 18 17 18 20 20 22 25
99 98 100 96 69 98 75 98 95 90 93 97 92 56 65 56 67 15 8 8 11 14 15 17 17 22 34 39 48 59 69 72 65 60 79 72 55 64 52 27 19 18 20 21 22 22 24 24 25
90 100 95 99 94 98 100 92 75 87 50 20 17 17 15 38 40 17 16 19 19 19 22 30 36 40 54 63 60 75 53 49 58 62 73 54 47 30 21 19 19 19 21 22 22 23 24 23 23
97 94 96 98 87 86 98 82 50 84 26 25 20 16 18 19 12 12 15 16 17 24 26 29 34 37 71 58 52 49 44 40 51 66 55 27 28 19 19 20 21 23 24 25 27 29 29 28 28
65 91 90 100 89 76 92 76 42 48 40 48 35 22 14 13 12 15 12 15 24 44 40 30 24 38 52 44 39 70 44 48 63 40 22 20 20 21 23 26 28 29 31 32 34 35 36 35 33
94 98 97 96 100 77 77 78 45 33 9 24 28 22 30 26 16 15 13 12 20 26 45 40 26 28 46 52 58 42 32 17 18 20 19 20 22 25 27 28 31 33 35 38 41 41 38 36 33
97 76 98 93 100 46 67 79 44 42 12 14 18 23 23 23 19 17 15 9 13 19 21 22 24 28 52 46 26 20 16 18 20 20 22 24 25 27 27 29 32 38 43 48 49 43 41 36 33
76 88 96 86 79 48 90 54 35 26 14 13 12 13 18 21 20 18 16 13 13 14 19 23 37 39 60 26 19 18 19 21 22 24 26 26 26 28 30 33 37 44 51 57 52 50 41 35 37
76 98 99 84 92 77 70 86 78 66 35 52 29 23 16 20 22 30 26 17 13 14 23 34 69 42 32 26 25 22 22 24 27 28 28 27 25 24 27 34 41 47 53 55 55 52 44 42 54
93 90 96 95 100 89 50 56 81 94 93 99 77 60 26 17 13 17 26 23 15 14 37 19 39 24 47 25 23 25 25 23 24 23 25 24 23 24 25 26 26 31 50 51 53 52 48 58 54
72 67 62 66 53 51 84 96 94 82 92 83 91 38 27 16 15 14 17 18 19 19 24 30 18 19 25 23 26 25 19 18 18 19 20 21 21 22 24 26 27 28 34 46 49 51 61 63 56
45 46 42 33 47 49 100 81 87 67 44 37 40 47 40 22 17 15 20 18 19 26 18 19 21 23 24 22 19 19 19 20 21 21 22 23 25 26 27 30 33 78 74 63 60 62 77 73 67
89 42 97 85 70 72 82 95 72 86 58 32 19 28 16 16 17 16 15 17 18 18 18 17 16 17 18 18 19 21 21 22 23 24 26 28 30 31 33 40 46 79 100 97 70 79 82 74 72
93 89 54 52 76 74 58 70 37 39 37 90 29 17 16 18 17 16 16 14 14 15 16 16 17 18 19 20 22 24 27 30 30 30 32 34 36 48 58 49 54 99 82 70 84 87 82 78 88
58 71 84 44 42 16 76 72 77 86 96 70 22 16 16 16 16 15 15 15 16 17 19 20 20 16 16 22 29 33 36 39 52 72 67 44 48 98 100 67 92 100 89 91 88 82 73 76 90
37 34 47 36 25 16 42 82 100 94 81 64 26 16 16 16 16 16 16 18 19 20 18 18 18 17 22 25 33 36 40 57 81 72 53 50 55 98 100 65 76 86 87 92 78 74 78 91 97
32 34 79 35 27 21 14 30 61 100 90 75 30 17 16 18 19 19 19 18 18 17 21 35 44 39 27 28 35 43 46 58 86 52 51 56 55 100 96 71 72 99 98 100 90 97 100 100 100

GFSSGP_500_rhum_042.txt.gz
RH
16 12 11 12 17 12 20 36 31 27 24 28 51 75 99 91 80 72 67 70 65 63 56 58 91 94 80 94 96 94 89 89 90 88 79 77 7 8 6 8 10 10 9 8 8 7 7 5 4
19 12 12 11 16 19 36 30 26 28 14 15 39 67 87 96 80 82 73 66 72 62 56 49 60 91 88 96 97 97 90 95 98 92 85 18 7 8 7 9 10 10 9 8 7 8 8 8 7
15 14 15 12 18 40 69 60 54 24 30 52 60 52 66 100 99 94 76 60 43 63 73 72 87 91 89 95 99 95 92 96 99 99 99 62 10 10 12 10 8 8 8 8 7 7 10 18 23
17 25 17 32 48 95 82 53 47 53 74 59 70 70 62 62 55 59 64 54 50 47 70 70 71 74 77 97 100 97 97 95 99 97 80 82 11 7 12 8 7 7 7 7 7 8 11 23 25
27 39 31 50 79 93 72 49 45 41 46 50 66 82 74 58 55 50 58 57 45 37 53 98 98 94 84 97 97 97 97 99 97 91 72 35 33 9 8 8 6 6 6 7 7 11 13 23 32
50 40 50 71 90 72 68 72 84 96 78 55 57 48 43 40 49 52 61 78 62 72 93 96 96 96 98 100 98 96 96 99 96 80 42 14 7 11 11 7 6 6 7 7 11 14 21 35 43
74 54 78 79 91 81 74 74 81 97 73 74 54 35 32 30 43 56 61 74 97 91 98 96 96 96 91 99 96 97 95 83 44 16 17 14 21 9 7 6 7 6 10 19 22 22 32 41 50
86 71 70 75 90 96 51 73 70 91 84 96 90 62 40 47 54 62 57 85 79 94 96 94 97 99 97 97 97 97 89 89 81 59 27 14 14 26 11 11 14 11 24 32 47 52 60 63 57
100 86 85 85 88 92 79 75 79 94 79 75 74 67 68 62 63 78 96 77 96 96 95 96 96 96 96 96 95 96 94 70 36 36 47 33 24 20 39 21 32 48 57 63 55 54 44 57 48
100 99 96 96 95 91 73 72 67 66 57 85 82 75 57 57 45 88 88 92 90 88 96 96 96 97 95 95 95 83 68 54 48 36 22 18 17 19 25 37 64 58 51 42 47 50 43 56 64
88 97 99 97 79 76 70 73 57 43 40 57 50 66 61 60 66 60 97 97 90 96 97 96 96 96 89 51 16 9 10 13 14 20 24 20 33 62 60 58 52 42 29 31 35 40 25 31 44
59 72 100 97 66 73 64 67 52 51 60 57 76 67 76 96 93 87 98 99 100 97 93 95 82 76 41 9 10 11 12 18 27 39 43 67 59 57 54 53 55 51 28 16 14 16 16 16 16
66 77 82 87 71 70 61 58 56 72 74 79 86 80 95 95 97 95 96 96 96 94 89 58 24 16 12 14 18 28 33 45 63 66 65 61 61 68 60 56 64 49 17 16 17 16 16 17 16
58 100 65 74 58 64 58 56 70 63 98 94 92 88 96 92 67 78 87 53 52 55 43 50 56 33 27 26 39 38 47 63 72 77 78 54 59 59 37 38 38 19 17 18 17 17 20 21 22
96 77 75 94 96 77 84 77 86 96 85 96 98 98 94 54 35 67 32 15 14 16 17 16 16 18 24 33 46 55 69 71 72 48 44 37 35 34 17 16 16 18 18 21 23 25 27 29 32
93 93 84 87 88 99 100 87 99 89 70 43 28 58 51 80 49 30 26 23 26 20 16 18 26 27 45 66 55 65 54 50 34 26 30 32 35 16 16 17 18 23 26 28 30 32 34 36 39
85 99 98 81 98 100 99 62 84 94 42 22 21 21 30 25 24 24 20 19 23 29 26 16 17 17 47 62 45 32 42 52 37 40 37 18 16 18 19 22 25 28 29 31 33 37 42 47 47
96 81 98 88 84 89 94 63 58 47 40 40 35 29 18 18 17 22 25 21 21 39 36 37 33 21 25 27 55 54 61 37 23 17 18 20 21 23 24 27 29 29 30 33 36 43 48 52 51
75 90 97 96 78 82 84 91 49 29 18 28 26 25 37 29 15 19 23 28 24 27 21 19 22 23 30 60 55 44 34 23 19 20 22 23 25 25 29 29 30 31 33 34 37 44 54 56 54
63 89 98 96 99 87 77 95 98 58 12 16 22 24 23 28 18 15 20 24 25 25 20 19 21 41 54 83 41 20 25 21 23 23 25 25 24 24 28 28 28 28 27 27 28 30 36 43 52
87 99 99 94 96 85 81 65 62 56 13 21 32 25 26 30 20 16 16 19 21 22 23 20 48 71 76 42 26 36 24 23 23 26 24 21 20 23 23 25 26 26 27 26 27 29 29 37 45
78 78 81 90 82 81 67 72 48 22 11 16 72 33 25 32 31 25 31 29 16 20 20 22 70 64 52 32 46 28 23 24 24 24 22 20 21 22 23 24 26 27 29 31 34 38 50 87 76
81 71 93 96 70 67 67 55 39 25 33 69 66 60 40 22 25 23 26 20 14 14 31 45 43 43 36 29 23 24 25 24 22 21 21 21 22 24 26 27 29 30 31 34 40 43 54 99 100
78 90 78 75 84 75 80 46 88 45 57 74 67 40 41 20 30 37 26 26 26 31 26 45 32 28 27 33 22 24 19 20 21 21 22 24 26 28 29 31 33 33 38 56 54 42 45 56 72
74 68 62 65 54 44 86 68 81 93 64 54 53 55 34 14 15 14 26 17 24 18 37 32 17 19 17 20 19 22 20 20 19 20 26 30 29 31 36 61 76 48 47 91 100 79 61 92 99
54 44 40 39 30 62 77 57 73 82 78 52 32 25 17 15 15 16 16 23 30 29 43 27 25 18 19 20 35 20 16 32 28 23 24 22 35 65 76 84 88 57 75 73 100 80 65 71 75
89 62 68 70 58 59 82 66 51 69 54 32 55 18 17 17 16 16 18 28 33 20 26 19 22 20 22 33 47 27 41 45 20 30 56 75 74 71 99 61 60 58 62 98 100 95 71 79 86
60 67 94 85 67 64 38 49 36 29 64 88 71 28 16 15 16 17 19 19 21 21 20 20 19 18 33 31 37 47 78 79 73 79 87 94 78 76 59 72 63 58 60 97 96 74 78 92 96
81 57 45 48 53 31 27 38 60 54 71 72 66 66 20 17 18 20 22 22 22 21 20 18 18 18 29 38 79 96 92 99 90 83 90 85 64 64 61 58 59 70 81 77 78 88 86 90 92
95 51 45 52 41 31 22 35 44 60 53 60 55 54 30 19 22 23 22 23 22 20 19 18 21 33 60 90 76 96 100 100 99 70 82 75 74 50 57 76 82 72 76 99 100 95 96 100 100

GFSSGP_500_rhum_045.txt.gz
RH
17 21 20 17 23 11 14 36 69 68 63 64 76 89 76 74 78 82 70 78 70 68 60 64 69 59 50 54 86 94 92 94 92 90 98 99 92 81 7 6 6 8 8 8 8 7 6 6 6
12 18 17 20 24 14 34 48 41 46 40 38 53 59 69 64 68 70 70 58 69 78 74 72 79 78 78 71 75 98 79 86 85 98 98 99 92 32 6 6 8 11 10 9 9 7 7 8 13
11 16 19 19 35 65 66 34 43 37 57 44 51 51 74 87 78 82 83 90 68 66 70 76 72 57 63 68 83 80 79 93 92 99 96 100 98 90 20 8 18 22 9 8 8 7 7 8 12
11 15 23 50 90 80 61 32 26 51 61 60 73 64 57 70 77 78 87 84 71 59 59 51 57 50 52 92 90 82 100 97 100 97 96 98 64 51 24 27 17 10 7 6 7 7 7 9 10
12 20 47 85 80 69 63 40 38 53 60 72 58 67 74 56 69 68 62 76 63 77 70 72 58 67 97 99 98 94 97 97 94 99 96 91 71 33 10 12 16 18 7 6 6 7 7 9 12
16 40 96 92 88 80 79 87 72 69 67 96 77 75 68 68 68 57 62 63 80 80 80 83 96 93 90 96 98 92 97 96 96 96 89 87 74 62 48 38 17 9 6 9 20 10 14 27 39
21 68 98 85 92 96 92 86 87 70 95 100 73 76 71 50 50 43 39 51 71 73 79 97 85 67 97 97 96 93 99 98 96 83 36 16 14 12 10 11 8 8 23 24 11 14 54 45 35
36 100 97 84 96 100 98 90 84 80 88 94 80 92 89 56 48 36 44 49 53 96 86 97 97 99 98 95 97 97 97 96 82 58 44 21 15 23 21 8 20 29 21 19 25 53 49 47 42
78 100 89 87 89 100 99 95 75 62 57 71 84 74 80 78 66 58 64 66 44 46 93 96 95 96 97 96 98 98 97 96 88 59 34 32 24 12 17 27 32 33 26 40 48 45 51 47 50
76 87 90 82 96 98 93 95 56 58 59 65 55 70 65 77 83 62 58 60 77 71 67 97 98 97 96 96 97 96 96 71 31 38 36 34 34 30 22 22 25 34 48 38 41 34 37 40 28
91 78 100 90 100 97 88 86 56 43 37 34 42 68 63 52 59 50 47 51 81 100 97 97 96 96 96 97 96 96 96 93 92 68 42 35 26 50 61 59 50 63 50 48 39 20 13 14 13
67 98 96 97 97 73 81 75 54 42 51 47 75 65 66 82 97 88 64 74 93 100 98 97 96 96 97 95 86 60 30 18 19 20 25 38 63 65 68 63 60 58 67 58 33 13 13 12 14
51 82 90 98 91 78 69 65 45 47 60 64 80 80 99 87 97 95 97 96 90 93 97 95 95 96 81 56 36 25 21 23 31 61 75 76 72 65 67 66 51 60 72 50 15 15 15 17 19
80 82 82 85 89 63 55 46 47 64 70 90 100 94 99 96 98 94 86 68 87 84 48 59 40 32 35 47 45 47 54 65 80 88 79 78 73 38 40 37 25 18 17 17 16 18 18 19 22
71 71 63 53 53 53 64 75 87 91 94 98 96 93 100 93 97 64 72 49 34 49 52 66 71 66 61 54 46 52 65 68 68 69 33 25 28 33 34 16 15 15 15 16 20 22 23 23 25
68 72 73 82 89 90 93 86 92 80 86 85 53 56 91 93 74 56 25 26 26 25 33 39 40 32 37 47 50 45 50 49 53 47 34 27 27 25 14 17 17 18 21 22 23 24 24 27 30
59 98 97 76 89 83 87 80 98 68 32 26 34 36 66 26 27 30 42 48 46 44 33 30 22 22 59 69 57 44 46 57 61 33 23 18 19 17 18 20 22 21 20 22 23 24 25 27 29
81 92 84 61 90 89 77 80 90 55 44 37 35 30 28 26 20 22 24 26 43 48 46 42 22 15 18 26 43 59 74 64 29 18 17 19 21 21 21 21 20 19 19 21 22 24 24 24 26
77 91 92 100 96 93 86 100 69 70 32 44 46 55 40 30 29 26 24 24 24 20 16 17 22 26 37 42 67 64 40 32 19 19 20 23 23 21 18 19 20 21 22 22 22 24 26 26 28
62 76 89 95 94 86 89 96 94 75 33 20 35 32 47 41 25 24 23 21 21 17 22 20 20 36 73 67 77 33 19 23 22 22 21 21 18 18 19 21 22 22 22 23 26 28 30 31 34
50 66 88 100 80 84 52 68 68 67 39 23 16 19 21 29 30 28 27 29 27 20 17 18 30 70 60 77 40 35 48 29 29 30 21 19 20 20 22 21 22 24 25 26 28 31 35 40 59
81 100 97 85 69 68 52 54 52 54 42 12 33 37 20 32 40 41 44 45 42 34 26 24 47 60 57 56 39 46 44 70 86 29 19 20 21 22 22 23 27 26 28 49 63 71 67 53 78
90 76 73 73 84 72 74 64 37 34 20 18 52 77 51 40 29 34 29 30 34 52 62 47 62 72 60 38 36 56 64 54 22 20 20 20 21 22 22 25 28 41 58 72 74 100 92 57 84
70 78 80 84 82 68 90 79 58 75 33 52 69 57 45 37 39 49 66 62 50 41 57 56 62 72 53 35 33 35 51 25 48 32 18 22 42 26 27 39 57 65 77 96 100 72 59 60 82
78 57 50 69 72 62 77 50 85 71 67 57 44 42 19 27 36 65 56 47 45 58 54 52 54 54 40 18 18 24 45 33 52 39 28 49 39 44 56 73 89 78 76 85 89 66 63 72 72
76 64 48 52 47 47 38 35 53 60 85 54 36 23 21 14 17 34 41 17 36 46 66 58 70 68 51 36 24 28 43 53 60 38 56 75 88 78 77 85 84 100 68 88 68 58 61 96 82
62 52 50 46 44 44 50 51 53 65 76 62 39 18 15 16 15 16 15 27 22 28 53 59 56 41 35 35 34 33 39 52 63 81 87 94 87 84 98 84 92 77 79 96 57 71 76 72 64
71 79 64 58 50 58 54 55 62 73 62 43 44 56 20 17 16 16 16 17 18 20 33 25 28 31 30 33 35 28 53 62 85 84 99 92 92 99 74 57 75 97 82 59 67 68 71 75 84
90 76 61 47 49 50 45 50 36 31 35 31 71 62 37 25 17 17 19 21 22 23 23 23 22 23 27 33 42 62 75 89 98 94 91 90 93 95 91 92 58 58 58 71 81 90 96 100 100
77 88 80 72 50 29 42 25 26 39 38 38 35 66 65 59 25 19 21 24 26 26 25 22 24 30 41 47 50 70 80 84 96 99 96 100 100 100 81 65 70 70 92 100 100 98 100 100 97

GFSSGP_500_rhum_048.txt.gz
RH
16 13 15 22 24 23 22 27 44 84 83 95 96 93 88 76 74 74 68 86 86 90 84 82 73 63 65 75 75 62 62 60 71 83 90 89 89 89 89 40 5 6 9 9 9 10 8 7 7
17 12 13 18 24 26 39 52 34 36 50 72 87 96 88 90 88 85 61 72 82 77 73 68 70 68 77 76 66 62 68 83 94 82 93 89 93 89 73 40 10 7 10 17 11 9 8 7 7
19 13 13 16 23 32 53 44 33 26 31 56 67 72 78 75 73 62 60 64 76 74 80 80 73 76 75 70 62 61 65 92 87 93 94 96 94 92 91 80 31 8 15 29 9 8 7 7 7
20 14 14 22 34 42 48 54 29 28 41 49 63 72 60 68 59 51 80 82 83 88 83 80 62 62 61 60 57 58 59 98 76 81 90 98 96 91 52 41 9 17 34 12 8 6 7 7 8
19 18 17 26 43 65 63 66 42 44 58 67 78 79 74 63 48 45 74 65 70 68 77 66 66 85 76 72 70 64 97 96 96 97 87 100 98 94 86 66 34 27 12 9 7 6 11 16 10
23 21 21 45 48 86 81 88 69 55 73 84 83 88 89 75 72 72 67 59 63 83 87 86 85 95 100 93 91 91 98 95 96 96 99 97 94 66 25 17 9 21 19 12 11 26 29 21 14
24 23 60 67 76 92 98 100 100 100 100 96 97 97 89 85 68 64 60 60 64 70 92 92 96 94 97 93 99 90 97 92 98 96 97 97 95 83 50 42 32 33 8 11 31 30 19 21 29
24 27 87 76 93 99 100 96 97 98 96 90 100 81 85 95 94 82 58 46 37 43 54 68 92 85 97 98 97 88 89 96 96 96 96 79 25 13 10 10 11 10 12 34 32 30 28 39 35
25 43 96 88 96 96 96 84 91 79 78 73 90 95 89 75 77 64 63 45 37 45 96 96 96 97 97 96 96 97 96 96 97 95 94 72 21 17 14 17 16 25 47 36 32 39 40 33 27
34 66 100 89 90 92 93 84 92 79 61 65 62 71 74 76 53 57 70 52 48 51 64 90 65 77 95 98 97 96 97 96 96 93 64 27 46 32 33 32 40 38 40 46 54 42 42 32 16
40 100 100 85 87 89 99 92 94 85 53 46 44 44 51 57 58 41 53 50 48 41 62 79 86 97 96 97 96 97 96 95 70 40 49 64 75 68 71 58 47 58 66 68 52 58 52 19 13
49 98 95 100 93 98 84 86 78 77 64 58 54 59 56 68 65 47 75 48 55 56 72 96 97 96 97 95 96 96 96 91 94 92 74 60 71 61 76 85 79 67 64 61 62 58 30 14 13
48 93 100 98 94 90 89 75 67 61 63 47 68 72 84 92 92 81 85 81 81 76 95 98 97 99 96 96 97 95 87 87 76 64 55 80 92 94 85 81 63 59 32 21 18 15 14 15 17
56 62 88 83 96 91 77 59 58 52 37 40 83 81 97 94 96 100 96 90 81 85 93 86 78 81 76 79 89 82 86 76 80 90 96 95 76 77 59 39 36 23 14 14 14 13 16 19 21
78 71 62 64 58 74 55 50 66 78 80 96 97 98 97 100 98 71 55 80 92 78 80 76 85 74 75 80 80 71 67 71 76 80 78 43 25 40 32 29 19 15 15 16 16 19 20 18 18
85 73 68 78 96 70 77 85 97 95 70 94 96 97 100 97 88 56 65 64 49 54 59 77 85 76 67 57 57 62 71 71 66 69 50 47 46 58 25 16 16 16 18 19 19 18 18 17 18
97 79 85 99 94 71 93 83 95 54 44 48 62 79 52 90 57 35 35 33 34 40 46 45 42 45 64 61 66 46 33 35 60 72 40 42 20 19 18 18 20 20 18 15 17 18 17 18 18
84 88 98 95 98 97 84 83 74 62 65 63 45 36 32 39 53 56 56 48 43 40 42 36 27 23 33 36 26 29 37 58 65 38 18 18 19 19 19 19 17 17 17 17 16 15 16 17 20
65 85 88 95 74 100 92 73 61 58 51 67 79 40 26 27 29 31 28 29 38 49 36 25 21 23 23 24 25 41 47 66 77 37 19 20 20 20 16 16 17 18 16 13 12 16 21 25 29
56 73 79 92 92 94 72 73 57 59 45 38 64 68 52 30 32 33 32 28 24 20 28 24 24 30 54 62 51 71 47 34 68 36 21 21 19 16 16 18 17 13 13 15 22 27 30 40 50
59 64 82 89 68 75 79 88 76 59 43 20 31 36 42 42 30 25 24 26 24 22 21 22 21 55 68 72 83 41 39 71 68 39 26 48 20 16 17 16 16 25 20 22 28 37 46 57 68
56 60 69 91 84 85 61 55 53 59 58 23 33 35 33 38 48 38 34 46 39 33 22 17 19 57 61 62 45 30 39 57 57 68 52 25 24 25 16 19 34 34 32 43 47 62 72 51 60
54 62 67 76 84 66 65 57 73 45 47 28 23 68 83 32 43 61 47 45 42 37 25 43 29 53 51 56 40 32 50 82 82 78 63 63 48 45 27 30 50 59 63 66 74 78 99 100 90
55 68 63 66 66 53 58 53 64 74 48 29 17 39 70 57 38 42 49 47 64 64 40 56 72 58 74 83 29 22 34 55 58 80 83 51 62 54 35 62 87 93 70 96 90 76 100 100 65
63 64 61 67 75 70 76 59 57 80 82 47 52 63 63 44 35 41 42 80 77 52 62 72 76 81 70 76 59 35 40 56 73 71 78 56 64 56 74 96 96 95 99 100 100 57 60 52 93
68 60 63 63 75 67 64 40 34 62 65 83 73 50 41 30 29 29 60 52 43 57 74 92 90 76 93 80 62 63 61 65 77 79 76 88 98 94 100 94 100 92 100 94 73 78 75 73 68
72 75 70 57 57 50 44 39 36 52 59 62 53 54 28 18 16 16 21 38 24 27 33 60 92 71 42 26 34 36 58 60 77 83 100 100 100 100 100 91 79 79 86 78 99 90 66 77 81
80 79 75 60 53 49 47 47 49 54 68 68 62 67 27 17 17 16 16 16 17 18 23 22 23 32 24 18 22 42 51 67 75 90 91 96 100 97 92 71 78 94 100 100 88 84 82 78 77
96 82 78 90 77 59 45 45 53 52 46 59 54 46 50 47 18 17 17 17 18 20 21 23 23 24 24 48 59 69 75 79 92 96 99 100 100 95 100 98 99 100 100 98 93 83 86 93 94
70 65 70 74 69 76 66 44 33 40 35 32 29 52 82 72 48 39 34 20 23 24 22 22 25 37 55 69 72 75 83 92 94 80 96 100 95 100 100 100 100 100 100 82 92 90 84 73 81

GFSSGP_500_rhum_051.txt.gz
RH
20 18 17 14 16 21 23 22 38 72 65 80 84 75 91 89 84 95 95 96 96 92 86 82 70 70 72 78 65 63 59 48 45 42 47 56 68 82 77 77 44 7 7 8 9 10 10 8 7
25 20 17 14 16 19 23 33 31 34 38 55 64 78 86 78 98 87 88 98 90 89 90 87 82 78 76 72 75 71 54 49 56 69 93 80 69 89 84 74 41 8 7 9 12 12 9 8 7
29 22 20 13 14 18 27 31 33 33 24 34 52 72 71 97 84 80 84 100 86 68 74 82 71 73 72 84 86 58 44 51 55 65 93 78 72 91 92 87 71 23 8 9 14 18 9 7 7
24 26 19 16 20 26 35 35 35 29 38 49 56 62 79 78 76 80 76 79 69 62 68 56 62 74 89 94 82 49 53 52 49 65 76 79 70 91 96 87 77 34 14 13 28 24 8 6 7
12 18 18 19 35 56 58 52 55 35 40 60 80 78 71 73 68 64 69 69 62 66 83 80 86 89 89 78 77 82 84 69 64 75 100 90 84 94 93 87 57 20 8 26 22 9 9 8 29
13 17 19 33 60 80 98 90 90 66 65 98 96 76 81 76 74 70 57 48 63 91 96 86 88 78 82 81 93 94 92 85 86 86 98 92 96 94 93 85 70 45 28 20 14 14 16 24 25
12 18 22 62 94 93 95 93 100 98 90 100 87 94 90 82 89 85 73 63 71 77 95 95 95 89 97 89 97 90 92 95 97 93 100 99 97 95 88 49 24 14 18 29 27 20 21 31 25
14 21 38 89 100 92 93 97 100 100 96 93 98 91 94 95 95 72 60 60 66 76 83 89 85 95 93 95 94 81 90 97 95 94 97 97 96 94 80 66 47 39 34 20 18 33 34 28 32
18 27 90 100 100 96 96 98 92 98 89 78 79 75 91 96 90 72 72 56 63 58 49 46 75 88 86 96 92 99 100 96 96 96 96 97 92 78 55 19 12 13 16 32 42 38 34 44 41
25 41 100 100 100 99 96 87 91 93 92 69 62 60 67 80 87 71 56 55 54 64 48 45 54 74 97 87 96 71 83 96 97 96 96 95 87 56 37 22 29 42 51 52 43 40 54 48 55
38 80 92 100 97 97 94 86 97 95 93 79 66 63 54 66 55 62 57 45 42 69 59 51 96 98 98 97 83 97 96 97 98 97 95 81 65 59 67 72 71 62 59 57 63 62 60 52 49
50 82 86 100 98 100 92 82 96 94 73 76 59 56 53 49 44 47 37 39 69 62 62 53 61 69 84 99 98 97 96 97 97 96 78 85 94 92 88 84 76 80 80 69 44 34 44 25 13
48 73 92 93 91 92 94 82 92 84 54 61 64 56 55 71 78 76 61 35 51 60 58 56 73 96 98 96 96 96 96 97 96 90 90 89 80 82 89 93 90 74 46 42 18 15 13 12 12
63 70 61 64 85 94 86 80 79 63 45 30 37 41 45 90 98 99 90 74 80 96 90 74 96 96 97 97 97 97 95 92 80 74 71 84 98 92 78 85 62 38 25 14 12 12 13 15 14
81 78 73 56 80 86 85 82 71 45 43 65 71 75 97 99 98 94 84 76 75 81 92 94 84 82 85 86 92 95 93 93 93 96 98 97 78 34 38 46 27 16 14 14 13 14 15 14 15
73 90 99 82 97 100 95 94 93 89 66 93 99 100 99 98 74 58 75 91 84 79 79 80 86 89 81 83 90 92 95 92 91 83 95 86 81 82 61 33 14 15 16 15 14 14 15 17 16
65 85 60 71 99 100 98 97 96 62 54 65 85 96 98 88 64 66 66 64 63 67 64 66 67 64 60 70 66 66 67 61 51 69 96 77 63 51 18 15 17 18 16 14 15 17 17 13 13
59 72 83 95 99 100 94 96 85 71 79 54 60 51 68 60 49 35 39 45 55 53 51 44 32 52 70 74 70 43 44 44 52 84 78 42 20 18 18 20 20 17 15 16 17 14 15 14 14
51 61 91 98 99 87 88 95 84 70 85 76 45 39 43 62 63 54 57 47 46 43 43 36 24 23 27 30 27 36 45 54 62 98 87 48 26 23 22 20 16 16 17 15 16 24 19 15 14
43 52 73 87 93 85 89 91 81 60 67 64 55 46 40 38 34 34 35 46 50 45 36 28 24 26 30 44 48 47 67 56 54 94 48 78 40 26 31 20 17 17 16 21 30 34 24 17 22
43 51 57 76 79 99 93 76 70 71 49 35 47 46 52 42 35 35 33 28 27 24 27 26 26 31 46 66 72 70 71 55 48 75 94 75 48 60 45 31 36 34 35 29 41 49 31 34 42
42 42 50 74 88 68 79 88 95 76 64 44 40 32 31 32 37 30 28 24 20 19 20 20 18 23 59 69 64 73 44 37 58 79 83 87 81 61 50 46 51 56 48 41 53 53 56 67 65
40 39 47 61 72 79 80 68 66 64 55 66 51 100 89 51 33 40 46 39 32 28 20 19 15 20 39 58 71 66 46 39 53 89 91 77 80 83 78 61 65 71 53 39 88 94 68 84 95
57 39 42 54 72 68 73 62 75 71 52 52 24 65 93 99 94 45 52 51 43 36 30 26 20 52 59 70 80 74 48 22 27 48 80 90 88 83 76 82 84 81 69 60 83 99 100 100 100
63 52 54 57 55 53 64 59 71 83 78 58 30 30 61 75 90 70 68 67 61 57 73 64 52 63 65 77 92 87 79 70 61 62 96 97 98 97 97 98 93 86 92 93 85 100 86 89 96
53 61 60 51 55 54 57 59 61 44 59 79 52 58 56 72 82 55 52 63 53 74 76 54 79 88 77 80 98 96 78 49 49 70 93 91 100 100 100 100 94 100 98 98 98 96 95 91 99
52 60 62 56 59 69 64 56 56 44 49 56 56 64 74 50 28 40 36 29 48 57 35 61 57 74 89 84 55 42 27 55 80 85 96 92 96 100 100 98 100 100 97 91 88 98 100 98 87
56 82 84 77 70 73 56 48 68 63 54 51 55 60 70 73 25 19 19 21 29 30 26 22 25 25 28 31 28 33 71 88 87 95 98 96 100 96 92 100 100 100 94 100 90 100 86 99 92
67 75 100 92 70 57 51 51 54 68 52 50 51 66 61 57 59 21 17 17 18 19 21 22 23 28 26 25 47 81 82 87 92 98 92 98 97 94 81 90 100 100 100 100 100 100 86 88 86
82 72 82 84 64 60 53 45 61 59 44 40 41 32 30 43 84 74 60 49 50 22 22 24 24 26 25 54 74 70 85 94 91 90 92 99 100 91 100 96 96 100 100 99 95 100 84 88 95

GFSSGP_500_rhum_054.txt.gz
RH
9 17 23 20 16 16 41 83 42 34 31 33 52 90 89 96 87 88 64 74 82 70 73 70 76 64 68 62 61 66 68 62 45 40 40 36 36 63 73 74 69 57 20 12 10 9 10 10 9
18 19 28 21 17 56 68 78 48 42 36 58 53 77 94 84 94 93 98 90 90 84 92 85 74 68 70 66 68 71 76 56 37 41 46 60 72 85 69 80 72 63 38 15 9 10 13 14 9
17 20 26 23 20 67 77 79 47 51 48 40 46 56 81 91 94 91 96 86 79 90 80 61 67 69 76 77 80 80 74 59 47 46 58 60 72 86 76 86 88 72 46 18 8 10 16 17 8
12 11 18 24 49 62 41 43 40 50 52 44 39 28 40 56 70 72 82 75 76 77 81 78 71 76 85 93 91 80 71 67 56 58 64 70 64 92 81 96 96 84 62 21 9 11 22 15 8
12 10 15 20 18 26 42 40 58 70 58 53 44 37 42 58 60 63 61 76 76 79 86 91 72 79 91 89 81 75 70 63 83 87 86 65 77 95 96 94 94 87 66 28 10 17 24 10 11
16 12 18 72 54 48 75 71 87 98 82 56 50 58 71 67 57 57 57 58 93 92 81 80 67 76 86 90 85 76 62 73 88 95 99 96 95 100 97 95 89 90 63 28 10 24 12 15 19
18 15 31 26 71 97 98 95 99 100 98 79 52 83 79 72 70 67 66 63 74 83 91 85 91 95 88 94 86 80 69 80 100 92 98 97 99 100 97 97 97 90 64 32 25 21 20 18 28
18 21 30 76 100 99 96 98 100 94 92 90 80 90 78 72 67 70 80 78 70 70 80 93 96 96 92 94 96 95 91 89 97 96 90 95 96 98 97 96 93 66 21 19 21 27 23 35 35
21 27 92 100 100 98 100 100 86 89 98 97 86 74 70 63 71 84 96 94 73 80 84 93 95 94 83 63 93 78 79 98 96 96 96 96 96 97 100 90 69 51 36 30 19 37 41 38 38
33 39 100 100 98 99 99 82 89 91 94 86 83 70 61 63 74 93 95 91 69 61 62 71 80 80 58 50 88 82 97 96 96 99 97 96 95 96 82 79 90 47 22 44 48 43 47 46 53
42 47 87 100 97 97 95 92 89 87 96 90 82 69 70 76 59 61 53 79 65 53 43 45 65 62 79 53 96 97 96 97 96 97 96 96 97 97 96 54 65 66 54 41 53 58 55 42 50
35 44 65 94 83 87 88 85 86 85 82 66 64 70 63 55 53 49 32 33 46 45 42 45 66 57 95 96 97 95 97 90 93 96 96 96 96 92 83 68 61 64 62 60 66 64 40 18 13
42 49 56 75 97 84 81 75 74 76 77 57 51 65 61 56 50 45 41 42 41 34 38 54 65 76 81 97 73 100 93 95 97 96 97 96 92 88 85 83 74 72 68 59 32 24 11 13 15
68 60 47 57 76 85 95 89 80 70 58 46 46 41 46 54 62 76 80 62 47 42 59 85 63 69 69 81 97 93 95 97 96 94 95 96 94 90 95 96 87 75 47 25 14 14 14 15 15
69 78 78 57 72 72 75 81 84 71 58 46 39 96 96 97 99 98 87 74 81 87 75 78 95 99 100 97 96 97 97 92 91 88 88 88 94 93 75 50 42 34 20 16 14 14 14 15 16
68 82 100 69 75 74 73 100 96 85 70 72 73 99 96 100 98 98 88 78 82 83 95 95 91 96 94 96 92 83 73 84 88 90 92 98 97 70 56 55 64 20 16 14 14 14 16 16 15
61 100 100 87 94 97 84 96 99 65 48 69 92 99 98 94 88 89 94 93 74 60 48 52 60 65 70 77 85 85 93 95 88 85 89 97 91 84 70 37 20 17 16 14 14 16 17 15 13
88 93 100 99 97 73 69 92 82 71 52 58 88 98 95 85 84 92 84 71 72 63 56 61 56 60 81 83 79 77 66 62 59 71 88 98 91 75 43 20 19 20 15 15 15 16 16 17 18
46 53 100 94 99 83 86 100 83 81 84 63 50 59 76 63 46 38 42 50 59 56 52 38 68 96 88 88 74 51 54 60 68 78 86 88 90 63 23 23 22 21 18 17 19 23 31 21 19
38 49 61 70 89 84 100 100 90 87 76 92 58 39 44 58 58 54 54 49 48 45 47 39 27 32 36 35 36 38 56 70 62 63 100 99 93 92 35 30 40 47 32 37 41 42 32 13 14
37 43 51 65 67 64 92 100 85 83 69 52 66 59 48 34 34 36 42 44 46 46 40 30 27 26 24 33 62 77 82 82 61 59 76 96 99 99 83 58 68 52 57 57 50 46 50 22 17
38 41 38 46 62 99 82 100 84 99 84 65 24 37 43 49 41 31 29 30 28 26 22 23 23 22 23 51 79 72 80 86 42 52 71 98 98 97 98 95 87 78 70 68 56 48 49 41 51
42 36 43 47 62 70 68 94 100 78 84 77 60 31 28 32 38 36 29 24 23 24 23 22 21 19 19 28 68 74 73 64 46 45 65 95 89 95 88 89 78 80 87 80 71 70 57 53 78
62 39 37 41 47 55 71 78 100 100 79 63 57 31 35 54 60 49 37 31 41 43 37 32 32 31 28 48 62 73 75 76 58 30 21 38 56 82 98 95 96 94 90 84 82 72 65 74 96
62 61 67 78 68 71 69 60 90 84 77 83 63 43 33 41 44 67 76 58 40 48 38 32 40 66 51 68 81 89 99 92 94 81 76 55 64 84 95 90 96 90 88 90 76 68 94 100 99
66 62 98 96 94 100 58 59 98 62 40 70 85 55 35 60 75 75 99 94 59 54 50 43 70 62 78 88 93 92 98 97 85 45 64 76 86 75 98 93 96 98 100 100 70 83 100 99 99
50 51 67 65 62 59 64 67 66 48 44 51 78 79 76 84 71 62 72 71 67 57 54 54 56 61 74 83 96 94 71 85 82 58 82 94 91 98 98 98 98 100 99 96 92 100 100 97 100
55 55 68 61 78 75 96 77 98 50 49 46 50 61 71 85 85 62 25 23 26 36 58 62 40 34 33 57 58 34 29 30 57 95 98 96 98 98 99 100 98 99 97 99 96 98 79 95 92
41 59 64 84 84 100 97 91 65 61 52 46 46 50 72 75 70 59 33 19 19 20 25 32 27 24 26 28 28 27 29 65 80 90 95 98 96 99 98 99 100 98 90 67 88 96 99 66 98
49 80 70 66 93 70 67 55 66 70 68 66 43 39 44 52 72 75 64 49 43 31 22 22 23 25 28 32 30 28 46 59 77 91 96 85 87 97 84 81 85 66 81 68 77 68 71 54 94

GFSSGP_500_rhum_057.txt.gz
RH
7 7 14 13 23 26 53 62 62 90 69 93 37 97 67 96 95 100 98 92 66 66 60 64 58 65 67 63 60 60 62 58 63 68 52 46 45 40 44 63 65 64 58 41 17 15 11 9 10
7 11 15 18 22 59 59 58 93 86 65 85 56 24 31 36 87 92 95 94 77 72 69 75 75 69 68 66 63 63 62 62 67 71 47 48 43 49 71 78 70 72 66 46 17 16 12 11 14
8 12 12 14 53 65 63 84 94 94 45 32 24 23 86 24 42 88 91 90 90 80 56 86 89 83 78 78 80 75 69 72 75 66 49 46 50 48 51 81 73 84 79 60 41 19 11 11 18
9 13 11 11 70 68 63 94 98 99 42 34 37 100 21 20 25 44 77 92 62 72 59 64 77 90 68 71 81 81 86 84 77 64 65 60 65 60 51 68 80 84 92 81 62 31 10 12 23
13 17 18 88 73 73 84 83 61 71 95 78 20 27 86 23 25 21 34 52 46 84 92 95 92 97 76 75 82 81 79 77 74 68 66 83 78 67 64 66 93 96 86 84 75 35 9 15 21
18 19 61 67 88 81 82 96 95 49 98 27 22 50 37 30 23 30 24 27 46 96 93 91 92 96 95 82 75 83 73 72 73 70 72 94 90 96 92 93 96 95 93 85 68 30 11 20 13
17 52 83 78 77 83 90 88 98 96 93 35 21 27 46 36 31 48 35 50 69 65 97 96 96 97 99 97 91 90 85 88 83 77 71 96 92 92 94 97 96 94 88 91 53 26 14 18 15
14 16 87 82 89 99 93 88 92 80 94 50 34 66 79 49 50 55 53 48 66 79 95 94 89 96 96 98 93 96 95 88 95 99 94 92 95 94 98 97 96 95 96 95 90 57 21 20 26
15 36 90 96 93 95 88 72 98 82 89 90 79 87 79 91 77 60 53 59 66 69 86 80 91 98 95 96 94 93 94 98 96 78 86 96 95 95 96 97 96 96 96 85 26 47 22 34 41
17 91 97 91 91 93 76 95 89 82 89 92 80 84 90 82 74 67 63 71 84 79 90 84 82 68 79 70 65 72 98 96 91 87 81 96 95 96 95 97 96 53 56 54 71 35 40 52 47
66 80 100 94 99 84 81 99 78 78 48 63 88 80 73 72 66 61 68 77 69 86 98 86 70 60 52 58 53 54 86 96 98 96 96 94 97 97 96 94 65 93 86 53 58 43 49 53 40
21 90 90 96 60 68 84 76 83 75 79 77 69 74 65 65 59 61 49 49 50 69 81 63 50 50 45 58 97 76 96 95 97 97 98 96 95 96 97 95 95 92 79 65 53 62 61 61 25
39 46 64 63 77 74 60 71 79 66 58 62 62 52 51 53 58 53 45 44 55 51 44 42 40 49 47 47 96 96 92 97 96 98 96 95 97 97 95 94 96 71 68 62 67 39 25 18 13
52 32 58 31 52 76 62 93 67 56 38 42 46 44 47 48 43 45 65 52 49 47 42 38 46 72 66 98 84 95 96 87 85 99 96 96 96 96 94 94 80 77 76 74 44 20 14 14 13
32 39 100 60 56 41 53 88 85 60 59 52 49 47 48 54 80 90 86 78 61 56 61 79 83 90 98 84 80 91 92 88 94 97 98 97 94 89 95 96 77 69 80 34 16 16 16 14 13
32 86 100 93 86 29 49 93 87 65 70 63 57 60 90 98 93 95 85 74 77 81 68 75 100 98 98 91 98 97 96 96 97 95 95 81 84 98 91 73 48 37 34 16 17 17 14 14 14
80 95 90 91 87 67 60 98 99 62 57 43 62 74 94 98 100 93 80 77 68 67 70 81 93 97 98 97 96 97 94 91 95 96 86 85 91 100 76 64 63 55 19 19 17 14 14 14 12
97 99 94 96 97 78 80 92 98 77 54 48 58 99 97 97 98 90 91 77 66 60 53 55 60 62 66 76 76 80 89 96 100 97 91 97 98 97 82 67 33 21 22 18 15 15 16 20 29
31 94 100 71 94 67 93 73 100 98 68 76 64 89 99 95 92 92 85 77 59 59 54 39 43 47 50 58 62 62 56 51 54 51 52 88 98 96 70 28 24 21 19 21 36 32 40 40 39
32 75 97 99 72 68 68 95 97 95 73 75 63 37 72 64 58 38 39 47 51 50 45 38 30 38 66 69 59 52 43 45 53 55 53 78 94 95 55 30 36 20 30 43 49 46 56 51 48
43 66 100 98 98 55 55 76 96 99 63 71 45 56 39 28 32 40 46 47 46 47 44 40 34 25 24 22 28 48 59 54 68 64 54 61 100 97 96 94 79 70 61 74 70 74 78 63 59
75 86 67 72 86 100 96 100 95 100 75 64 59 34 36 44 31 29 28 28 26 27 28 26 25 22 22 21 24 51 66 73 92 73 46 56 67 97 98 98 98 98 82 79 81 86 89 78 50
61 50 45 44 100 100 100 86 99 86 94 100 66 64 29 26 31 36 32 26 25 25 24 22 22 23 22 22 28 39 60 70 66 69 46 45 56 83 72 73 92 98 100 97 98 93 92 73 69
43 54 34 36 57 100 100 93 96 98 97 99 89 48 44 27 21 33 42 51 31 32 39 40 37 35 33 33 39 40 69 58 62 64 56 43 30 47 79 82 87 95 99 98 99 93 83 68 77
41 64 74 97 100 96 96 83 100 94 92 67 79 99 57 38 32 75 60 79 90 54 43 42 41 37 47 76 58 60 67 80 82 94 96 83 84 61 63 86 98 100 98 99 99 87 98 100 99
36 72 97 94 96 100 91 47 85 80 55 55 62 76 70 46 24 39 79 88 91 100 88 55 57 55 54 65 87 96 97 92 90 92 88 66 53 58 83 93 92 98 97 95 95 99 98 100 98
65 79 91 100 92 72 93 76 85 67 48 39 44 70 83 52 56 75 64 52 48 68 74 69 56 63 59 61 69 79 86 74 39 27 26 42 82 96 99 98 98 99 90 97 100 99 100 100 99
30 83 80 63 78 82 99 96 99 82 52 46 45 51 77 79 75 75 57 44 30 21 24 34 57 66 62 42 38 32 31 34 47 29 38 61 72 81 94 98 91 92 90 94 93 100 100 100 88
23 41 65 100 100 87 99 98 98 92 53 52 44 45 50 64 81 87 87 93 62 20 20 20 27 38 39 32 32 27 49 41 29 33 43 53 61 71 78 78 76 86 83 69 91 100 77 93 74
99 75 42 100 96 100 98 89 96 87 67 59 59 54 51 45 72 80 78 67 34 23 21 20 21 22 24 24 25 36 44 52 53 44 51 49 42 38 22 37 81 15 21 21 24 30 85 66 34

GFSSGP_500_rhum_060.txt.gz
RH
18 17 9 6 9 11 20 41 61 50 74 76 61 88 93 66 79 63 58 60 94 96 96 96 86 81 59 52 52 47 50 49 51 58 62 66 57 44 42 39 41 47 56 57 52 33 22 17 13
20 15 6 7 10 15 48 77 66 72 79 87 61 63 83 74 37 41 96 97 89 90 93 90 76 75 64 60 55 53 57 60 62 63 66 72 55 41 42 44 61 69 64 64 59 32 18 19 16
20 10 6 8 11 32 52 82 87 81 76 68 58 64 57 45 88 43 54 50 60 88 84 82 77 70 73 64 70 74 72 71 73 72 71 73 57 42 43 45 46 66 69 78 73 53 32 22 15
17 6 9 11 26 60 85 82 62 75 70 73 33 57 40 64 98 52 32 20 63 82 66 82 89 97 100 96 97 86 86 82 78 75 76 73 64 59 55 52 49 62 73 85 83 75 66 41 16
10 6 13 55 78 84 76 67 76 54 43 31 55 18 30 79 92 45 28 36 63 88 70 90 90 87 85 91 95 92 85 86 87 84 79 74 67 74 74 72 57 56 80 91 89 83 70 58 16
5 6 67 79 88 72 68 57 35 34 24 13 41 94 61 49 67 40 25 25 45 70 94 90 94 85 90 96 89 92 98 82 79 78 73 70 71 81 80 83 83 82 79 92 96 89 78 29 14
4 10 75 77 76 88 78 31 50 56 23 79 80 96 94 99 83 62 49 56 47 75 83 97 96 87 81 96 96 91 82 80 82 78 70 85 81 90 96 84 92 90 93 96 96 86 84 39 22
4 9 52 94 80 59 48 80 35 19 30 96 53 71 89 80 73 56 44 55 46 65 87 90 93 96 95 96 96 95 94 93 96 92 92 84 92 96 90 96 95 95 84 92 90 96 84 51 25
6 32 96 94 88 86 35 35 19 68 66 41 50 90 75 46 59 55 50 68 60 56 58 80 82 86 95 96 97 96 97 97 96 94 93 86 86 88 90 96 96 96 96 95 98 96 82 61 55
9 35 96 100 72 88 51 28 65 39 83 87 100 50 80 78 67 56 67 76 70 64 60 60 69 76 87 88 94 93 93 91 87 96 94 93 84 94 96 90 96 95 97 96 82 36 62 35 50
14 43 85 89 93 57 20 36 62 74 27 36 92 80 64 60 48 53 55 59 61 64 66 50 61 83 82 63 72 65 58 83 80 98 96 98 97 98 97 96 97 96 89 96 66 55 59 62 52
59 21 66 86 80 30 39 46 78 81 67 71 80 54 58 55 53 54 55 56 59 50 44 37 82 78 63 50 51 67 56 96 77 90 97 97 96 70 100 96 96 96 96 90 77 82 68 59 68
61 59 40 82 87 58 50 45 39 96 80 32 31 37 47 42 46 43 54 50 45 36 30 29 73 58 53 47 56 52 60 88 97 96 94 89 78 99 98 96 96 97 92 97 86 70 68 35 23
27 22 33 87 66 39 55 55 78 54 76 43 54 43 27 26 44 39 36 33 49 47 37 41 39 51 42 42 68 92 96 97 96 96 92 79 95 99 98 96 96 88 94 90 83 75 27 14 12
13 22 64 85 86 40 78 81 58 96 96 45 70 45 28 29 29 31 59 72 70 49 40 41 41 41 44 86 71 97 94 99 93 88 95 91 95 97 98 96 82 95 99 98 79 34 15 13 11
30 51 89 87 80 64 70 97 98 82 74 76 46 49 43 35 39 90 86 84 75 72 57 49 46 62 99 99 97 97 93 70 83 97 92 98 100 97 96 87 97 93 73 48 24 15 13 13 12
81 74 100 81 78 90 64 50 76 95 56 50 55 45 61 58 70 98 88 78 65 66 75 78 86 94 96 95 99 97 93 84 96 97 95 96 95 94 96 93 66 54 52 28 16 15 14 12 13
99 100 93 98 86 65 68 67 56 67 95 64 56 62 77 86 95 93 84 70 52 45 40 54 56 80 100 100 97 96 92 95 94 93 92 94 96 93 96 79 75 62 37 16 16 16 16 32 30
60 30 84 72 96 78 49 62 56 84 97 65 52 56 77 94 89 86 79 66 58 59 51 31 20 35 47 48 42 46 60 41 42 41 48 70 88 98 96 95 72 32 19 17 19 21 26 44 42
34 20 40 98 76 54 46 60 88 64 94 61 50 22 44 65 63 52 56 70 60 41 36 36 33 24 21 18 20 24 26 22 23 43 56 65 90 98 98 94 79 50 41 25 20 36 66 68 66
32 33 62 99 95 92 54 52 75 66 76 66 55 31 32 28 38 46 38 31 26 29 38 35 31 22 19 18 16 18 37 51 48 51 62 60 60 97 97 96 84 80 82 92 94 84 77 83 72
52 95 57 85 97 90 88 88 71 77 82 63 59 40 24 28 25 19 17 18 17 21 22 20 19 20 19 15 14 15 24 48 60 63 75 42 44 52 64 94 98 97 98 96 98 93 90 90 88
27 65 57 76 46 68 90 77 95 80 93 97 70 81 36 21 25 34 30 26 26 20 19 19 19 20 21 21 24 25 30 41 42 49 58 57 35 34 45 69 67 90 84 86 89 100 98 83 65
19 52 38 22 28 49 63 93 78 97 89 98 81 78 49 24 22 22 38 56 67 64 34 35 36 37 29 29 45 59 44 29 50 67 75 76 80 65 55 82 71 60 72 85 93 97 89 80 99
20 38 42 56 80 49 86 100 97 98 86 92 97 70 70 59 21 28 42 46 82 93 92 75 57 50 46 44 64 63 59 63 71 87 91 98 93 69 57 81 78 80 98 100 100 99 97 94 100
23 34 44 68 95 96 67 87 77 69 73 75 56 46 62 41 29 20 41 67 64 66 80 77 71 55 50 54 58 62 66 96 92 96 61 43 74 89 66 91 94 92 96 97 96 96 72 98 99
48 58 53 90 84 95 94 84 61 79 71 64 41 34 45 72 51 28 43 47 61 49 40 35 47 41 51 51 39 60 94 35 46 29 56 53 44 47 63 60 62 65 82 77 72 57 72 96 90
20 71 100 69 77 91 73 64 96 96 82 53 40 38 39 41 64 54 55 57 60 46 32 19 22 33 53 44 29 24 74 63 25 48 97 90 54 62 53 52 41 34 32 27 33 24 42 51 29
22 20 44 85 84 76 70 94 82 97 89 62 53 44 42 39 43 57 73 81 72 68 62 26 19 18 17 22 23 32 28 32 91 71 47 66 64 47 43 43 39 20 11 9 67 93 39 12 15
32 43 30 40 66 76 61 96 93 96 93 67 59 51 47 48 51 48 57 84 81 67 59 33 19 18 17 25 39 89 83 64 97 75 67 65 53 37 38 44 26 10 9 10 12 18 14 18 20

GFSSGP_500_rhum_063.txt.gz
RH
24 23 18 11 7 4 7 40 45 64 82 93 87 87 81 84 95 89 83 87 83 71 73 85 97 94 89 98 78 68 55 55 61 61 58 58 60 61 58 47 40 36 33 35 42 43 49 37 29
27 24 15 9 4 3 11 42 71 96 97 89 80 71 83 92 82 97 74 77 73 62 56 74 86 97 96 91 75 62 62 58 66 64 65 70 70 67 58 40 38 37 44 52 57 57 56 42 29
28 20 10 4 3 9 29 76 95 88 96 84 76 66 71 97 97 95 97 89 100 75 48 96 81 96 89 93 92 87 92 89 74 76 76 74 72 70 63 42 39 41 40 53 64 68 69 55 40
25 14 5 3 14 22 42 73 84 86 68 62 74 48 58 51 49 78 89 85 94 77 75 59 100 94 93 94 80 84 96 95 86 78 77 74 73 70 66 57 58 56 50 51 65 74 77 68 63
22 8 3 2 8 65 65 79 90 88 86 56 57 71 76 67 48 46 32 90 90 64 52 62 91 82 88 82 79 77 74 69 79 84 90 87 80 76 67 68 71 71 61 51 73 88 89 87 64
12 7 2 4 23 85 82 79 87 72 49 45 32 27 41 48 58 67 81 83 80 84 55 94 95 93 78 100 77 90 94 83 93 90 86 86 90 81 74 72 77 79 74 68 75 93 96 94 91
10 6 3 19 40 71 76 75 77 60 72 54 71 51 38 55 90 75 91 89 75 98 92 94 96 96 97 96 94 93 75 95 82 95 89 93 91 78 79 76 86 85 94 99 95 94 96 96 72
7 4 11 36 70 86 83 77 82 64 63 80 95 84 94 55 46 85 98 78 69 83 95 96 94 96 96 98 98 96 96 97 97 80 84 92 89 86 88 83 80 95 96 96 91 90 95 96 86
7 4 12 38 92 89 100 94 80 48 82 72 79 92 74 45 69 78 84 77 54 68 73 71 74 82 89 95 95 97 96 89 80 70 85 94 100 91 94 91 89 96 95 95 95 96 93 91 72
5 7 9 16 98 75 72 94 100 55 59 70 64 87 93 53 61 71 72 78 78 59 51 40 49 53 68 91 94 94 96 97 91 94 96 97 95 92 89 96 96 96 97 96 96 94 93 80 57
5 12 12 17 68 64 39 47 45 33 52 45 78 97 77 79 57 46 43 60 61 56 44 40 47 44 50 74 84 86 93 93 94 96 96 96 95 94 94 96 94 96 97 96 95 95 75 58 49
7 16 21 18 28 51 57 31 12 18 32 62 75 72 77 62 60 48 53 49 50 50 49 42 44 37 47 57 58 66 59 47 48 79 86 90 96 96 96 98 80 97 99 96 95 81 61 64 73
5 10 16 20 46 66 50 26 25 23 79 91 82 54 38 35 38 40 44 44 49 47 47 36 34 32 59 47 55 45 36 43 64 87 87 96 84 87 81 95 95 96 98 95 80 82 89 78 52
7 6 14 27 69 70 72 27 34 73 78 83 86 83 51 54 36 28 41 37 36 39 44 26 24 32 54 52 46 35 35 58 95 89 89 96 95 93 91 94 95 98 94 87 97 93 77 45 23
8 13 40 72 72 59 62 54 82 94 88 90 95 86 75 74 52 45 35 49 74 58 38 17 20 28 39 45 37 39 38 64 81 89 97 90 86 86 92 99 100 98 93 98 100 91 59 20 14
17 40 42 31 59 80 63 83 59 86 100 97 86 70 62 86 64 62 76 84 74 54 37 31 26 25 27 30 59 66 76 82 88 96 94 84 87 86 92 100 96 90 93 98 95 67 24 15 13
26 33 57 62 81 97 75 56 47 68 70 96 69 60 74 93 100 99 99 85 69 61 48 38 40 26 32 60 84 74 73 86 89 94 98 90 81 92 98 99 92 91 84 55 44 24 16 16 14
22 14 77 96 97 88 85 63 50 38 67 87 60 45 86 99 99 100 94 76 44 52 55 56 62 61 80 90 88 90 84 88 87 80 84 97 100 96 97 94 74 64 69 64 40 16 16 16 16
11 10 24 60 83 64 74 60 100 70 57 84 48 45 65 64 92 96 84 68 58 42 25 19 30 44 61 67 81 74 72 74 74 80 94 97 96 98 98 95 87 94 92 46 22 17 15 16 24
14 12 16 88 49 59 90 58 84 73 67 84 62 42 23 59 51 48 69 53 36 30 32 34 26 18 13 13 14 21 21 21 24 27 33 48 61 84 96 96 99 98 63 34 25 20 24 54 76
18 18 28 34 80 94 80 50 92 75 80 69 55 56 38 25 40 33 34 25 22 19 23 18 15 12 12 12 10 11 18 29 36 41 48 45 52 64 88 92 96 98 94 70 84 89 93 90 94
17 28 39 40 99 59 83 56 100 100 88 72 53 71 58 22 33 30 18 14 16 15 15 14 14 14 14 13 11 12 19 25 32 38 52 56 41 42 52 56 88 95 93 94 97 98 90 93 84
18 41 28 61 53 35 71 48 69 100 97 76 71 97 79 36 18 27 23 45 31 20 19 21 28 30 25 18 17 20 20 26 20 35 43 47 45 37 34 46 53 66 76 64 66 88 94 83 99
20 26 22 36 22 27 24 63 69 91 98 97 82 66 53 61 11 16 40 50 51 35 24 29 33 32 28 30 38 54 47 38 53 64 68 72 80 83 94 85 75 76 84 86 86 92 89 89 92
21 21 21 31 20 39 51 52 38 70 70 78 76 47 28 34 23 22 47 40 48 54 47 46 32 26 28 30 38 46 44 44 56 72 79 82 59 85 89 97 99 99 100 88 82 92 94 80 74
24 27 23 30 50 74 63 46 82 100 66 49 52 45 31 23 26 24 28 40 37 38 41 38 33 25 17 21 32 29 36 39 62 70 76 43 64 55 50 70 97 98 95 62 46 55 67 47 37
41 25 46 35 33 90 92 96 83 89 94 70 78 62 32 33 26 30 20 34 42 45 45 39 35 31 24 20 21 23 42 31 52 28 33 87 63 85 66 78 75 65 53 40 25 17 10 8 14
56 42 47 52 52 80 74 93 74 90 94 65 67 58 37 39 35 28 25 36 26 42 41 42 41 42 25 24 25 23 17 19 39 46 61 100 97 99 89 89 41 42 37 33 16 9 8 9 11
49 34 39 49 61 85 66 91 62 49 72 96 63 70 52 44 43 34 30 34 35 24 30 53 49 48 47 51 30 26 23 32 61 58 97 96 97 74 86 56 45 40 39 32 14 10 11 13 16
62 56 30 26 44 98 72 67 78 90 98 91 80 70 63 49 51 46 41 39 17 15 22 29 58 65 80 83 74 42 83 95 97 97 96 99 61 57 54 50 56 50 43 18 10 12 15 18 24

GFSSGP_500_rhum_066.txt.gz
RH
19 24 23 19 11 6 4 18 44 51 74 90 78 84 87 87 76 90 98 97 92 89 88 83 80 72 96 100 99 93 96 95 80 64 56 54 60 64 65 62 57 49 44 39 37 38 44 46 45
25 28 26 16 8 4 8 31 62 51 64 81 69 68 66 78 73 77 88 77 84 94 89 90 80 61 88 96 94 92 92 82 76 75 68 70 73 74 73 66 56 44 37 38 38 40 43 52 50
30 31 21 10 4 9 23 56 62 50 42 66 55 51 62 62 71 66 76 94 94 88 68 69 75 62 56 88 96 88 89 78 85 89 88 69 70 72 72 70 63 44 42 41 42 40 47 61 54
35 27 12 6 5 18 39 62 67 43 82 79 62 48 48 70 74 73 86 71 67 86 74 75 77 68 54 88 83 94 96 79 94 100 89 77 70 65 69 70 67 60 56 59 54 49 51 71 67
37 22 9 4 13 31 54 50 78 100 96 90 81 71 66 38 39 84 79 84 78 70 70 81 86 83 50 89 97 95 95 92 94 91 82 70 62 77 84 71 72 69 73 70 66 52 57 77 78
34 17 5 7 19 47 61 94 99 90 92 85 73 75 67 26 28 60 68 54 58 49 70 60 93 96 97 96 98 78 60 83 94 92 76 67 64 83 87 82 80 72 73 72 79 59 63 88 94
33 13 5 5 17 43 81 100 94 63 55 55 47 52 64 68 28 42 46 42 51 63 96 95 96 93 96 96 96 100 73 56 62 84 72 66 78 83 88 90 88 74 79 80 89 88 69 91 99
28 11 5 7 15 48 85 100 74 66 50 40 32 74 80 77 52 37 46 80 72 74 93 97 96 96 96 96 97 96 96 84 72 70 76 77 86 90 93 94 82 81 79 92 96 95 89 85 99
26 9 5 7 18 31 88 100 79 57 26 21 29 58 46 66 62 70 55 74 77 59 82 94 96 99 97 95 95 95 96 92 90 85 86 97 94 92 91 94 88 94 91 83 94 94 91 92 98
19 9 6 13 24 31 48 52 49 44 34 18 26 39 64 68 66 69 77 75 75 64 62 60 64 65 84 90 95 93 96 98 94 96 99 97 87 85 90 96 93 87 95 95 88 95 96 91 95
17 9 5 10 26 39 34 31 36 21 14 17 29 38 44 68 47 50 58 58 54 54 56 56 50 45 52 60 81 93 92 94 97 96 97 91 96 98 95 96 95 94 97 95 92 98 92 94 78
17 8 5 14 24 42 60 47 26 22 25 72 86 58 46 40 37 29 34 55 56 50 47 46 51 48 48 46 80 81 80 95 94 94 98 96 97 95 95 92 97 96 96 83 90 97 93 81 54
24 9 6 21 44 82 63 75 70 36 89 88 63 58 41 35 23 24 32 35 43 44 44 48 45 47 39 41 61 57 71 69 48 77 94 96 96 96 83 97 72 85 95 88 95 93 83 63 58
26 10 12 26 56 71 82 58 51 42 80 66 59 71 58 40 30 27 25 29 43 37 50 44 35 37 45 48 60 52 56 50 54 50 80 92 95 96 96 99 80 85 84 95 99 82 76 73 64
27 12 30 53 70 59 71 67 70 46 64 87 87 72 59 52 48 38 31 33 46 62 54 48 30 35 59 74 75 69 60 47 50 69 72 96 94 95 90 83 83 77 78 98 88 89 80 67 40
33 17 26 49 60 71 82 83 61 48 72 72 61 66 54 44 50 37 36 50 67 61 45 37 38 33 44 47 62 65 48 42 49 76 75 72 86 92 94 81 82 77 100 95 96 88 82 58 19
49 20 13 26 56 66 77 68 59 47 73 70 43 51 37 47 58 61 54 80 73 60 53 41 35 37 39 42 38 45 76 77 87 80 67 80 96 99 89 80 84 100 99 98 87 83 70 31 18
54 40 13 11 26 78 96 93 52 46 65 77 70 47 34 56 57 78 82 70 57 56 50 48 38 43 31 45 66 72 76 78 78 71 87 89 90 97 84 94 96 95 98 89 81 68 40 21 21
63 44 13 8 19 60 86 99 69 40 78 92 99 51 52 57 58 79 75 58 46 40 47 40 62 63 60 68 67 66 60 60 62 80 100 96 86 87 99 93 91 98 77 57 56 57 29 21 22
74 32 20 10 10 41 70 83 62 38 55 92 99 67 41 54 56 76 76 46 47 29 24 19 18 28 36 55 64 62 62 70 87 90 83 84 86 89 87 93 95 88 86 78 59 47 22 20 19
76 44 16 12 14 24 54 84 91 42 36 88 97 93 37 33 45 37 59 48 22 27 27 20 13 13 11 9 12 16 26 32 34 39 41 54 66 74 82 83 88 95 96 94 53 44 58 52 60
80 27 16 13 18 20 64 58 90 54 65 71 59 58 72 22 28 28 18 20 18 15 13 11 10 10 10 8 10 19 23 28 29 35 43 38 48 55 70 85 88 97 99 94 88 92 88 88 74
75 27 36 16 28 27 33 38 58 65 58 80 67 71 96 89 30 28 32 37 22 16 15 19 18 13 11 9 9 13 18 21 25 32 38 45 46 38 35 40 47 54 72 63 76 86 75 71 64
66 40 32 15 20 22 30 38 36 51 70 87 56 73 77 49 47 22 24 37 41 43 25 23 19 16 13 14 14 23 27 29 39 41 46 48 53 62 64 56 55 60 62 84 94 84 81 70 77
69 66 37 19 13 19 32 16 24 44 74 64 49 59 49 49 46 29 33 47 43 51 51 44 38 27 24 25 27 42 47 53 56 78 70 68 63 67 78 91 94 98 98 95 92 80 49 41 47
82 82 53 20 14 24 43 27 36 48 57 42 43 50 39 32 32 25 18 28 44 42 44 44 41 39 37 25 26 44 52 62 83 98 99 98 90 79 48 70 81 94 99 96 67 44 35 26 16
86 88 51 43 20 16 44 68 48 52 68 46 39 50 45 29 34 40 28 22 33 34 41 42 44 45 36 30 29 36 45 58 100 90 92 78 85 97 99 73 87 92 97 80 43 36 36 23 11
94 93 64 56 35 19 19 83 74 72 70 74 61 38 42 34 30 34 33 33 40 45 48 48 56 57 55 54 30 35 58 50 43 76 73 100 98 97 97 98 96 97 90 51 40 42 40 17 10
83 86 69 66 43 22 28 45 71 79 69 88 82 59 76 66 46 37 32 32 37 43 58 42 53 77 85 76 58 61 38 43 33 44 83 97 97 98 98 92 91 98 69 48 47 39 18 10 11
95 91 76 70 48 32 33 38 74 69 78 76 73 55 72 72 53 40 31 30 33 32 24 30 45 94 97 100 96 89 69 62 41 93 98 98 97 96 95 92 89 72 57 50 31 15 10 13 16

GFSSGP_500_rhum_069.txt.gz
RH
24 24 30 29 20 13 7 5 4 8 19 19 42 48 67 75 78 85 90 93 91 78 81 82 96 81 89 84 75 96 94 98 99 98 89 80 76 68 61 67 68 61 56 51 46 41 49 45 45
25 30 34 26 15 8 5 4 5 13 22 25 33 42 52 56 59 67 74 76 86 75 82 79 81 83 85 85 92 96 87 96 93 90 87 80 82 76 63 63 64 60 57 46 38 42 56 51 50
28 33 31 17 9 7 6 8 16 21 21 23 31 36 42 49 63 86 97 69 76 81 97 94 78 80 84 92 94 89 97 96 96 97 83 89 88 78 72 64 63 60 57 53 38 40 45 49 58
33 35 22 11 7 8 10 28 36 32 29 36 39 62 68 55 45 45 80 95 82 76 74 83 91 86 88 65 60 58 88 96 95 84 98 93 78 74 70 69 66 61 61 60 49 58 57 55 60
39 34 18 9 7 6 14 26 32 39 25 78 81 87 60 65 61 41 31 68 62 70 65 71 78 94 89 91 86 55 67 91 97 86 98 81 73 74 73 65 62 65 66 68 68 66 66 62 62
43 28 18 11 8 7 11 14 15 21 19 35 55 61 51 80 90 62 22 40 64 73 82 71 51 61 68 74 87 95 82 96 97 89 74 88 81 67 65 61 67 75 68 71 70 70 68 67 63
45 28 16 10 8 11 10 12 21 33 27 48 66 40 38 92 73 80 25 32 53 72 62 69 85 91 90 82 81 90 97 97 95 95 97 87 76 69 65 60 80 78 79 75 75 77 80 74 62
44 28 15 10 11 11 10 12 16 31 22 27 32 31 53 67 64 60 46 59 69 72 88 89 95 95 95 98 95 95 96 96 95 97 97 97 87 74 67 70 85 90 85 71 72 84 87 95 76
43 27 14 12 9 7 14 13 19 19 19 19 15 25 53 52 58 64 61 50 72 81 82 90 94 97 96 96 95 94 96 96 96 93 83 71 72 63 65 80 94 95 93 78 83 99 94 99 94
45 25 12 12 8 7 16 16 21 21 28 20 45 37 40 59 65 76 67 54 65 80 70 69 70 68 80 85 93 96 96 96 97 95 81 76 82 66 85 92 97 96 86 95 84 98 98 84 89
46 22 14 11 6 13 16 39 46 24 35 79 88 85 44 47 55 55 50 57 47 53 62 60 51 43 44 57 86 94 97 96 96 96 94 96 90 69 91 97 94 99 95 89 96 97 96 93 96
46 29 14 10 9 23 19 42 50 43 71 71 74 65 50 45 42 49 52 48 44 56 52 41 35 36 37 46 67 90 90 92 94 95 97 96 96 97 97 95 98 95 94 98 96 89 84 97 99
47 36 16 12 10 26 38 42 45 44 43 70 59 67 60 44 38 39 26 28 40 46 45 42 41 41 38 46 47 91 81 86 96 100 95 94 97 97 96 96 95 74 95 94 90 91 79 99 87
50 45 20 14 17 38 43 51 51 44 42 52 73 69 65 45 48 43 36 23 25 35 43 53 48 41 42 43 40 90 87 90 74 69 95 94 96 94 97 91 85 86 93 78 91 92 85 95 71
58 45 19 19 22 42 47 46 58 48 42 44 55 55 53 43 43 48 35 26 33 51 54 53 41 35 33 35 43 98 90 85 65 58 72 92 86 93 94 94 100 93 99 91 86 84 93 76 76
69 52 25 28 31 37 53 52 48 47 41 40 42 49 41 28 48 55 40 29 36 53 49 45 32 27 52 46 96 90 92 84 67 59 76 91 97 99 88 82 99 98 100 84 82 98 90 84 70
84 62 36 33 30 32 41 44 46 48 41 54 49 31 26 37 55 58 47 30 44 44 41 42 35 51 62 46 79 73 70 71 58 60 78 99 100 99 92 93 100 100 89 82 98 97 90 83 58
80 71 59 47 34 26 23 30 50 47 45 62 52 29 28 42 52 65 63 59 50 43 42 41 40 38 61 50 51 66 69 73 97 83 94 100 100 96 96 97 100 93 86 96 99 100 96 87 46
72 76 72 40 24 16 18 14 31 43 50 64 55 37 29 36 46 61 66 55 53 54 41 47 50 72 62 75 69 84 90 95 92 96 98 96 95 93 94 95 94 97 100 100 97 100 97 76 32
60 72 79 35 25 20 17 16 25 36 56 58 48 42 44 30 44 48 65 62 57 40 22 17 38 61 66 67 62 58 62 80 95 90 95 90 93 96 96 93 94 96 100 98 98 87 71 69 29
47 76 86 46 28 18 13 13 36 41 36 49 47 52 45 28 41 24 55 40 40 31 26 16 13 12 14 21 34 43 55 67 72 79 86 97 94 91 94 94 95 99 93 79 88 97 70 46 25
50 83 84 61 28 16 18 12 29 56 54 73 56 50 71 38 26 32 15 35 25 26 21 14 11 10 8 14 26 29 23 28 39 59 71 76 80 87 99 98 100 96 88 89 96 99 87 43 54
55 81 77 63 44 31 16 13 18 75 49 59 70 58 62 71 59 27 23 15 13 12 12 11 12 10 9 10 20 24 30 38 45 52 48 41 57 65 83 90 83 84 88 90 92 88 79 80 75
67 74 78 64 54 40 18 15 15 25 31 61 66 62 64 37 34 39 25 26 30 26 18 19 21 22 19 17 14 18 22 23 27 37 44 52 49 44 41 41 44 42 56 58 54 61 83 92 79
58 62 71 63 55 47 19 14 14 22 18 44 57 54 67 45 33 38 14 32 48 43 45 41 36 29 26 25 25 29 38 44 42 49 53 57 53 57 66 59 49 53 72 79 86 92 98 90 79
71 76 79 75 70 58 21 16 16 24 25 26 58 48 31 36 28 29 19 32 31 44 40 42 42 40 43 40 33 24 31 39 46 55 74 77 83 76 69 75 93 93 93 100 99 100 100 75 41
73 63 81 86 77 68 34 15 16 27 27 32 51 55 36 32 35 29 27 19 23 37 48 52 51 46 50 40 39 29 30 44 45 53 86 99 94 99 99 93 76 90 94 94 98 99 96 52 34
79 93 90 78 68 62 41 31 14 34 38 45 65 61 38 32 36 36 36 33 31 37 33 64 68 68 59 61 68 64 40 35 47 46 90 85 99 97 98 97 97 96 97 98 98 99 72 34 33
65 69 68 69 70 64 43 35 27 23 50 58 51 55 54 56 46 37 40 42 36 35 38 58 98 90 87 87 84 80 72 54 44 36 40 58 100 96 98 97 95 98 96 98 96 87 59 45 36
87 89 95 94 84 75 55 42 31 36 58 59 57 55 74 68 55 51 46 41 37 44 56 60 88 100 98 98 98 98 96 96 71 94 80 49 80 93 95 98 96 96 94 92 86 57 37 25 23

GFSSGP_500_rhum_072.txt.gz
RH
18 22 26 27 27 23 18 14 9 5 4 4 9 18 28 42 62 55 49 71 100 97 95 94 80 82 70 74 85 54 72 90 99 76 78 67 78 77 63 61 58 59 59 58 54 50 48 42 43
22 27 30 28 26 23 16 10 6 5 5 10 16 26 32 46 56 60 63 70 69 88 96 93 82 61 69 74 61 56 59 64 73 69 90 74 75 78 76 72 72 66 62 58 52 48 56 40 38
27 34 34 31 26 22 12 8 6 6 11 18 16 22 28 33 43 54 65 72 77 66 81 89 90 90 57 53 66 62 62 64 58 91 88 97 86 72 70 75 74 68 67 63 55 48 40 42 46
34 36 37 33 29 18 9 6 6 12 15 16 18 22 27 35 51 53 51 49 77 74 73 69 76 66 50 51 53 59 80 52 83 96 91 97 80 70 72 68 73 72 72 66 66 62 58 56 59
36 37 39 34 27 13 7 6 9 12 16 22 18 30 28 35 49 65 94 64 40 42 66 68 96 95 96 97 100 96 81 71 68 78 97 97 70 64 55 71 77 75 72 67 60 66 65 62 61
38 40 41 34 23 10 7 6 8 15 22 18 16 32 36 44 45 88 97 98 61 34 60 62 61 61 59 85 89 95 95 93 93 88 92 95 78 92 62 77 73 73 77 79 75 76 72 68 70
41 44 42 35 16 10 8 6 10 14 15 21 22 26 29 35 55 66 70 64 40 72 72 57 58 82 90 75 88 84 61 72 93 87 94 87 94 72 80 68 74 70 85 88 88 86 84 82 89
44 50 43 30 15 10 6 8 11 15 14 16 20 20 19 41 63 63 72 74 71 83 70 59 70 78 92 96 96 87 92 94 97 94 97 94 87 95 83 64 70 69 96 95 90 93 86 88 84
52 51 42 23 16 10 7 11 12 16 14 22 23 46 40 38 49 65 71 72 71 69 81 91 98 96 95 89 92 75 63 96 97 90 94 98 95 84 83 66 76 76 96 96 92 95 92 96 100
52 53 41 25 20 13 9 14 12 26 27 45 89 86 93 77 32 66 70 54 59 66 59 72 83 70 59 62 47 72 94 96 96 97 95 96 97 96 96 77 82 87 96 96 94 93 97 98 99
53 52 39 24 29 14 9 16 34 32 41 59 76 69 61 62 37 52 57 66 48 60 49 51 52 51 53 52 50 83 96 97 96 96 96 96 96 96 94 78 81 90 97 96 93 92 98 95 94
51 52 42 31 29 17 12 18 33 34 33 44 63 59 54 64 51 46 48 56 46 43 38 38 43 46 46 47 52 73 97 96 97 96 95 95 96 96 93 87 68 87 100 98 98 95 95 96 92
49 59 49 43 28 19 13 20 25 34 29 37 55 71 71 58 54 49 38 32 32 30 39 42 43 45 44 45 52 84 96 97 93 86 96 96 93 95 95 94 77 96 97 100 100 99 97 98 96
52 59 58 51 44 25 15 18 27 46 38 34 43 52 51 60 65 55 57 60 60 43 31 33 49 56 44 41 47 66 88 94 85 86 96 99 96 93 94 96 97 97 100 100 99 98 94 97 94
53 59 63 60 48 35 15 25 31 50 47 38 36 48 56 49 46 37 50 56 54 36 32 60 52 44 39 42 44 40 100 98 99 97 96 94 97 98 95 97 97 96 96 93 100 100 95 99 96
51 59 71 54 49 39 25 25 24 48 44 35 33 50 34 37 44 56 64 68 52 43 65 46 38 30 36 41 40 38 97 96 96 94 95 98 99 96 97 98 96 99 94 99 100 100 97 92 94
73 68 68 56 56 50 30 18 20 39 42 38 36 54 31 33 46 69 78 71 60 68 56 44 31 30 34 51 53 88 98 96 96 91 94 96 96 94 94 97 97 97 99 98 99 95 96 94 94
93 52 53 65 64 57 37 20 17 20 41 34 41 51 39 41 49 71 87 78 63 56 48 47 41 49 79 99 95 99 97 97 97 87 90 95 96 96 97 97 96 97 97 98 95 90 96 97 98
63 44 43 74 83 69 40 32 22 14 24 22 39 45 32 34 46 64 80 66 51 44 24 33 51 62 65 77 72 98 96 100 99 90 98 99 95 100 98 97 98 99 100 100 95 98 95 99 97
59 56 53 70 79 68 50 33 17 14 25 24 46 42 34 40 36 43 69 62 61 44 24 16 39 60 85 84 64 54 70 98 84 99 99 100 100 100 93 95 99 98 100 99 94 96 99 96 97
56 48 71 84 85 66 58 41 20 17 24 35 40 41 41 42 25 34 47 44 36 40 29 16 12 23 50 61 66 79 89 94 99 99 98 98 98 100 100 100 99 99 98 96 98 97 94 90 68
60 64 86 92 70 63 57 37 23 14 14 36 31 38 44 66 36 31 26 17 46 23 28 14 12 10 13 16 23 40 54 74 100 98 97 94 87 89 92 99 95 96 95 98 88 88 89 81 75
80 80 87 78 60 48 52 47 30 16 13 34 40 43 38 43 71 38 29 21 14 14 14 13 13 14 12 17 22 21 23 30 51 71 84 91 94 93 88 82 98 89 92 97 93 97 96 96 96
95 73 64 60 59 37 47 51 28 19 19 21 47 44 37 34 40 38 40 27 29 27 18 19 24 24 22 18 17 21 26 36 44 50 55 62 70 81 85 82 76 77 93 96 90 98 89 91 74
87 74 65 57 54 36 48 54 35 20 17 19 26 44 40 35 33 33 38 23 24 46 47 33 32 36 34 30 28 31 42 47 39 37 47 54 53 49 46 53 62 63 69 65 63 60 58 68 93
90 81 73 70 71 67 55 34 44 30 16 19 22 50 46 44 44 26 35 19 17 42 44 44 43 44 45 45 40 36 34 33 47 46 47 58 58 52 59 56 57 56 45 43 53 72 91 97 95
92 84 90 82 70 53 37 33 51 44 17 19 25 36 47 37 36 25 23 21 22 23 40 38 40 50 51 47 41 38 35 30 30 37 47 61 80 92 84 79 78 68 65 81 92 89 97 98 100
82 93 90 76 59 48 32 30 48 58 23 18 35 48 46 59 41 29 29 29 28 26 28 31 53 68 62 66 60 56 50 48 42 31 37 39 68 69 70 81 86 91 93 84 78 92 99 98 90
71 74 73 66 56 43 38 28 42 51 25 16 41 54 48 38 56 36 32 32 29 29 32 37 47 85 98 82 80 88 89 96 97 96 92 42 68 62 64 79 100 94 99 98 92 97 100 100 99
62 67 82 83 72 58 48 23 42 63 52 29 30 71 58 50 50 49 39 46 43 41 37 39 47 56 82 99 93 93 97 97 99 100 100 88 89 74 40 50 81 76 76 86 97 98 98 96 95

GFSSGP_500_rhum_075.txt.gz
RH
17 19 22 28 32 30 26 22 20 10 5 4 5 9 11 14 20 34 37 41 31 50 71 83 80 75 80 80 64 75 83 74 66 72 75 91 94 80 57 61 55 57 56 55 57 55 54 49 43
21 23 28 33 34 30 27 21 11 6 4 5 9 13 16 26 27 38 48 61 69 62 91 87 82 80 56 54 63 63 64 66 65 67 83 83 90 81 67 63 60 62 61 58 55 53 49 56 52
23 29 34 35 33 31 26 14 7 4 4 7 13 16 20 24 22 26 36 47 70 84 71 81 62 63 80 51 58 50 54 60 62 78 74 84 88 93 76 71 70 70 63 59 60 55 49 46 47
33 36 36 37 34 32 20 10 6 4 6 12 14 18 19 21 25 26 35 45 44 70 80 81 57 60 83 96 88 99 79 60 52 56 70 65 98 92 82 80 80 66 63 66 68 66 67 54 54
39 38 38 37 34 30 15 9 4 6 9 13 16 17 19 23 21 25 54 66 86 89 96 84 84 82 52 71 94 73 63 85 76 64 61 92 96 97 94 93 63 66 60 68 70 71 75 76 74
42 42 40 38 39 25 14 6 5 8 12 15 19 20 18 20 19 28 46 66 77 64 44 95 71 87 93 97 95 95 96 95 95 94 60 70 96 97 97 84 65 53 58 70 77 90 83 82 76
44 46 40 41 40 21 12 6 7 10 14 19 13 10 10 12 14 22 43 69 73 64 67 88 97 94 96 97 96 92 96 97 94 96 85 88 92 93 97 85 67 65 65 73 76 85 78 81 86
49 46 36 43 37 22 14 8 8 11 15 19 18 18 17 30 29 19 46 74 74 80 89 98 97 96 91 93 97 94 93 90 96 89 93 82 94 95 96 84 69 60 63 69 70 78 88 91 88
49 41 42 50 35 26 17 9 10 13 25 26 30 36 41 49 57 52 22 76 71 80 91 90 97 96 96 88 81 90 88 86 91 96 94 91 95 95 97 97 88 69 65 66 78 84 92 95 94
44 43 52 48 37 32 22 12 12 15 34 37 38 46 40 47 49 44 33 68 64 68 83 86 90 83 95 77 74 64 54 77 88 86 96 93 98 97 97 96 90 76 75 70 78 84 92 93 95
44 48 54 49 39 37 28 14 14 21 33 34 42 33 40 39 51 42 39 54 51 38 60 71 79 85 84 66 54 48 77 98 98 100 89 95 98 98 97 96 94 83 79 74 74 97 94 90 97
46 49 53 56 41 40 37 21 17 26 27 28 29 26 52 53 52 43 37 40 40 40 26 36 42 59 55 51 46 45 93 97 96 95 98 98 97 98 97 94 94 90 80 77 88 94 93 96 96
44 50 48 54 50 45 45 29 23 27 31 36 34 29 27 36 46 48 47 47 36 35 25 25 36 43 44 44 42 44 95 95 97 97 97 97 97 98 96 97 96 92 76 76 90 96 97 99 91
40 42 48 44 52 53 51 35 26 28 38 39 42 41 36 35 40 45 41 37 54 49 37 23 30 40 48 54 45 43 94 97 97 97 95 96 99 96 95 96 96 90 88 80 98 96 97 93 97
42 38 43 52 47 48 48 41 30 28 30 39 42 43 38 42 35 36 34 40 50 36 30 36 55 64 65 61 50 38 90 97 97 96 96 97 96 96 96 96 96 94 91 94 98 96 93 96 98
41 44 49 56 37 40 51 51 36 30 30 46 45 42 40 47 30 37 46 49 48 44 43 51 54 47 48 49 44 42 65 95 95 96 98 98 98 97 98 97 100 98 97 96 98 92 94 96 96
40 63 61 57 40 40 46 59 46 34 25 40 59 52 44 57 36 44 58 64 64 68 61 54 46 41 47 40 39 38 44 82 97 96 97 96 97 97 93 96 96 97 96 97 95 94 96 94 95
70 68 43 44 54 39 36 58 61 37 33 21 52 48 40 57 40 46 68 76 70 60 56 47 41 43 63 71 63 58 50 82 97 95 96 94 95 97 95 95 96 96 97 97 96 97 94 91 91
73 49 33 43 60 57 52 39 56 44 32 22 37 46 38 49 43 42 64 77 66 54 38 28 39 50 88 78 72 74 100 94 95 89 81 82 90 97 97 97 96 97 97 100 96 92 93 94 96
72 53 38 52 65 50 56 40 57 60 31 21 35 55 41 48 46 36 44 62 56 54 29 17 36 71 86 97 99 97 91 97 96 91 88 73 78 86 99 96 96 96 95 95 98 96 95 97 97
74 61 49 55 66 51 33 21 44 46 30 20 39 46 44 56 44 27 28 30 38 33 34 19 14 31 65 90 96 78 72 86 86 87 80 72 90 97 98 95 97 97 97 96 97 99 94 95 97
63 69 62 63 64 42 42 20 44 51 40 22 35 38 38 66 65 47 29 20 14 22 20 19 12 9 10 29 50 60 65 65 74 98 90 99 98 96 98 95 94 98 98 97 97 96 98 97 98
78 78 73 65 58 41 32 45 37 50 38 27 31 32 31 45 56 60 48 28 19 17 14 13 12 12 10 8 14 20 33 55 76 96 97 97 97 97 97 96 97 97 96 94 100 91 93 95 91
97 88 75 69 60 37 37 61 29 48 38 24 22 23 30 35 44 43 38 38 26 27 25 18 18 19 18 18 12 12 23 22 48 72 66 59 58 58 62 65 65 72 73 74 72 79 84 92 93
94 92 77 68 60 42 46 52 36 53 42 23 19 22 36 36 44 47 36 34 29 27 44 48 31 30 27 26 24 21 20 19 21 24 26 28 30 42 62 77 81 76 74 73 73 75 68 76 76
98 97 92 92 75 72 58 37 34 52 56 43 20 22 31 43 50 49 56 36 28 19 44 45 43 41 38 37 38 34 30 22 36 38 35 32 40 40 41 43 46 61 74 71 70 77 73 60 56
96 86 99 94 85 74 55 44 38 50 58 57 20 24 41 36 39 49 35 29 29 18 38 40 42 45 46 40 40 45 39 35 30 29 37 42 46 48 51 53 62 61 58 64 63 60 55 66 79
94 100 95 87 75 72 55 53 50 60 83 59 31 26 31 35 39 34 33 29 26 20 20 22 38 40 48 55 52 59 54 54 56 54 42 37 52 57 58 69 75 78 80 79 73 76 80 81 84
96 93 94 83 71 63 56 48 45 62 76 61 33 27 39 48 49 46 36 27 25 28 28 29 34 42 66 79 94 88 73 84 90 98 99 99 89 56 61 82 74 82 92 99 97 99 98 100 100
92 86 87 84 80 74 64 49 57 64 67 78 54 33 56 72 78 62 44 34 29 28 33 36 34 36 46 92 98 99 97 95 98 98 97 84 94 97 64 62 67 52 63 96 99 96 95 97 99

GFSSGP_500_rhum_078.txt.gz
RH
26 27 23 23 27 32 32 27 24 19 9 5 3 4 6 8 8 12 9 8 12 28 37 32 22 20 39 68 70 51 77 94 96 95 79 81 73 96 97 95 80 60 60 54 50 45 47 50 49
26 24 25 25 32 35 32 28 22 12 6 4 5 8 8 11 10 10 12 13 18 33 51 51 42 44 55 56 56 68 71 84 88 73 69 94 99 96 95 94 79 59 49 48 48 52 49 49 50
25 22 27 32 33 36 32 27 18 9 4 5 7 9 10 13 13 10 12 12 33 39 49 54 66 64 71 76 87 48 54 64 68 68 61 80 92 96 97 94 77 57 52 55 52 51 49 50 56
26 30 35 36 34 33 30 27 14 6 5 6 9 10 12 13 9 10 13 16 34 48 66 91 73 88 78 64 94 98 78 48 52 58 54 63 91 97 96 96 91 67 61 58 54 51 52 51 47
36 38 39 37 35 32 34 24 14 5 6 8 11 10 10 10 8 10 12 22 38 54 67 76 85 89 73 75 91 96 96 92 69 65 69 66 75 85 84 95 90 73 74 78 54 56 65 69 70
38 38 40 41 34 30 34 20 10 7 7 8 11 10 12 11 9 9 10 14 22 49 50 52 68 92 65 97 72 97 94 87 96 95 90 73 74 82 97 88 95 90 93 64 61 61 64 66 73
41 41 42 43 36 32 32 19 13 8 7 9 12 15 19 21 16 20 29 29 24 59 68 76 85 92 72 82 87 88 89 96 97 92 96 84 90 80 96 97 95 93 83 63 55 61 64 74 75
43 44 44 39 34 37 32 24 16 9 8 9 19 22 29 39 46 52 56 48 27 51 68 68 97 95 88 72 71 77 81 95 96 94 96 96 89 84 96 96 94 83 88 71 62 59 70 77 70
47 46 43 38 40 41 35 27 22 12 10 12 22 24 32 47 43 42 50 34 28 61 59 59 93 97 96 86 90 93 95 84 82 96 96 97 96 98 86 95 97 81 88 72 65 63 70 74 71
49 47 42 43 41 41 38 36 30 15 13 14 21 24 32 31 42 47 49 33 44 40 37 66 66 93 93 96 95 92 79 79 76 91 96 97 96 90 93 96 97 78 80 76 67 64 67 76 77
47 52 44 45 35 39 38 41 33 21 15 15 18 24 26 29 41 38 47 35 40 33 38 39 51 64 84 96 97 67 56 54 68 98 97 96 97 96 95 96 92 82 89 81 66 67 76 70 82
47 56 57 43 31 35 36 44 42 29 17 15 21 28 31 29 26 33 46 29 30 38 36 22 32 35 38 55 57 46 54 51 88 98 96 96 96 97 98 96 98 97 92 80 73 66 73 82 92
45 57 58 45 31 30 36 49 50 37 22 18 21 28 38 37 30 28 43 41 39 41 40 36 29 33 37 41 40 40 42 56 96 96 96 96 91 97 96 97 97 96 93 80 71 67 84 91 94
41 48 64 46 36 30 45 56 48 40 33 21 13 22 34 37 29 26 29 36 30 30 47 47 43 23 28 38 40 42 37 66 95 95 96 97 96 97 96 96 97 95 94 89 83 70 85 83 98
33 43 54 50 42 37 45 58 52 47 40 26 17 23 40 42 29 31 24 24 29 36 33 29 24 27 49 52 49 56 46 67 90 97 97 97 96 97 96 94 94 96 96 94 88 74 78 94 98
38 38 55 64 51 40 46 60 58 54 52 31 24 15 25 46 42 37 29 32 37 44 35 29 33 45 54 45 39 42 44 67 96 98 98 97 97 97 96 97 96 96 96 96 95 95 100 99 97
40 39 54 76 59 33 42 47 69 67 66 38 23 14 19 35 48 37 30 31 49 48 48 40 34 49 42 35 32 32 45 68 94 97 97 94 95 96 96 96 96 97 96 95 96 98 97 98 96
48 65 65 66 61 35 37 45 60 70 69 47 29 15 21 24 46 38 30 32 57 67 58 52 46 35 33 32 30 36 39 64 84 96 96 98 97 96 95 96 97 97 84 86 97 97 98 96 95
76 75 60 67 77 55 43 33 43 61 65 63 30 16 19 26 48 39 32 35 56 58 51 27 33 35 39 46 41 45 40 44 76 95 96 96 97 96 97 97 97 96 92 96 96 97 98 94 86
70 69 62 65 64 73 47 35 42 48 68 60 23 17 20 27 43 39 31 27 42 51 31 19 24 64 61 78 72 68 71 98 97 97 96 96 96 96 97 97 96 97 92 94 99 96 93 90 93
65 74 72 65 70 73 47 38 42 47 56 47 36 20 25 31 42 38 38 23 28 33 34 24 12 31 68 92 88 89 82 83 90 95 96 96 95 96 94 94 96 97 96 96 97 95 94 94 96
66 84 66 67 70 62 57 45 44 55 61 56 36 19 22 27 38 37 40 27 13 15 22 21 12 10 10 39 56 66 68 56 76 96 90 98 99 94 97 95 92 94 94 98 98 94 94 90 93
70 82 70 73 71 57 54 51 48 60 63 57 37 22 21 24 27 36 31 42 26 19 11 10 10 10 14 7 12 19 36 61 55 66 84 93 99 94 94 92 99 92 91 96 96 97 96 86 86
90 83 77 71 71 59 54 59 52 57 63 57 36 20 18 25 21 36 41 31 29 26 23 24 21 17 16 14 8 8 16 19 48 69 67 89 80 87 93 88 94 95 94 98 96 97 89 83 80
84 89 84 74 64 59 57 62 64 58 66 68 48 22 16 20 22 34 45 56 51 31 22 26 33 25 22 22 22 17 10 10 16 29 35 35 43 50 56 56 61 62 63 73 92 92 99 83 72
100 99 86 85 84 81 64 68 71 58 73 66 61 27 17 17 33 39 37 43 43 31 18 36 32 33 33 31 30 30 26 19 19 18 19 21 24 27 29 38 38 45 49 62 65 87 97 83 72
97 90 96 93 77 73 83 64 75 64 77 62 66 43 19 23 26 32 31 45 38 23 18 27 36 35 33 32 33 33 37 30 28 24 23 23 25 27 28 31 32 37 39 51 63 57 62 59 52
90 98 95 83 79 92 92 83 84 64 68 70 69 54 23 29 38 34 38 38 29 23 19 18 20 23 29 31 36 52 54 49 46 46 39 30 28 30 34 44 51 58 64 65 59 62 65 62 67
100 96 94 90 85 91 90 100 67 78 80 79 71 47 29 38 44 37 45 40 40 29 22 22 24 26 27 29 42 60 74 75 76 83 82 91 91 81 53 44 47 59 70 77 78 81 87 90 91
95 94 92 91 98 86 89 94 96 76 74 87 80 57 32 49 44 44 58 52 45 37 28 29 30 33 32 29 35 55 68 80 78 85 84 68 81 75 84 91 75 55 69 69 68 78 79 98 98

GFSSGP_500_rhum_081.txt.gz
RH
20 19 19 24 26 26 34 39 31 29 23 17 9 4 3 5 6 8 9 6 6 6 8 21 26 29 28 21 22 23 36 30 81 92 87 64 54 68 93 93 86 64 58 55 52 54 51 47 46
22 20 21 23 27 55 50 45 33 27 21 11 5 3 4 7 5 7 8 7 8 8 18 39 38 41 41 36 39 46 47 30 52 91 97 80 68 73 95 85 78 71 67 70 57 64 67 62 53
22 20 25 26 32 42 56 42 34 29 16 7 4 4 5 6 9 9 8 6 7 12 24 37 40 50 61 47 44 46 66 51 56 73 96 78 95 76 80 92 94 93 94 93 75 59 52 50 50
21 21 28 33 38 56 35 36 33 27 13 6 5 6 4 8 11 11 6 6 8 14 21 29 49 66 79 68 82 87 67 100 56 76 92 72 69 96 99 97 88 89 80 69 58 54 52 51 53
19 22 31 35 38 38 31 34 36 22 11 7 5 7 6 8 12 16 16 8 7 9 14 21 41 58 49 57 97 98 97 96 97 72 74 66 62 74 94 96 78 90 80 68 61 61 54 53 51
18 24 36 51 62 31 30 35 31 19 13 8 6 6 7 12 16 29 31 23 21 23 19 23 47 83 72 97 70 94 90 91 96 85 87 77 78 54 68 97 84 87 85 75 85 87 58 60 61
20 26 38 47 47 47 28 36 30 23 15 10 8 6 10 14 24 37 40 37 36 35 25 24 42 93 92 79 89 96 93 95 96 97 92 92 92 71 65 96 88 97 87 81 87 83 66 62 59
24 28 38 49 50 48 31 37 28 29 21 13 10 9 13 13 21 28 29 27 35 24 21 34 41 91 72 84 95 96 94 96 95 85 97 87 96 82 62 70 74 86 88 76 93 75 74 63 63
28 30 45 60 58 48 33 40 31 33 29 17 10 10 12 19 21 24 42 38 38 29 36 28 26 59 92 92 96 93 97 91 96 96 92 95 96 97 85 80 98 97 93 89 77 79 80 70 68
32 34 51 71 50 44 47 34 36 36 33 23 11 10 18 19 22 31 24 32 32 27 24 16 21 34 86 87 75 72 85 94 86 93 84 97 96 96 94 92 96 97 96 93 73 80 81 72 70
37 37 53 53 54 42 43 32 33 39 40 32 17 13 11 29 28 31 27 25 30 21 23 25 23 20 25 92 86 78 83 93 86 73 73 94 96 96 98 91 97 96 89 88 72 79 84 74 70
38 40 55 56 54 45 44 34 36 43 44 37 18 12 15 23 32 32 25 24 35 29 28 27 22 16 21 26 86 98 98 77 64 73 80 95 96 97 96 88 96 96 99 89 78 85 88 84 73
41 46 56 55 57 47 41 37 33 52 45 39 26 16 15 19 29 27 20 25 32 35 29 28 34 37 22 29 30 46 54 46 46 60 65 89 93 96 96 95 96 97 96 95 80 91 88 84 71
49 47 56 53 60 41 36 38 39 45 47 41 34 23 15 14 26 22 24 26 26 28 26 26 31 30 29 20 25 34 36 35 39 49 92 93 94 95 96 97 95 97 97 98 86 94 89 77 72
53 41 53 50 63 57 37 38 44 43 50 50 43 35 22 13 19 20 26 31 25 26 31 35 32 27 25 24 30 45 46 45 39 62 97 94 84 96 92 96 94 96 95 98 97 92 87 78 82
56 51 42 54 61 76 53 43 50 41 47 51 57 41 22 11 19 18 25 29 24 29 37 44 37 29 29 35 42 42 42 40 41 55 94 96 92 96 98 96 96 97 95 96 98 95 93 84 97
63 51 41 57 55 70 57 50 88 39 44 48 58 44 24 11 17 17 25 26 25 31 44 45 44 36 28 26 35 32 32 34 38 66 79 80 95 97 96 97 96 97 96 94 96 95 96 96 95
66 64 61 71 99 51 47 51 75 50 34 60 56 45 28 12 13 19 29 31 26 30 47 50 51 46 36 32 29 28 30 33 44 81 96 98 97 97 96 95 96 96 96 96 96 95 97 96 97
96 100 100 100 100 60 52 43 43 45 43 55 62 53 32 12 11 18 29 34 25 31 41 49 31 34 31 32 27 27 31 39 54 85 96 97 96 96 96 96 96 96 95 96 97 98 98 97 97
97 94 88 88 95 63 67 48 42 39 38 46 53 48 35 17 11 20 28 36 23 30 42 28 16 36 52 51 44 37 37 46 48 80 96 97 97 98 98 95 95 96 94 97 98 97 97 97 97
88 87 80 92 100 84 74 54 47 43 40 48 45 44 38 21 11 14 28 34 28 23 34 27 16 16 47 62 72 80 76 83 90 85 96 97 96 96 96 96 96 95 96 96 94 95 96 92 91
92 91 89 91 83 95 88 61 53 54 52 55 51 49 41 20 12 14 27 29 30 15 18 24 16 11 9 16 56 66 69 74 79 86 96 96 96 95 96 95 95 97 92 92 97 96 96 96 95
94 98 98 93 72 92 86 67 50 58 60 69 52 45 40 18 11 12 25 36 33 30 20 11 10 11 15 11 7 11 25 36 60 62 92 96 96 96 96 90 85 95 95 96 94 91 94 95 97
99 95 99 92 86 89 79 75 65 59 72 79 61 47 42 20 12 12 27 36 27 24 28 21 22 22 15 15 13 7 6 9 19 66 63 80 85 82 90 80 86 97 96 98 98 97 96 97 98
97 97 98 97 84 78 85 69 64 64 70 79 69 46 45 30 15 13 29 37 32 29 24 21 18 28 22 19 22 21 14 7 8 36 72 71 82 90 87 84 94 88 96 99 100 98 98 100 99
98 93 94 100 100 89 96 69 75 70 86 76 67 54 53 41 17 14 26 39 34 27 26 17 19 27 28 28 25 23 23 20 17 13 21 34 32 34 36 50 52 58 66 65 68 76 78 84 91
92 84 96 94 94 99 93 97 93 97 81 90 71 59 59 53 20 16 18 31 29 28 26 19 16 26 29 28 28 28 27 26 24 22 18 17 18 18 20 26 35 39 44 55 76 73 74 75 85
98 100 97 93 94 93 91 100 99 93 77 93 79 64 59 59 25 19 24 23 27 28 24 22 16 16 17 20 23 23 35 42 42 38 35 28 23 23 22 25 26 27 30 36 46 52 63 79 99
99 98 95 98 99 99 99 99 97 99 82 96 95 71 59 58 40 20 26 26 30 30 28 27 20 18 18 21 21 21 33 52 63 67 65 71 72 67 57 45 28 25 30 35 42 56 60 63 75
100 99 99 97 99 97 98 97 100 96 90 91 99 76 64 52 33 25 27 30 35 43 38 34 27 22 24 24 32 34 26 32 33 34 46 62 62 55 62 60 62 64 66 44 38 50 56 61 69

GFSSGP_500_rhum_084.txt.gz
RH
18 19 22 20 18 23 41 54 47 36 35 27 26 17 11 5 4 4 8 5 6 6 7 6 6 15 26 26 24 25 19 16 14 23 49 90 83 57 62 86 82 86 94 68 65 55 53 53 51
18 19 22 20 21 28 57 55 51 50 34 30 24 14 6 5 3 3 6 9 8 5 6 8 14 27 32 35 41 44 33 35 30 23 32 86 89 67 55 68 76 86 82 77 68 59 56 55 50
18 18 21 19 24 31 62 66 50 35 33 30 20 7 5 4 4 4 9 12 9 5 6 12 18 25 25 41 52 55 46 49 77 59 76 72 97 86 67 58 62 88 88 89 78 59 57 56 66
18 18 20 19 26 40 69 60 31 34 28 25 16 8 6 5 4 6 11 15 17 12 7 11 19 24 31 41 52 70 73 55 76 72 96 100 95 90 85 84 80 89 89 80 91 64 76 83 73
17 18 18 19 29 53 49 41 40 37 38 27 13 9 8 4 5 9 11 27 28 26 19 16 19 21 29 48 84 99 91 96 95 96 94 79 90 82 98 96 94 92 96 87 95 93 70 62 55
18 18 17 22 50 68 67 37 37 32 39 26 16 12 9 5 6 10 13 24 26 25 29 25 31 21 25 51 94 99 99 92 90 96 96 92 89 73 92 89 97 95 98 91 88 75 67 66 57
20 19 18 23 35 65 71 33 36 34 36 27 23 16 10 5 10 9 14 18 20 25 28 23 24 23 48 61 96 85 84 90 96 95 95 96 81 84 67 75 96 99 95 90 81 71 88 92 67
21 20 18 24 36 76 72 42 42 38 41 29 28 20 12 6 6 8 17 19 24 32 27 23 33 35 32 63 84 81 70 94 95 97 96 97 92 95 75 64 72 87 96 94 97 90 87 93 77
22 21 19 26 44 82 81 50 38 37 37 35 28 25 12 7 9 7 18 22 18 32 20 25 19 16 35 46 86 84 80 95 93 98 97 94 66 85 97 82 67 80 95 94 95 86 91 82 76
24 22 22 32 63 79 64 55 30 52 38 31 28 25 16 10 8 8 14 21 19 23 24 18 14 18 18 34 66 81 87 96 95 95 95 96 96 96 97 97 76 67 74 91 94 84 95 82 77
25 24 28 36 48 36 57 52 38 40 44 32 40 40 24 14 11 7 7 14 19 18 29 25 20 21 15 17 34 76 73 83 97 89 95 96 97 97 97 97 95 68 94 99 93 88 96 75 75
29 26 31 38 45 42 49 50 36 49 47 35 46 43 29 17 15 7 7 12 11 16 17 28 24 25 29 20 22 37 76 87 92 96 93 90 93 96 97 98 95 83 84 98 97 93 94 71 68
31 28 33 42 49 46 47 48 43 44 48 45 47 40 40 26 21 8 11 11 13 15 18 29 23 24 26 28 21 27 37 84 93 98 86 85 88 94 97 92 97 88 97 96 97 99 88 72 63
40 37 33 44 48 51 49 38 41 44 51 51 43 39 47 36 26 8 10 12 14 19 23 24 21 24 23 24 24 20 27 29 44 58 62 65 68 87 95 97 98 77 97 97 96 98 95 77 68
45 37 36 42 50 56 58 32 38 45 45 46 40 37 42 43 27 9 7 12 17 18 20 17 22 29 23 24 25 22 20 29 35 32 30 35 53 75 94 98 95 96 96 97 97 100 88 82 74
48 50 40 48 57 57 60 29 44 60 36 50 40 35 38 47 28 10 8 11 19 20 18 17 18 24 30 26 24 28 31 40 39 43 32 32 63 84 86 97 98 97 97 94 97 96 96 92 83
55 52 51 58 65 65 57 38 58 67 37 47 37 30 42 49 34 13 9 13 14 20 20 20 20 26 33 34 27 24 25 32 36 38 42 48 66 97 92 95 95 96 89 95 96 96 97 97 94
74 72 75 65 70 84 69 50 54 81 42 36 36 44 41 39 40 16 10 14 18 21 19 21 26 40 43 39 29 25 24 26 30 35 36 54 95 95 98 97 97 95 89 96 95 96 96 93 96
98 91 93 89 82 98 81 45 50 70 65 44 31 35 49 40 39 17 10 16 21 20 19 24 32 36 32 32 30 26 21 23 30 41 42 61 90 95 96 97 97 97 95 90 95 95 96 96 96
97 94 91 94 89 96 95 52 53 50 47 50 54 56 41 34 35 22 11 18 21 21 20 27 30 22 22 40 38 45 31 30 32 38 81 89 96 98 98 96 96 95 96 97 92 98 96 97 99
92 94 96 97 86 99 95 58 51 46 52 56 50 51 42 48 41 25 13 21 21 23 18 22 28 20 18 19 41 70 66 68 68 66 99 93 95 94 92 89 97 96 96 96 92 87 86 94 95
91 96 98 97 97 94 99 57 56 50 60 78 52 59 43 48 45 21 13 21 21 28 23 15 16 19 17 14 10 23 42 54 64 76 94 95 94 96 96 96 96 96 91 78 83 93 95 96 96
94 100 96 95 96 94 89 84 43 53 56 89 67 56 45 41 43 20 12 21 21 22 24 18 17 17 17 11 12 8 7 13 44 50 67 95 96 90 89 95 90 87 86 89 89 90 93 94 98
98 98 90 97 96 78 74 72 52 48 58 92 98 83 56 41 36 23 13 19 21 18 17 16 17 16 19 20 16 16 10 6 12 30 44 62 80 82 91 91 84 72 78 86 90 91 98 97 97
93 97 96 97 92 70 79 72 53 52 60 91 96 73 70 52 40 38 15 17 19 22 23 18 15 15 18 22 21 22 22 16 10 12 42 57 66 86 71 80 74 79 85 86 88 90 94 100 92
99 97 94 95 98 89 93 71 60 52 56 67 74 76 76 54 38 46 19 17 19 23 24 20 17 14 17 21 24 23 25 25 22 17 16 59 70 72 72 72 66 67 72 79 90 100 97 98 98
96 82 98 98 93 95 85 84 100 72 65 66 76 75 81 60 39 44 37 16 18 19 23 23 20 15 16 21 24 25 24 25 29 32 27 20 20 21 22 25 29 39 54 66 69 74 71 97 96
98 99 96 86 93 99 99 99 97 91 89 82 71 77 84 75 57 41 35 18 18 20 23 24 22 17 15 16 16 16 18 30 40 37 43 44 36 31 25 22 22 23 28 32 35 42 53 67 83
96 96 97 96 94 97 96 98 92 99 96 97 98 78 89 84 60 52 46 23 20 23 24 28 27 22 16 16 20 23 22 22 29 51 52 51 57 64 65 57 47 45 29 28 29 33 40 46 54
99 99 99 96 98 97 97 97 92 95 98 93 87 75 76 77 65 56 49 36 21 24 29 30 32 31 22 19 20 22 32 37 30 27 25 25 25 49 57 51 57 55 55 55 58 62 46 56 74

GFSSGP_500_rhum_087.txt.gz
RH
20 20 20 18 19 19 27 30 44 49 40 34 38 44 30 23 15 8 5 5 7 8 8 7 5 5 6 10 16 24 25 26 25 19 13 8 14 23 34 37 56 90 96 89 90 76 72 48 45
22 20 20 18 20 19 27 21 65 60 47 36 48 34 30 17 6 6 6 8 9 10 10 5 5 8 15 17 28 29 31 40 41 33 25 25 22 78 99 85 62 95 97 97 97 78 68 52 51
24 23 20 19 19 21 27 27 34 35 40 48 34 31 28 11 7 5 4 7 9 8 12 9 5 8 12 20 23 28 34 45 55 50 43 28 29 48 94 90 71 86 90 90 94 75 70 61 56
25 22 20 18 18 22 46 40 39 42 51 32 35 30 18 10 9 5 4 6 9 19 23 23 14 10 15 26 27 30 56 63 72 89 85 57 42 64 67 99 89 77 84 90 88 63 81 64 60
28 25 21 19 18 22 46 58 43 51 51 32 22 24 17 14 11 6 4 8 12 19 21 21 20 24 23 22 19 32 44 60 85 93 95 96 77 81 70 97 93 89 100 93 90 89 79 63 61
29 26 23 20 18 18 17 61 50 55 45 38 28 25 20 16 12 6 6 9 9 14 17 18 17 23 28 32 26 45 74 94 81 95 94 96 96 96 95 85 94 87 98 97 96 91 73 74 93
32 28 25 22 19 20 27 52 46 33 35 32 28 23 17 17 14 8 5 6 8 11 19 23 19 23 32 33 39 63 97 97 94 90 98 95 96 96 90 82 92 95 98 97 97 93 89 93 70
33 29 27 23 19 26 55 46 67 27 35 28 36 34 22 23 18 9 6 6 6 10 14 23 20 30 17 19 43 79 88 89 90 89 90 86 96 94 94 77 92 82 93 98 98 94 90 89 69
34 29 28 23 20 32 48 61 54 26 33 34 38 30 27 31 22 13 9 8 9 10 12 23 20 22 19 26 23 61 81 83 84 91 83 96 96 97 95 78 86 93 94 97 97 93 88 83 86
34 30 30 22 23 35 52 78 53 32 37 28 35 27 22 20 26 20 14 9 8 12 12 16 26 22 22 25 22 35 76 80 100 95 96 89 96 97 97 96 96 74 68 84 92 83 96 93 91
36 30 31 26 25 24 28 46 55 44 37 37 36 33 25 24 23 28 22 11 6 8 8 14 18 27 26 30 25 20 47 67 91 96 96 96 97 98 90 95 97 87 66 71 84 96 95 88 92
33 36 35 31 28 28 28 35 49 42 37 43 32 33 28 33 22 29 26 15 7 10 9 10 15 27 28 34 37 26 29 49 73 86 99 96 96 97 94 95 96 92 84 81 72 79 86 92 93
36 40 38 34 30 30 32 34 45 49 52 51 48 38 46 46 29 29 26 16 6 11 11 16 19 26 22 25 34 36 24 28 57 86 90 94 94 96 97 95 97 94 83 74 66 88 99 96 97
44 42 40 36 33 34 38 36 40 50 58 54 46 47 46 46 29 27 31 14 6 12 13 20 20 20 20 25 26 31 26 25 31 46 84 94 95 91 86 91 97 97 88 91 74 80 88 99 97
40 49 44 38 36 31 40 34 40 52 58 49 45 46 50 33 25 21 32 15 5 15 16 18 18 16 17 22 24 25 25 20 20 27 32 60 68 60 76 79 95 90 78 88 85 82 84 96 95
36 49 48 42 39 37 46 34 46 56 64 53 45 47 43 28 19 24 33 20 5 11 16 18 17 19 19 25 28 28 25 31 32 32 38 36 37 34 36 53 72 93 89 85 88 83 96 99 95
79 79 64 48 46 44 61 50 54 61 65 53 48 46 32 24 30 33 33 22 7 11 20 19 17 21 27 28 32 30 31 26 25 27 33 43 46 42 31 34 64 74 87 93 95 90 91 98 98
55 81 79 70 58 61 70 66 58 64 73 49 50 43 35 22 31 39 36 18 7 12 16 15 16 25 36 31 30 27 25 24 23 26 25 32 39 43 37 67 80 72 86 96 89 96 98 94 96
100 97 81 76 69 98 91 79 64 64 81 43 45 42 29 23 23 22 34 17 9 10 14 15 19 28 26 20 30 32 24 21 21 23 26 30 34 43 65 71 97 94 89 95 95 97 96 97 96
77 96 89 59 76 96 91 90 70 88 81 54 46 48 31 22 19 15 35 18 10 14 19 16 18 25 21 12 23 43 31 28 25 29 37 51 49 65 97 91 92 98 96 97 96 96 97 98 97
73 81 98 93 99 96 87 75 59 64 49 59 72 62 47 38 31 16 29 16 11 16 19 16 16 20 19 15 13 28 50 57 43 38 40 72 94 84 84 95 89 98 94 92 91 99 95 89 86
71 99 99 98 89 89 99 74 81 61 57 67 81 67 47 51 44 26 32 19 12 18 21 19 17 14 14 16 13 9 10 17 30 34 49 64 95 90 91 96 96 96 97 99 100 96 96 95 95
79 100 97 86 83 95 96 82 52 58 44 54 64 51 61 58 57 36 36 20 12 18 19 20 18 16 15 19 19 14 8 7 8 17 39 59 95 97 96 97 97 96 97 96 96 97 96 95 92
100 97 98 99 98 80 78 88 58 48 43 60 83 79 54 60 50 44 39 20 13 19 18 15 15 15 13 19 20 19 20 15 7 7 18 58 81 96 89 94 95 95 84 92 92 92 91 90 87
100 98 98 99 94 62 77 96 60 58 55 71 83 68 86 58 52 44 39 33 15 16 20 17 18 15 13 19 24 23 22 22 20 11 7 45 66 94 96 95 99 95 87 80 84 80 84 77 86
100 99 92 88 76 61 84 80 58 76 66 71 88 95 81 62 54 54 43 37 19 15 22 23 20 18 14 17 24 24 27 25 24 20 14 33 65 73 96 87 85 83 90 90 89 95 100 100 100
99 92 100 97 90 76 82 80 93 88 93 79 79 95 73 71 67 72 52 40 32 20 18 20 21 20 15 16 20 25 25 23 32 30 25 20 17 27 30 32 33 36 50 63 67 79 91 94 93
98 100 98 94 93 90 88 94 99 98 99 93 86 88 88 88 83 73 66 47 39 22 17 17 23 21 18 16 16 17 18 24 34 46 53 44 38 30 23 20 19 20 24 29 35 45 53 60 70
100 100 98 97 97 94 100 93 97 84 94 98 96 96 90 94 94 94 82 51 39 22 18 20 24 23 22 16 16 18 22 24 25 28 50 55 46 53 61 60 56 54 37 31 25 26 27 30 39
100 98 98 97 97 97 97 99 98 96 92 98 100 99 83 82 91 95 82 64 48 30 22 23 26 26 28 23 18 17 22 30 37 35 31 33 30 24 33 66 57 59 63 56 51 48 40 48 42

GFSSGP_500_rhum_090.txt.gz
RH
19 20 22 22 18 16 17 16 13 23 26 30 34 46 49 42 33 26 12 6 6 7 9 9 8 7 5 6 6 6 9 15 19 20 20 19 15 7 8 7 13 30 49 90 92 84 81 74 62
20 22 22 22 19 18 16 15 12 13 26 38 43 46 34 28 24 16 8 6 4 5 7 9 9 11 6 6 12 17 21 30 29 29 31 32 28 22 9 8 16 29 43 86 95 87 87 81 67
23 24 22 22 21 18 17 14 12 11 30 44 38 34 24 22 24 14 9 5 5 5 7 10 16 18 14 6 8 16 22 24 28 31 33 34 38 34 25 16 39 50 52 73 96 89 89 81 63
25 24 22 24 22 19 19 17 15 14 27 35 25 25 24 24 17 16 12 7 4 4 7 14 22 22 24 18 12 13 24 24 25 39 67 83 80 70 37 26 71 97 78 82 99 97 94 84 62
24 24 24 28 23 20 19 18 21 15 16 36 36 19 19 22 19 19 14 7 5 5 7 13 15 18 25 24 24 22 27 20 25 32 56 74 95 96 92 41 64 88 81 78 95 96 83 84 59
26 23 23 28 26 22 20 19 22 20 12 26 41 29 19 24 24 23 16 10 6 4 5 8 10 14 21 22 21 23 24 40 72 94 97 96 98 94 96 83 62 80 88 75 71 81 86 82 69
29 21 23 30 29 24 19 22 23 22 21 32 34 32 24 24 24 24 20 13 9 7 7 7 12 14 17 27 20 22 34 62 90 95 96 96 96 97 96 96 96 83 94 82 78 86 85 81 87
26 14 17 29 30 21 22 21 22 42 33 19 37 29 26 23 29 26 28 19 12 13 9 8 13 19 21 19 15 18 31 79 94 91 96 93 82 93 96 97 93 76 97 76 76 87 94 86 86
21 11 14 30 31 21 23 22 25 29 29 23 30 31 26 29 35 34 35 24 20 19 9 6 8 14 27 20 18 22 20 72 97 94 93 84 94 92 96 97 95 74 80 97 88 87 97 86 82
10 9 14 32 32 27 24 24 24 24 26 20 33 43 30 32 28 27 39 29 26 25 9 6 8 14 24 28 23 24 19 42 87 96 96 96 92 82 96 97 98 81 87 90 87 89 93 98 99
9 5 20 32 34 32 28 26 24 24 23 23 26 37 26 29 27 24 37 36 31 27 8 7 10 11 16 27 24 28 27 23 74 90 97 97 90 90 97 97 96 78 94 89 90 94 87 96 95
5 7 12 29 34 32 30 26 27 26 28 28 32 43 29 31 26 26 34 41 36 25 7 7 13 15 18 31 27 27 27 22 38 79 92 98 96 95 96 97 97 93 92 86 77 76 86 65 86
4 7 7 15 38 38 34 32 29 28 32 38 43 45 34 27 28 30 35 38 36 23 6 8 14 22 20 23 27 26 28 26 26 84 87 97 97 97 96 97 95 94 90 90 97 64 67 60 83
6 5 6 7 23 41 37 35 34 34 38 39 51 57 46 33 31 29 30 26 35 21 7 7 18 18 19 21 28 29 23 26 27 37 77 89 96 96 96 95 97 92 96 86 94 80 91 77 71
6 5 4 4 10 36 43 36 34 32 34 49 52 67 55 44 35 29 30 26 36 20 7 7 18 19 18 22 32 35 27 24 25 24 32 49 85 94 96 95 100 96 95 91 82 82 75 62 69
4 4 2 4 16 39 51 31 38 36 38 48 63 67 61 46 46 31 20 40 36 19 8 10 22 19 17 23 36 35 34 31 27 26 23 26 38 67 64 90 68 81 94 91 80 82 77 69 74
4 3 2 4 41 64 58 41 41 47 54 53 63 60 55 51 41 22 23 44 36 14 9 14 22 18 24 30 30 30 31 32 31 29 32 40 48 42 41 40 45 50 58 93 88 91 88 84 84
7 6 4 4 34 85 80 73 51 51 62 57 64 57 60 56 32 20 43 42 31 12 9 21 21 22 29 27 25 28 26 26 27 28 24 26 33 42 37 43 38 32 37 45 56 88 98 95 87
5 4 3 11 36 51 100 87 50 49 56 56 58 50 60 47 32 20 35 33 29 12 10 20 20 21 23 22 18 26 31 28 22 23 24 24 28 28 39 34 42 66 51 82 79 85 98 94 86
5 6 10 24 41 76 77 56 42 50 57 61 56 50 48 42 30 27 28 37 28 13 13 21 18 18 19 19 17 17 34 39 26 24 22 22 23 24 30 36 40 78 99 100 84 81 100 96 97
10 16 21 29 46 96 66 63 71 56 61 60 48 35 52 50 38 19 26 39 25 13 14 22 18 16 15 14 14 12 15 34 48 49 37 42 41 58 70 56 59 100 97 95 100 95 96 97 97
13 23 28 48 52 63 96 43 70 64 65 49 43 44 52 54 41 29 33 41 29 15 15 24 21 17 15 17 19 16 10 10 24 30 49 70 82 90 93 85 98 96 98 99 100 98 96 96 96
21 30 42 39 46 65 78 82 57 83 66 48 39 38 51 54 50 41 46 42 31 16 16 20 22 18 14 14 18 19 18 12 7 15 26 54 86 97 97 97 96 98 98 97 98 96 96 96 97
26 29 54 74 76 56 58 88 50 86 73 63 51 44 51 53 48 48 51 47 37 17 16 23 21 19 14 14 18 21 20 19 18 8 8 25 57 94 93 92 97 96 97 96 97 96 96 96 96
32 55 80 99 87 37 54 81 53 75 94 87 92 81 66 53 56 48 56 58 43 33 18 23 19 19 16 16 18 22 22 20 19 19 12 13 46 88 90 96 96 96 97 97 97 96 97 96 97
46 77 90 98 74 58 68 52 60 78 98 95 96 94 63 52 52 48 65 60 48 26 18 21 25 23 21 16 18 20 23 24 19 17 20 14 43 66 90 96 95 86 91 92 90 84 84 97 96
79 90 100 97 76 70 68 69 82 97 83 84 97 93 73 68 57 56 71 68 57 48 31 18 26 27 28 18 19 19 22 19 25 23 21 20 14 30 60 61 55 50 51 61 88 91 93 93 89
78 100 99 100 98 84 76 88 99 85 97 98 91 90 80 72 58 50 61 77 65 53 42 24 22 31 26 20 18 18 17 17 24 28 36 34 32 27 22 20 21 22 21 22 25 39 49 53 66
86 96 98 97 100 100 100 95 98 84 97 84 88 98 99 91 76 66 60 87 82 67 47 26 27 30 28 23 17 17 17 21 23 23 22 40 51 48 46 49 54 51 47 28 27 26 27 29 35
84 97 100 100 93 100 98 93 97 97 98 93 89 71 83 75 63 55 64 88 90 72 49 27 29 30 27 24 21 17 17 21 27 31 34 30 29 28 26 44 60 54 50 52 55 51 52 34 28

GFSSGP_500_rhum_093.txt.gz
RH
17 16 18 18 17 17 18 14 11 12 12 21 24 29 45 43 47 42 31 23 11 8 6 4 5 6 7 6 8 6 6 7 8 8 10 12 15 15 14 15 12 8 15 31 69 99 94 89 77
20 19 20 20 19 18 18 15 16 14 16 24 24 26 45 32 32 27 22 16 11 8 5 3 4 7 8 12 16 12 7 14 19 22 26 27 27 27 27 24 20 10 9 19 64 86 91 87 76
21 22 22 23 21 21 17 16 16 15 15 16 25 28 28 18 23 29 23 17 14 12 6 4 5 6 8 12 17 21 11 8 14 28 28 24 26 28 31 31 30 23 10 18 35 76 97 87 89
21 19 18 22 26 24 20 16 17 18 17 17 23 19 22 19 23 29 26 21 18 12 6 5 6 8 11 15 17 19 19 16 12 21 22 26 34 42 47 59 56 40 24 14 29 68 100 90 88
19 18 15 21 27 28 25 21 21 21 19 17 19 18 23 18 23 26 30 23 21 14 8 6 6 8 13 16 20 19 18 21 23 53 52 21 32 39 45 75 97 83 53 70 44 54 92 95 91
17 15 11 23 27 27 26 25 23 22 20 17 17 16 22 23 20 31 30 26 25 18 14 9 10 9 10 12 19 19 23 22 25 39 47 50 90 96 80 90 92 95 58 60 82 61 87 97 96
14 13 12 17 26 26 29 24 24 22 20 21 18 16 24 34 18 31 32 29 25 24 18 18 18 8 10 18 24 22 15 17 24 51 79 88 98 97 96 98 96 96 89 61 85 81 100 97 84
11 8 6 12 22 26 27 24 23 23 23 23 20 18 21 26 21 29 29 27 28 30 23 22 22 6 7 15 25 21 21 49 42 51 95 97 97 98 96 95 95 96 96 63 87 88 90 97 78
10 5 4 12 21 31 26 24 21 21 24 24 24 21 21 27 23 32 37 30 31 32 26 25 22 6 6 9 22 27 33 28 24 34 86 93 96 94 86 93 93 97 95 94 85 93 96 97 66
8 4 4 11 21 30 25 24 26 21 22 24 25 24 22 28 32 32 47 34 32 32 25 25 21 5 8 10 18 24 24 24 28 27 84 87 90 86 88 92 91 97 96 97 98 83 96 97 93
9 4 5 9 20 24 29 23 23 21 22 27 27 25 23 36 40 32 38 34 38 29 23 27 19 6 9 11 13 20 23 26 32 27 62 96 97 96 97 87 84 95 96 95 80 76 86 100 99
11 9 5 7 16 19 28 32 16 18 24 26 26 27 26 31 36 37 36 34 39 27 24 28 15 6 9 13 16 27 23 24 32 32 45 95 95 97 96 93 96 95 96 88 77 76 80 92 97
14 11 7 5 11 15 20 19 22 15 24 28 27 27 27 29 38 44 36 42 43 34 28 28 14 6 9 14 19 21 22 25 28 36 45 89 97 95 92 90 96 97 98 86 74 89 90 89 97
15 11 8 5 6 12 9 8 15 20 21 25 30 27 27 29 40 48 40 49 40 46 36 28 14 8 12 20 18 17 19 24 27 28 31 81 94 97 96 96 96 96 97 87 85 92 98 86 91
14 13 7 5 5 8 23 4 8 24 31 33 33 33 32 37 42 53 46 44 36 53 40 28 13 11 13 21 17 18 17 20 29 26 27 30 62 96 97 97 97 97 97 96 90 81 80 79 84
12 10 8 6 8 13 26 8 20 30 34 36 37 37 37 46 46 56 54 49 38 51 39 26 10 13 16 20 19 24 24 21 27 33 27 24 22 35 92 95 96 95 96 91 93 74 77 87 88
8 9 6 6 21 28 19 6 12 36 32 29 38 40 42 68 50 59 65 47 35 42 37 22 9 15 17 24 26 26 23 27 24 30 35 29 27 32 46 86 92 95 94 86 88 79 79 91 94
8 6 7 7 14 25 10 3 4 19 28 44 43 44 40 46 51 57 64 47 33 37 38 20 10 15 20 28 25 19 18 32 28 27 32 32 32 39 43 43 48 53 60 54 66 78 80 91 96
7 6 6 6 7 9 8 4 4 6 12 48 52 47 42 41 58 62 57 38 47 41 34 18 11 16 21 26 20 18 16 34 30 26 26 29 28 30 45 50 48 98 96 44 50 54 59 78 74
8 7 6 6 10 8 9 4 4 7 11 29 62 51 45 55 57 61 52 36 48 46 33 14 11 17 17 20 18 15 15 22 33 27 22 22 25 45 33 38 97 47 41 44 77 76 56 58 86
11 8 8 9 11 9 6 3 4 16 20 62 67 63 49 60 55 65 47 41 51 44 24 12 13 18 17 16 14 16 15 13 21 36 28 24 26 31 38 88 53 73 49 95 96 98 94 88 98
12 18 13 9 10 6 17 5 4 19 27 51 65 68 61 64 61 61 46 44 56 40 27 14 14 20 20 15 12 13 17 16 9 12 32 42 42 40 44 72 70 97 48 56 84 100 96 94 100
18 19 16 12 8 6 10 23 4 16 31 47 60 79 72 80 68 48 44 64 55 38 30 15 13 22 21 14 12 12 18 18 17 10 7 9 29 38 63 87 87 70 84 98 94 98 97 94 96
23 20 20 16 12 7 12 37 10 18 45 57 67 78 94 97 70 42 48 57 49 45 33 17 14 19 21 16 14 12 15 20 19 19 16 7 7 35 72 93 89 81 97 98 97 97 100 96 97
26 23 20 12 15 17 27 38 27 24 50 53 66 87 98 98 80 54 54 56 52 50 33 20 15 19 19 17 16 15 14 20 21 19 19 18 13 34 84 93 88 94 99 97 96 97 97 97 96
21 19 17 18 24 35 54 33 31 50 67 58 65 71 94 92 80 63 61 72 54 60 52 35 19 20 20 21 18 16 16 17 20 21 18 21 16 51 95 98 96 92 89 94 95 98 96 94 91
25 21 30 41 80 70 60 57 67 60 49 69 77 89 75 80 68 71 75 75 71 63 45 30 21 21 22 25 25 19 18 16 15 16 20 18 19 14 40 51 54 63 64 60 64 75 81 85 87
22 27 45 83 100 99 70 74 62 58 51 66 74 88 71 77 81 77 86 84 78 89 78 56 51 28 23 28 30 21 17 17 16 17 18 21 19 24 20 18 19 18 17 17 18 26 42 49 60
34 43 58 98 100 97 96 86 92 75 75 64 74 86 76 72 74 75 96 86 87 86 74 58 55 43 23 28 30 24 18 17 17 21 22 19 17 21 27 41 46 39 35 36 23 20 19 20 29
56 61 74 100 100 96 98 92 96 76 64 72 62 74 79 80 85 84 92 100 89 94 90 78 71 46 26 28 28 28 21 18 19 20 26 28 26 22 26 33 37 44 50 52 53 43 42 37 32

GFSSGP_500_rhum_096.txt.gz
RH
18 18 19 17 13 15 17 17 15 14 12 13 14 18 17 19 21 26 29 28 25 16 12 11 10 5 3 3 4 4 7 11 10 7 11 12 10 10 13 13 11 13 12 8 9 35 73 93 94
20 23 21 20 16 16 17 15 16 15 14 15 17 16 17 23 17 23 29 29 20 17 16 14 9 5 4 5 5 5 8 12 13 10 10 15 16 23 24 26 25 23 17 9 9 26 61 99 95
21 23 22 20 20 19 16 19 19 17 16 18 18 18 16 20 18 18 19 26 22 22 20 16 8 6 6 6 6 6 9 12 13 13 10 9 19 25 23 22 25 29 30 23 12 15 45 98 88
22 22 21 17 20 20 17 17 15 21 19 20 19 17 18 20 20 16 17 24 27 26 24 15 12 9 9 11 9 6 8 13 13 15 15 12 24 18 23 28 32 36 47 44 31 24 34 97 89
21 21 17 19 24 22 19 14 11 16 20 23 20 18 18 20 18 15 14 22 26 28 26 21 15 14 17 14 7 6 8 14 17 61 55 25 96 93 80 44 50 48 75 91 61 28 32 59 95
20 20 14 18 25 22 21 14 10 10 14 22 17 19 19 20 20 17 18 22 24 24 27 24 21 21 20 10 5 6 12 15 16 24 28 30 37 62 96 91 95 96 96 98 94 79 32 60 100
21 20 13 13 18 18 18 13 10 9 13 14 15 18 20 21 26 19 20 26 26 26 24 28 25 24 22 8 5 8 13 20 16 17 43 44 48 72 90 94 97 96 96 96 95 81 55 60 98
19 14 9 7 16 18 18 13 8 9 11 10 12 16 19 22 25 22 21 21 24 24 23 27 27 24 21 7 6 7 19 25 37 56 39 33 75 96 95 97 96 98 96 96 96 75 81 81 81
18 10 6 8 16 25 28 16 8 8 8 9 10 18 23 23 24 26 27 21 23 26 25 26 28 24 18 7 7 9 20 29 30 34 32 35 55 97 98 98 96 88 88 94 96 69 78 85 94
15 10 8 13 17 22 19 10 9 8 7 8 8 15 22 24 25 28 26 26 25 33 32 26 26 23 18 8 6 8 14 19 24 26 26 32 31 90 96 96 85 91 87 87 97 67 80 85 86
15 11 12 13 18 13 10 9 8 6 7 12 13 17 21 25 25 29 28 33 27 36 35 27 23 21 18 10 6 9 11 13 21 25 26 27 31 79 99 98 89 87 97 97 97 90 93 96 98
14 14 13 13 14 11 9 10 6 5 8 11 12 14 20 24 27 30 32 34 29 32 36 29 23 24 20 11 6 11 15 21 22 22 25 27 36 77 97 97 94 84 94 97 96 94 98 87 84
15 15 16 16 13 11 9 7 6 5 7 9 11 14 20 24 29 31 33 40 39 28 38 29 23 27 21 11 8 11 15 18 21 24 24 26 38 80 97 96 89 80 94 97 97 96 94 97 82
25 23 22 21 17 13 10 8 7 12 15 10 13 17 23 27 30 32 34 42 44 34 36 29 25 29 19 10 7 11 16 17 17 24 24 26 33 57 97 97 97 91 98 96 97 97 89 85 87
38 35 31 27 22 15 12 12 8 10 26 21 15 18 25 27 28 35 38 46 48 40 39 29 32 30 17 8 10 12 16 17 17 22 26 26 28 38 96 99 96 96 96 96 97 96 81 76 78
34 30 28 24 20 15 16 17 21 15 15 20 18 21 24 29 30 37 42 44 52 40 41 28 40 30 14 8 10 11 23 24 22 23 26 29 27 30 51 96 97 97 97 97 97 95 88 91 95
35 32 28 22 19 16 15 15 13 17 17 19 23 30 30 32 33 39 43 41 54 41 45 31 40 28 13 8 11 16 26 22 24 25 27 29 29 27 30 81 97 97 97 97 97 96 96 97 95
26 22 21 19 17 14 12 14 9 8 16 14 15 21 29 35 39 41 42 42 59 46 43 32 33 32 12 9 13 20 20 18 21 27 31 32 32 29 30 35 73 97 97 96 96 96 97 96 95
23 21 21 15 10 9 8 13 7 5 6 5 6 8 18 28 44 46 46 46 63 53 47 31 31 36 11 11 16 19 18 16 18 31 36 30 26 29 32 41 37 81 90 91 72 66 78 95 96
19 14 12 10 11 10 9 8 5 5 6 6 5 7 9 16 36 51 48 52 68 71 55 32 35 29 11 15 16 16 15 15 14 20 36 32 26 24 33 36 45 77 92 68 94 82 42 70 96
16 13 12 10 11 9 7 7 6 7 6 6 5 8 10 19 45 51 58 65 73 80 55 35 32 20 12 17 17 14 14 15 15 10 18 37 28 26 25 42 43 96 78 93 96 96 42 70 65
15 15 13 12 11 9 10 9 9 11 9 5 9 18 18 42 57 52 70 70 79 76 59 39 30 18 14 17 17 12 13 12 17 15 9 14 33 39 35 34 55 56 71 97 76 52 73 98 91
18 21 17 15 14 12 11 13 9 9 7 12 16 16 28 58 60 54 71 91 98 84 68 44 31 18 15 17 17 12 12 13 16 18 18 11 6 14 40 47 48 70 62 95 79 69 81 97 97
25 25 23 21 18 11 12 11 10 10 11 14 20 25 31 52 69 52 74 91 95 69 63 43 34 17 17 16 17 14 13 13 14 18 20 20 15 8 15 46 63 88 86 84 91 69 76 97 98
27 26 26 21 16 11 10 6 7 17 21 14 28 38 31 51 69 58 84 93 94 64 55 45 35 18 18 16 16 15 15 14 11 15 18 18 21 17 24 56 86 96 91 84 90 91 91 98 95
26 25 24 21 14 12 11 10 15 27 35 41 34 45 49 55 58 55 77 83 90 68 62 48 39 18 21 19 17 16 17 16 13 10 12 16 17 17 33 83 88 98 95 88 97 96 96 96 98
23 21 22 20 15 9 22 32 54 48 45 57 44 43 50 50 56 69 80 78 93 86 73 51 39 35 21 21 18 18 20 18 15 14 10 11 18 19 18 43 50 68 69 77 89 92 93 96 98
16 16 20 18 15 16 27 35 69 63 56 55 53 55 57 65 70 64 65 88 96 99 73 57 45 30 23 22 21 22 22 24 17 16 16 14 18 20 20 20 20 25 24 28 37 41 49 63 73
12 20 20 22 27 62 47 48 69 80 68 67 62 55 56 66 70 61 87 96 97 100 87 69 52 58 60 49 22 22 24 25 19 17 17 22 18 16 22 26 24 27 32 27 24 18 17 19 30
22 21 31 39 45 62 54 49 71 80 97 79 76 78 66 71 76 91 97 95 97 100 91 77 65 63 63 55 34 22 24 27 24 18 16 18 23 21 20 18 25 30 28 30 40 50 50 39 37

GFSSGP_500_rhum_099.txt.gz
RH
10 13 14 15 13 15 16 16 14 14 14 13 13 14 13 13 12 14 10 8 7 10 12 11 13 13 9 7 7 6 4 4 4 8 9 8 10 14 11 10 8 9 7 6 5 8 15 42 71
10 14 17 16 13 16 18 17 16 16 16 14 15 17 15 14 14 13 13 12 9 10 13 13 14 13 11 9 8 9 8 4 4 10 11 11 8 11 16 19 23 20 17 22 18 11 18 45 76
12 16 18 15 16 19 17 17 16 16 19 15 17 20 17 17 15 15 15 16 11 9 13 13 14 14 13 12 12 11 8 3 3 7 11 13 13 10 11 31 30 44 41 32 28 16 18 61 100
15 18 19 15 20 22 20 16 12 12 15 15 18 20 19 18 18 18 17 16 12 10 13 16 16 16 15 13 12 11 4 2 8 10 10 14 27 21 30 35 50 40 36 38 47 35 19 40 90
17 20 19 17 22 24 22 15 10 8 11 12 13 20 21 19 20 20 21 18 17 13 16 18 18 18 16 14 14 9 3 3 12 12 19 24 80 90 43 88 96 79 58 74 73 68 39 30 65
20 21 19 19 24 26 24 16 10 8 9 10 9 17 18 19 21 22 24 20 18 15 15 21 20 19 18 18 14 6 3 3 7 19 32 47 33 40 87 64 93 95 96 90 95 97 84 37 65
22 23 20 20 23 26 24 14 10 8 9 9 10 13 17 20 22 25 26 25 22 18 17 22 21 21 22 20 15 7 3 4 10 15 30 33 61 52 46 62 71 94 96 96 95 97 95 44 78
23 23 19 18 24 25 23 14 8 8 8 8 7 10 16 17 20 24 27 28 24 23 20 20 20 22 22 23 16 8 5 5 13 24 58 53 42 32 52 72 86 94 92 89 86 96 96 82 50
26 22 17 18 26 26 24 14 9 6 6 6 6 10 13 16 20 24 28 29 26 26 23 19 20 22 21 23 17 9 5 5 11 31 28 20 24 28 45 72 92 95 86 93 98 96 97 84 50
28 22 18 22 28 26 20 12 8 6 5 5 6 8 8 12 21 26 27 29 29 29 27 22 21 25 21 20 18 10 5 7 15 21 17 22 26 38 32 48 98 96 92 95 96 97 97 91 66
25 20 23 22 22 22 15 11 9 6 5 6 6 7 7 10 19 25 27 32 32 34 32 27 24 23 23 19 18 12 6 7 10 16 16 27 29 36 37 39 96 95 91 95 97 97 86 87 79
22 22 23 19 20 19 15 13 10 9 9 10 8 8 8 10 17 24 29 31 35 38 36 30 25 21 22 21 20 13 6 8 10 16 20 24 28 34 33 43 82 89 92 94 96 96 85 89 77
24 20 18 17 17 16 15 14 13 12 11 11 10 8 8 12 15 21 28 33 36 34 37 32 27 21 22 22 21 12 6 7 12 15 18 21 28 28 34 51 81 86 98 91 86 97 94 90 87
28 21 19 17 17 17 17 17 16 14 16 13 11 10 11 12 17 20 27 34 38 36 42 35 30 24 22 23 24 10 6 9 12 14 18 20 26 30 29 39 94 95 92 98 94 97 97 96 92
30 26 26 27 26 25 23 23 22 18 18 16 16 15 12 13 15 19 27 32 41 40 44 40 33 27 22 27 25 9 7 9 11 16 22 21 25 30 30 40 96 97 98 93 92 97 98 93 93
34 32 34 33 35 35 31 23 26 22 17 15 19 16 12 11 12 15 19 32 42 39 45 42 38 29 22 28 23 9 10 11 17 24 23 25 26 27 35 33 95 98 96 96 97 97 97 91 88
41 38 39 43 42 32 29 27 25 27 24 23 21 18 14 11 13 20 23 25 39 40 41 44 41 30 23 25 22 10 15 18 22 19 19 28 28 28 30 30 79 97 97 89 97 97 97 96 88
45 44 43 42 37 34 31 27 24 21 21 19 19 22 20 14 15 20 18 21 35 41 41 42 42 34 25 26 25 11 16 18 18 16 16 31 29 27 25 29 38 96 97 99 96 97 97 96 95
45 40 38 37 34 32 28 23 22 21 19 16 14 13 12 13 20 19 12 12 20 41 41 48 50 45 28 25 27 13 17 16 14 15 15 27 30 28 23 27 32 66 96 96 97 97 96 97 97
44 40 36 32 28 27 24 21 20 19 17 12 10 12 12 11 11 11 7 5 11 36 43 58 54 58 37 27 26 16 17 15 11 16 13 14 30 30 22 27 29 42 90 97 97 96 96 97 97
41 34 29 27 23 22 22 18 17 15 13 11 9 8 7 6 6 7 6 6 18 33 46 63 70 68 43 32 23 18 17 14 10 15 16 10 16 28 25 28 29 37 44 94 95 93 96 90 85
33 26 23 20 19 17 17 18 16 13 12 11 9 10 10 8 8 9 7 7 28 44 58 73 81 68 46 34 17 19 17 13 12 14 17 16 8 14 27 28 30 31 64 60 98 96 91 97 82
63 38 24 19 17 16 14 14 14 12 12 12 11 12 10 8 6 5 7 13 42 48 71 89 84 67 41 37 15 20 17 13 13 13 18 18 17 9 8 17 28 32 72 86 83 99 90 96 76
21 20 19 18 17 16 16 14 13 12 14 11 12 10 7 6 5 5 12 19 52 56 86 91 84 66 39 38 15 20 17 14 14 14 18 18 18 17 12 8 18 34 47 49 71 78 86 96 75
19 22 22 21 19 18 17 15 12 12 11 10 7 6 5 7 9 16 25 49 61 61 71 94 78 63 45 37 15 19 18 15 15 15 16 18 17 18 20 15 21 45 54 76 84 85 97 96 96
23 24 26 26 23 21 16 14 11 12 13 7 11 23 20 20 21 33 52 50 63 69 90 98 98 74 54 36 16 20 18 15 17 16 13 13 14 16 18 29 54 72 91 77 95 87 97 78 91
27 28 27 26 24 19 17 16 12 18 19 20 32 34 37 33 32 43 34 45 54 85 98 99 98 74 55 35 17 23 18 16 16 17 15 13 14 15 18 30 77 86 66 72 82 93 96 94 90
29 27 26 25 21 16 13 11 13 28 51 48 49 58 55 49 48 56 71 69 72 93 98 98 92 76 55 37 20 22 20 18 16 18 16 15 15 16 16 20 19 26 36 39 52 63 76 80 95
28 25 22 17 14 14 12 14 67 95 100 75 65 56 58 60 68 66 79 94 98 98 97 96 93 68 53 50 24 20 20 19 19 19 17 16 16 16 13 14 14 18 22 24 20 20 22 33 49
25 22 16 12 16 14 11 18 41 47 66 93 88 92 78 76 88 93 94 98 97 98 97 100 86 78 65 45 39 40 22 20 21 21 19 17 16 17 18 18 15 16 18 22 25 26 25 31 28

GFSSGP_500_rhum_102.txt.gz
RH
2 3 5 10 11 13 15 14 15 14 12 11 10 13 11 10 11 11 10 10 9 9 9 8 8 8 7 8 8 8 8 8 7 4 3 6 8 8 12 12 8 7 7 6 6 7 12 32 50
3 5 7 9 13 15 17 15 18 18 13 12 10 12 14 11 10 8 8 8 10 9 10 9 9 10 9 9 9 9 8 7 6 3 3 5 9 12 10 14 15 15 13 12 17 17 15 30 65
5 8 13 12 14 20 22 16 16 17 14 12 10 13 15 15 12 10 10 9 11 11 11 11 9 10 10 10 11 11 9 8 4 4 7 6 8 14 36 13 25 33 38 36 63 43 36 18 54
5 9 14 13 16 22 22 18 15 19 16 13 11 10 15 16 14 13 14 13 12 13 14 13 11 11 12 12 11 11 9 6 4 7 15 8 10 29 74 62 59 87 69 77 60 56 43 22 37
8 8 13 15 18 25 23 19 17 16 16 13 11 12 17 16 16 16 17 17 18 16 15 15 13 12 13 13 11 11 11 5 4 8 11 32 72 67 68 69 65 92 95 95 76 66 67 37 27
23 16 12 15 19 25 26 20 16 15 13 11 11 12 19 19 17 18 18 20 20 17 16 17 17 15 15 14 13 12 12 6 3 10 46 33 53 38 43 34 52 57 94 97 96 92 88 76 33
26 23 19 16 20 24 27 22 18 16 11 9 11 16 19 18 15 17 17 20 22 17 16 17 20 18 17 15 12 14 14 8 4 4 15 29 31 50 56 38 34 60 83 75 96 96 96 97 81
28 26 21 20 24 27 27 25 21 14 9 8 10 12 16 12 10 14 17 22 25 18 17 19 22 22 18 16 14 13 15 9 5 4 16 33 59 51 37 32 46 62 87 86 92 87 95 96 97
37 28 23 22 24 28 28 27 20 14 12 9 9 9 7 9 10 14 19 22 24 24 21 19 23 24 21 18 16 16 17 10 6 8 22 32 41 22 22 31 39 50 92 84 89 95 97 97 97
37 34 29 29 27 38 33 28 20 15 13 9 9 7 5 7 8 11 20 23 25 26 22 21 24 24 25 21 18 17 18 12 7 11 22 31 27 26 26 29 46 40 85 85 89 94 98 96 96
32 33 32 29 33 44 39 25 23 14 10 12 9 7 7 7 9 10 20 24 24 24 23 23 26 24 26 25 21 16 18 13 7 8 17 28 32 33 28 31 34 35 76 88 88 97 97 97 96
34 32 29 29 32 34 31 26 19 13 12 14 11 9 8 9 10 11 18 25 25 26 25 27 29 24 26 28 22 15 17 15 6 6 12 16 17 20 25 28 30 34 60 86 88 96 97 96 93
41 36 29 26 25 28 28 23 17 14 12 17 12 11 11 11 12 14 18 25 27 28 31 28 31 25 26 30 24 16 16 17 6 7 10 12 16 17 20 25 26 28 73 86 90 97 97 97 86
46 43 36 30 25 23 22 20 18 16 14 15 14 13 13 13 14 15 17 22 26 29 32 25 34 25 29 32 26 18 19 16 8 9 9 11 13 16 19 25 27 30 73 78 82 94 97 96 89
48 44 44 40 32 24 20 17 16 16 17 17 16 15 15 15 15 14 17 20 23 25 29 24 28 27 30 34 30 20 21 15 9 11 12 14 15 18 22 23 29 32 81 86 84 83 96 96 89
49 46 42 43 40 27 20 18 18 18 20 19 19 19 18 17 16 15 17 18 20 23 25 20 24 31 31 35 35 20 26 15 10 15 18 20 19 21 25 26 27 28 95 98 87 97 93 97 93
58 50 45 43 40 33 24 26 28 26 26 24 23 20 18 17 16 14 10 10 16 20 23 27 27 33 30 38 39 23 28 16 13 16 18 17 16 23 27 27 27 32 95 94 95 89 97 96 96
65 56 52 48 40 37 32 32 33 38 35 31 29 27 26 23 21 19 18 15 12 20 24 30 29 34 32 40 45 26 30 18 15 17 16 14 15 24 27 29 30 37 90 97 96 97 93 97 97
66 59 52 49 45 41 38 38 42 44 40 32 28 25 24 26 25 24 21 19 15 17 22 28 28 35 35 44 52 36 34 20 16 17 14 12 14 16 28 24 29 31 81 97 96 97 97 96 97
96 86 62 47 46 44 41 38 37 36 33 30 27 25 22 20 20 19 15 14 15 18 20 21 25 29 36 43 60 45 38 22 17 16 11 10 15 13 27 23 20 29 56 96 97 96 96 95 96
98 97 78 56 47 45 41 37 34 31 28 25 22 20 18 17 14 11 10 10 11 15 15 20 31 35 45 46 62 55 41 22 16 15 9 10 16 12 17 24 22 28 37 63 95 97 98 97 96
96 93 69 52 46 42 39 34 32 27 22 20 19 17 16 14 12 9 7 5 5 5 8 18 30 39 47 54 66 63 43 18 17 14 10 11 17 16 9 17 22 30 37 89 70 97 97 97 97
99 92 80 57 43 40 34 32 27 22 18 18 16 14 13 11 9 8 6 6 6 5 5 15 33 40 52 65 73 67 44 18 19 14 12 11 17 17 16 9 20 26 24 69 66 71 88 96 95
94 96 88 50 36 38 26 25 23 21 18 16 14 12 11 10 10 10 10 9 7 6 6 16 42 53 62 75 79 71 45 20 20 14 13 12 17 17 17 15 9 10 18 28 50 85 58 84 97
95 97 93 78 70 46 32 22 21 19 16 15 14 13 12 12 11 10 9 8 9 8 9 24 56 69 72 85 81 62 52 20 20 15 14 13 16 17 16 16 17 14 22 34 49 58 60 68 96
100 79 23 25 26 22 21 19 18 17 15 13 11 10 9 9 7 6 7 9 11 13 17 52 68 72 88 99 84 60 57 19 18 16 16 14 12 13 13 16 16 20 38 60 69 79 97 90 77
61 36 32 28 24 23 22 21 18 15 13 12 11 8 6 5 8 14 17 16 17 28 47 66 68 82 97 98 90 70 59 20 17 16 17 16 13 11 13 16 20 49 74 79 73 67 88 93 97
43 33 32 30 28 25 22 20 20 14 14 15 12 12 11 14 24 23 26 26 37 63 75 70 67 93 98 100 92 74 58 20 19 18 18 18 16 15 13 16 19 21 42 56 57 54 79 88 96
44 49 38 30 27 24 21 24 25 19 33 24 11 34 39 39 41 30 35 40 42 63 85 88 96 89 98 100 93 76 57 21 20 20 23 22 18 17 18 13 18 21 22 18 16 22 37 59 72
58 47 31 26 24 22 16 19 16 14 15 34 54 65 54 53 52 51 44 61 61 66 87 100 100 98 100 100 93 78 61 38 21 20 22 25 24 18 18 21 16 14 21 26 25 22 21 22 23

GFSSGP_500_rhum_105.txt.gz
RH
2 2 2 2 2 4 9 12 16 15 13 9 12 10 9 7 8 10 6 8 7 8 7 9 10 8 8 8 7 6 6 7 6 6 5 3 5 4 5 7 10 10 8 5 6 6 8 12 14
2 2 2 2 2 5 12 19 18 17 14 11 13 11 9 8 6 6 6 6 7 8 9 9 10 10 9 10 9 7 6 6 7 7 4 4 5 5 8 12 8 18 32 34 12 15 25 25 14
3 2 2 2 3 6 17 34 28 18 16 13 14 11 8 8 5 5 6 6 7 8 7 9 10 10 10 10 11 10 10 8 6 5 5 7 9 10 20 31 39 16 25 49 66 66 46 41 28
5 4 3 3 4 9 12 37 17 19 18 16 13 11 8 6 5 6 5 5 6 7 7 10 9 9 10 10 11 11 10 8 7 6 4 8 11 40 34 54 52 57 42 86 95 90 96 48 32
13 12 6 4 5 10 12 19 21 22 20 18 14 13 10 8 6 5 5 6 6 7 8 10 9 9 10 12 12 13 11 9 8 7 4 13 53 83 88 59 68 51 64 77 84 93 82 68 39
23 23 16 14 7 9 12 18 23 24 23 20 16 16 12 6 6 5 5 6 8 6 8 10 9 10 10 13 14 14 12 11 11 9 14 36 38 44 44 36 44 35 43 52 93 92 95 76 75
30 29 21 22 21 12 15 20 22 25 25 23 18 15 17 8 5 5 6 6 6 7 7 10 10 12 12 17 17 15 12 10 12 9 10 7 11 26 29 52 46 36 34 58 96 94 92 96 85
40 36 30 25 25 22 21 18 25 25 25 22 20 20 20 5 8 7 6 6 6 6 6 6 9 11 13 18 19 17 14 11 11 14 10 11 15 26 61 44 34 30 40 58 69 76 94 96 95
43 39 32 29 29 27 25 22 26 27 25 21 21 22 10 12 13 7 8 8 8 6 5 6 6 10 13 17 22 20 16 12 11 15 12 12 24 41 58 35 20 27 42 46 73 79 93 97 97
40 36 34 41 39 35 28 26 28 26 25 24 22 15 15 11 12 10 8 9 9 8 7 7 6 9 14 16 22 24 20 15 12 15 25 26 22 31 39 50 28 26 44 41 66 91 94 97 96
50 34 36 39 47 42 37 34 28 26 26 27 25 19 13 10 14 13 8 10 10 9 9 8 8 9 13 18 20 25 23 17 13 16 26 32 26 48 47 51 37 29 31 53 52 96 91 96 97
55 49 47 40 40 39 43 54 46 32 29 29 27 22 10 11 12 11 10 11 13 12 11 10 10 11 12 15 22 25 26 20 13 15 12 24 13 30 35 39 35 37 31 38 38 89 89 97 97
53 53 53 50 44 36 38 41 40 38 33 28 28 22 13 13 14 14 12 12 13 14 14 13 12 10 15 16 24 27 29 24 16 18 10 7 14 19 28 21 23 20 24 28 56 83 88 95 96
61 54 54 52 46 44 36 32 33 34 31 26 28 20 14 13 13 14 14 14 15 17 14 12 14 14 20 21 25 28 32 27 18 21 10 8 10 13 16 14 15 18 21 36 58 84 86 96 96
65 55 50 49 53 42 47 31 27 27 34 27 25 19 16 14 13 13 15 16 17 16 15 12 21 16 21 24 25 27 34 30 20 20 10 9 13 13 19 28 29 26 28 36 52 76 80 97 95
74 68 50 46 52 52 49 34 35 29 25 24 21 20 17 15 15 14 15 17 20 19 17 13 18 14 18 23 24 27 34 32 23 22 12 11 18 17 16 20 27 30 35 34 45 76 78 95 97
75 66 62 63 56 51 46 41 44 37 26 21 17 17 17 17 18 18 18 19 19 21 18 12 14 14 17 22 25 25 37 35 27 24 14 12 18 15 14 18 25 30 25 29 52 84 92 94 97
61 78 73 73 67 58 46 43 45 41 29 23 19 18 18 20 20 20 21 21 19 17 16 14 14 16 17 22 23 23 36 39 32 27 18 13 18 13 11 16 25 27 25 30 66 93 100 98 96
100 100 100 81 76 66 52 46 44 42 35 25 23 24 27 31 32 31 29 28 25 24 20 20 16 17 20 29 25 23 30 44 38 28 21 13 16 10 9 15 27 26 24 32 86 95 98 95 97
99 98 84 87 85 69 58 48 44 43 39 30 30 33 42 40 32 29 26 23 23 22 21 20 23 20 26 29 25 22 28 47 43 30 24 14 15 8 10 13 24 28 23 31 85 96 96 97 96
93 94 97 100 99 87 67 53 47 42 40 37 37 40 41 37 32 28 25 23 21 19 18 15 14 21 25 33 27 25 29 48 52 33 25 15 14 9 12 13 14 30 26 32 58 96 96 97 96
97 98 100 97 95 86 72 54 60 45 42 41 40 38 35 32 29 26 23 22 20 17 15 11 9 12 19 36 29 34 39 47 60 38 23 15 13 10 10 16 10 22 37 33 39 95 96 96 96
89 100 98 99 95 100 85 68 50 50 46 42 38 35 32 28 25 22 19 17 15 13 9 7 7 8 10 28 31 37 47 46 64 40 23 16 13 10 12 16 15 10 29 32 42 92 95 97 97
100 97 98 99 100 89 86 73 87 81 48 37 32 26 24 22 20 17 16 14 12 8 7 6 6 6 9 21 32 42 52 49 66 45 28 18 14 10 13 18 16 14 10 20 42 54 58 80 90
99 100 100 100 97 68 93 73 69 88 58 36 27 23 19 19 18 18 15 12 10 10 10 10 9 7 8 21 33 49 54 57 71 49 31 19 14 11 13 16 16 14 16 14 22 38 68 77 61
100 100 100 100 100 98 92 66 94 67 28 23 24 22 18 18 16 14 13 12 10 10 10 11 10 8 9 19 47 55 60 70 76 57 31 20 15 11 11 12 14 16 17 20 34 43 88 97 83
100 96 100 99 98 98 100 97 74 38 26 21 18 16 15 14 14 15 14 13 11 10 10 9 9 10 12 25 58 61 78 84 79 64 27 21 16 14 11 10 14 17 38 60 74 90 80 86 96
100 100 100 96 91 88 91 99 97 88 33 19 16 15 14 14 13 11 10 7 5 5 6 10 11 14 17 52 64 74 97 84 76 69 29 22 17 16 14 12 14 17 39 56 64 65 64 70 90
100 98 99 91 73 98 99 98 100 68 36 21 15 14 12 14 12 8 9 13 14 12 16 14 21 23 48 70 80 98 97 82 68 71 27 26 19 19 16 16 14 16 19 18 18 18 26 48 83
100 95 72 78 63 36 72 97 99 60 19 14 15 16 35 24 18 14 27 35 25 24 25 30 50 65 80 98 99 97 87 81 69 76 31 26 22 24 21 17 19 13 13 19 20 24 22 26 26

GFSSGP_500_rhum_108.txt.gz
RH
2 3 3 3 3 3 3 2 6 29 27 19 14 13 12 22 7 5 4 4 4 5 6 5 4 4 5 5 6 6 6 5 5 5 5 6 5 5 6 8 4 5 15 35 24 7 6 8 15
2 2 2 2 2 2 2 4 16 35 25 14 16 14 16 15 6 5 4 4 5 6 6 4 4 4 4 4 5 7 7 7 6 5 5 5 5 6 8 16 19 20 16 35 51 40 25 8 14
5 4 3 2 2 2 2 22 34 34 24 14 17 17 16 14 6 5 4 4 5 6 6 5 5 4 4 5 5 7 8 8 8 6 6 5 4 24 21 29 22 28 33 19 31 44 88 52 25
4 5 5 5 4 3 3 23 37 39 24 16 22 20 16 11 8 4 6 4 4 4 5 5 4 4 4 5 6 7 8 9 8 6 7 6 6 16 27 55 60 52 48 38 48 75 83 83 64
22 11 9 6 6 4 4 19 39 34 22 17 22 23 17 13 10 6 5 4 4 3 4 4 5 4 4 5 6 7 8 8 9 7 8 9 20 40 50 60 70 38 49 51 50 74 74 94 93
30 28 20 8 8 10 6 8 14 20 20 19 23 24 21 15 12 7 5 4 4 4 4 4 5 4 4 4 5 7 7 8 10 8 9 15 15 8 20 43 37 38 38 35 34 34 88 96 88
42 31 28 26 20 20 20 12 22 10 16 20 24 26 26 18 14 9 5 5 5 4 5 5 5 6 5 4 6 6 6 9 11 9 8 12 18 11 14 22 31 50 45 38 27 33 92 93 96
49 48 34 26 28 25 26 40 41 15 12 22 24 24 25 24 14 10 8 6 5 4 5 6 6 6 5 5 7 5 6 9 11 11 8 12 15 24 18 25 38 43 32 26 26 40 79 89 93
62 50 35 36 35 32 31 34 35 19 15 18 23 25 25 22 18 14 10 6 6 5 6 7 6 6 6 5 7 7 7 9 12 12 10 9 20 35 30 37 54 41 27 24 26 37 65 83 86
58 56 36 44 45 43 36 35 33 25 22 21 23 24 25 24 22 16 10 8 8 8 8 7 7 8 7 6 7 10 9 10 12 14 12 11 26 38 40 39 41 46 38 21 26 48 52 82 89
56 39 52 52 46 50 51 49 39 29 28 24 25 25 26 25 23 18 14 10 8 11 11 10 7 9 7 8 8 10 10 12 13 16 14 13 19 28 40 50 59 59 52 34 31 50 49 75 93
70 40 53 56 59 51 48 58 42 38 34 28 28 27 26 25 27 24 16 14 12 10 13 13 10 8 9 8 8 10 11 13 17 19 17 12 13 14 26 28 36 42 45 48 41 47 39 54 94
60 49 59 60 63 63 55 42 41 44 48 45 33 28 26 25 27 28 21 16 14 10 12 14 11 10 9 6 10 10 8 12 16 21 20 14 12 11 28 31 33 28 29 30 36 38 34 57 86
51 66 66 64 58 55 63 56 38 38 46 47 43 38 39 34 32 26 21 15 16 17 12 13 12 12 10 7 6 10 14 13 16 17 22 17 14 9 10 26 30 24 18 20 24 29 43 66 88
48 67 71 62 56 52 57 53 46 45 43 38 38 36 38 41 38 28 22 15 16 18 16 12 16 13 11 10 7 9 14 10 15 18 23 20 16 10 6 22 19 19 33 30 32 47 48 51 67
35 66 61 46 63 58 62 32 45 55 55 39 34 33 32 36 32 27 21 16 16 16 20 14 14 16 13 12 11 10 13 15 15 20 26 22 19 12 8 17 16 15 26 30 38 47 42 52 76
14 32 37 49 76 82 69 36 51 52 55 51 42 34 27 24 30 27 21 17 17 19 20 18 17 19 19 16 13 13 14 14 18 23 32 26 21 14 10 14 13 12 29 29 36 34 35 45 84
7 10 48 54 70 92 81 50 60 55 56 51 48 41 33 25 23 22 19 18 19 20 22 20 19 17 24 19 14 15 15 17 10 22 35 33 23 17 12 13 11 11 25 25 28 27 30 47 99
4 50 67 55 89 100 83 79 79 65 53 48 51 48 41 34 24 20 18 18 20 22 24 27 23 23 22 19 17 15 17 18 15 16 30 39 26 20 14 13 9 12 16 22 28 27 29 69 96
22 73 91 98 98 99 99 91 94 71 58 49 50 47 43 39 28 23 22 21 28 34 33 33 23 21 26 23 22 17 17 22 18 22 25 35 30 23 15 13 8 14 14 22 24 26 29 85 97
50 96 99 91 100 100 100 94 89 63 54 58 52 48 44 40 28 26 29 38 47 46 36 28 24 20 21 28 28 23 17 25 20 25 27 35 36 25 15 13 9 14 12 19 26 29 41 92 96
83 100 100 100 100 95 100 85 70 81 74 64 57 49 43 39 36 31 32 42 42 36 29 26 25 23 20 20 20 18 20 27 26 22 28 45 44 24 16 13 11 16 15 13 33 34 48 94 97
71 100 100 100 99 92 95 83 68 100 100 86 61 51 45 41 38 38 39 39 35 32 28 24 21 19 17 11 14 16 18 28 29 23 31 47 50 24 17 13 12 17 16 12 27 67 64 93 96
100 100 96 98 100 99 73 82 85 100 98 99 68 53 48 43 40 38 37 35 32 28 24 21 18 16 15 12 12 14 22 26 30 30 31 55 52 25 19 14 12 15 16 18 14 24 50 80 96
100 94 100 100 96 50 73 98 83 97 91 85 65 71 56 43 41 38 34 30 27 21 18 16 14 14 12 7 10 11 15 21 26 29 30 63 55 25 20 14 12 13 13 15 16 16 27 59 75
82 99 98 93 78 70 100 95 99 95 97 100 91 83 68 74 61 44 33 29 23 19 17 14 12 10 10 9 8 12 8 19 21 31 34 68 54 25 19 15 12 10 11 16 16 18 34 58 81
86 77 98 100 100 98 93 98 99 91 97 100 98 68 62 50 29 28 28 26 24 19 15 12 11 10 10 11 11 11 9 18 22 39 38 72 52 25 19 16 12 10 13 20 26 49 54 57 76
94 100 99 100 99 100 98 99 93 98 97 96 88 55 40 27 24 27 26 19 15 14 13 13 12 12 11 11 12 11 13 25 39 44 58 78 52 25 21 17 15 12 15 28 54 69 68 72 70
100 98 92 99 100 100 98 100 98 99 100 99 81 37 20 18 17 17 17 18 17 16 12 9 7 8 7 8 24 19 29 36 41 57 86 80 63 26 23 20 17 15 13 19 19 27 32 46 57
100 100 100 96 100 100 99 100 100 98 99 100 57 24 19 18 16 14 16 16 15 13 8 25 28 36 32 24 30 32 46 54 55 74 97 83 63 27 26 22 23 17 14 15 20 19 19 19 21

GFSSGP_500_rhum_111.txt.gz
RH
2 2 3 3 3 4 4 3 3 9 15 29 35 34 27 15 12 8 8 6 5 4 4 4 4 3 3 3 3 3 4 5 6 6 5 4 4 4 5 7 10 9 9 12 25 32 25 10 7
4 3 2 2 2 2 2 2 3 20 19 21 34 28 27 16 14 8 6 6 5 4 4 4 4 4 4 3 4 4 4 5 6 7 6 5 5 4 5 18 16 22 21 20 23 32 49 39 23
12 7 8 9 14 9 4 2 8 6 29 35 35 30 26 16 13 11 9 6 5 5 5 5 4 4 4 3 4 3 4 4 5 6 6 5 6 5 5 14 20 32 36 43 40 30 26 36 65
28 26 20 18 19 18 6 8 33 29 29 41 39 35 31 18 15 13 12 8 6 6 6 6 5 5 4 3 4 4 4 4 4 6 7 6 6 7 23 36 46 58 57 44 51 40 43 62 75
41 40 34 30 28 20 10 10 18 17 29 32 38 35 25 22 19 16 11 9 10 7 7 6 5 5 5 4 4 4 4 4 5 6 7 6 6 17 12 8 17 35 38 34 43 47 39 46 74
34 38 38 36 31 21 11 6 28 29 34 22 17 31 29 22 20 17 13 11 7 8 8 6 5 5 5 4 4 5 4 4 5 6 7 7 7 12 18 8 10 26 28 34 37 38 34 28 82
24 37 25 29 33 28 20 15 11 37 31 31 20 20 31 21 21 20 17 12 8 8 8 8 5 5 6 5 4 4 5 4 5 6 6 8 8 11 17 28 20 22 31 46 47 41 33 62 96
42 36 19 15 24 30 28 26 15 19 11 21 20 19 26 19 20 18 17 16 12 7 7 9 5 6 6 6 5 4 6 5 6 6 6 7 8 9 23 33 27 27 35 46 33 26 24 39 76
50 36 17 12 20 30 37 32 28 20 17 29 13 17 20 22 20 19 18 19 16 8 8 8 7 7 7 7 7 5 5 5 5 7 8 8 9 12 24 31 32 38 37 44 34 31 27 30 42
42 37 9 29 40 45 44 47 37 33 27 28 30 16 18 18 20 19 20 22 19 14 10 9 10 9 8 8 8 7 5 5 5 7 8 10 11 12 18 22 32 39 47 49 52 39 30 42 41
41 26 17 36 45 54 53 45 54 40 36 32 28 27 22 20 20 23 22 21 23 19 11 11 12 11 10 9 9 8 6 6 5 6 8 9 12 12 11 13 22 35 46 44 44 45 35 31 44
22 13 19 37 53 57 53 55 46 56 44 41 33 28 29 26 24 24 24 23 25 26 18 12 12 14 14 10 10 8 7 7 6 5 6 8 11 13 11 10 19 34 29 34 38 44 44 39 43
9 9 25 37 60 66 63 58 52 45 45 50 44 36 31 28 25 25 26 25 28 28 25 16 14 14 16 12 11 10 9 8 8 6 6 7 11 14 14 11 16 44 28 40 29 20 22 32 35
7 8 13 28 49 60 73 54 66 52 48 41 42 53 47 35 29 27 27 29 29 32 23 17 18 16 15 15 14 12 9 11 10 8 7 8 11 14 16 13 7 16 18 29 22 24 20 21 35
5 6 8 10 25 45 77 76 49 61 65 52 39 38 48 50 49 44 39 33 41 35 26 12 12 16 19 16 16 17 11 10 9 9 8 10 10 18 17 15 9 10 15 17 16 28 29 34 44
5 5 5 3 6 29 84 61 52 67 65 56 54 52 46 42 48 50 48 42 46 41 28 15 12 12 17 18 16 17 16 13 12 11 12 12 12 18 22 19 12 10 12 12 14 30 34 49 46
4 4 4 4 8 23 93 52 60 72 75 67 56 53 50 44 38 40 42 42 42 41 31 20 15 15 15 19 18 19 18 16 17 13 14 17 16 18 23 22 16 11 11 10 12 25 32 35 34
2 3 4 4 6 20 57 38 71 77 78 63 58 58 56 51 45 40 34 32 30 32 30 20 17 16 16 19 21 19 18 20 20 16 16 21 22 19 24 29 20 14 13 8 12 17 23 24 26
2 3 3 3 4 34 39 34 82 83 92 83 72 60 53 50 49 49 42 35 28 25 22 19 17 16 20 23 23 21 18 19 20 20 17 24 26 27 27 34 24 16 13 7 13 17 26 26 24
4 3 3 3 4 97 97 70 73 87 78 74 75 74 62 56 52 49 48 42 33 25 21 18 18 20 26 30 31 26 23 20 20 22 18 28 28 30 33 42 27 17 13 8 12 16 22 26 27
6 5 3 4 21 84 94 88 80 87 98 88 62 72 73 66 54 48 48 44 40 28 24 21 22 39 45 44 30 27 25 23 22 26 23 27 28 30 37 50 28 17 13 9 12 13 14 28 32
10 6 5 30 98 99 97 85 85 99 87 59 55 78 90 73 61 50 44 42 41 39 28 26 29 44 47 35 28 26 23 22 25 25 21 23 28 24 38 55 28 17 14 10 13 16 15 37 40
8 11 25 98 98 88 96 96 59 72 98 94 100 96 92 74 54 44 42 43 40 36 29 31 39 55 33 29 27 24 22 20 22 26 22 24 28 24 29 60 31 18 15 11 14 18 14 28 61
51 100 93 79 98 99 66 94 66 96 100 95 96 82 66 58 60 58 52 44 42 38 35 36 39 35 48 46 26 18 18 15 16 21 32 37 37 26 32 64 36 19 16 12 14 16 17 16 47
98 100 91 100 100 56 58 99 76 93 100 96 93 75 60 59 60 65 57 48 44 41 41 39 37 34 29 33 20 15 13 13 10 13 28 37 40 32 48 67 38 19 16 12 12 14 14 16 28
98 63 78 87 55 37 73 71 51 100 93 92 82 63 56 58 65 60 52 49 44 41 38 35 31 27 23 19 22 12 13 12 9 9 17 33 40 38 67 73 39 21 17 11 12 14 15 17 24
96 63 70 78 76 80 65 57 82 98 74 84 83 69 71 87 65 59 58 50 50 53 46 33 26 22 20 20 20 14 12 15 20 21 12 29 32 40 80 77 37 21 18 12 14 20 20 25 47
73 87 76 80 91 95 81 79 100 98 100 90 78 73 82 93 88 56 39 62 77 75 48 33 26 22 19 20 19 13 12 14 40 44 25 32 30 44 90 75 33 22 18 15 16 40 50 64 74
75 88 76 100 92 99 93 99 99 99 97 97 100 99 98 91 67 44 48 56 41 31 27 22 20 17 15 14 17 17 14 26 46 59 28 20 40 54 97 73 31 25 20 16 16 22 34 42 56
100 100 100 100 99 99 98 100 97 100 99 97 99 98 97 86 76 50 53 32 25 20 17 16 15 15 21 42 43 42 60 55 59 66 52 27 50 78 95 75 33 28 21 18 18 17 20 18 20

GFSSGP_500_rhum_114.txt.gz
RH
2 2 2 2 3 3 3 3 3 3 5 5 6 40 44 35 28 25 15 10 9 7 6 4 4 4 4 3 3 3 3 3 4 3 4 4 4 4 4 4 6 13 13 18 16 20 26 30 31
4 4 3 2 2 2 2 2 2 4 5 13 22 24 37 32 27 21 15 11 10 8 6 6 4 5 5 4 3 4 3 3 3 3 4 4 5 4 5 5 5 16 19 26 36 32 32 30 36
20 19 11 5 5 6 9 7 3 4 11 11 23 33 22 18 24 21 16 14 13 10 6 6 5 5 6 5 4 4 3 3 3 4 4 5 5 4 6 10 21 35 42 55 40 37 41 30 28
29 26 24 20 19 16 18 11 5 3 6 11 8 23 16 10 19 22 17 16 16 11 9 7 7 6 6 6 4 4 4 4 4 4 5 5 5 5 8 14 9 10 16 47 34 33 35 35 42
20 21 22 19 20 24 27 24 6 6 6 7 10 13 14 17 15 21 20 20 20 14 10 9 8 8 8 8 5 5 5 5 4 5 6 6 6 6 7 12 13 7 11 28 27 36 39 45 41
19 20 12 8 10 15 22 33 7 13 20 14 14 16 10 14 18 23 22 22 20 16 11 9 10 9 9 10 7 6 5 6 4 4 6 7 7 6 8 10 21 22 17 23 30 41 44 39 37
29 22 6 4 3 5 14 36 26 11 25 19 21 19 11 7 12 23 21 23 23 18 14 12 10 9 10 9 8 6 6 5 5 5 5 7 8 7 7 10 25 30 26 28 38 46 49 40 28
23 18 4 2 2 3 26 41 32 17 16 26 27 21 16 11 7 15 17 20 23 24 20 14 12 11 9 10 9 7 7 6 6 5 5 6 8 8 8 10 24 30 29 32 44 49 33 27 30
18 9 2 2 4 14 39 44 43 30 23 17 26 31 22 17 10 7 11 17 22 26 23 17 14 12 9 8 9 9 8 7 6 6 5 6 7 6 7 14 16 23 36 46 46 52 40 33 27
6 4 2 5 8 13 34 44 51 42 32 28 18 14 23 12 12 8 11 15 21 24 24 20 18 14 12 8 8 10 10 9 7 6 5 6 7 4 6 10 12 12 21 43 57 61 58 50 36
5 2 2 3 3 4 14 33 63 54 42 33 29 28 18 15 17 11 11 14 20 23 23 24 22 17 14 11 9 9 11 11 9 8 7 5 6 4 5 9 11 10 15 34 41 44 44 41 37
4 2 2 2 3 3 2 26 43 59 42 42 36 35 34 32 26 20 17 16 18 22 25 25 25 25 19 14 12 10 11 12 10 9 8 7 6 5 7 10 13 11 22 45 37 38 30 18 29
3 2 3 2 2 2 4 5 18 67 58 51 45 42 39 38 35 30 26 22 20 22 26 27 28 29 24 19 16 13 12 13 13 11 10 10 7 6 7 12 13 13 8 25 33 36 31 15 16
5 3 3 3 2 2 5 8 61 44 72 62 54 51 49 47 42 38 33 30 27 26 28 29 33 36 29 22 20 16 14 14 15 13 10 11 11 8 7 10 14 14 11 10 23 19 22 29 29
4 4 4 4 4 5 7 9 20 20 83 78 62 55 54 54 52 50 48 39 33 33 30 28 34 42 36 24 21 18 17 16 16 16 14 13 13 12 10 10 12 17 14 12 15 15 13 14 28
6 6 5 4 5 5 6 6 6 22 72 91 76 63 59 59 55 48 44 46 46 48 44 39 36 41 41 28 24 19 17 18 17 18 18 17 13 15 12 11 11 21 21 14 12 14 10 8 25
5 6 6 5 4 5 5 5 5 16 64 84 96 73 66 58 54 58 55 48 40 42 42 41 41 38 34 32 22 19 17 19 20 21 20 17 14 14 16 13 14 23 27 18 13 13 8 9 17
5 4 4 4 4 4 5 5 4 9 42 74 89 93 78 70 71 74 72 64 47 38 36 37 35 31 34 30 20 18 18 22 24 22 19 16 15 16 17 17 18 23 31 25 15 12 8 13 17
5 5 3 3 3 3 6 5 4 18 30 64 87 96 95 86 77 83 76 70 65 52 38 35 30 26 27 26 27 20 24 29 24 21 19 17 18 19 18 21 18 20 34 30 16 12 8 12 16
10 9 4 2 2 4 7 9 4 18 19 38 76 97 96 98 91 81 76 68 65 62 50 41 36 26 22 20 16 24 37 34 32 31 24 21 24 25 22 24 20 20 34 34 18 13 8 11 14
23 12 7 3 3 10 74 6 12 6 7 13 56 86 94 98 98 92 77 65 54 52 48 44 40 30 22 19 22 44 56 83 87 47 32 30 28 25 26 27 22 22 36 37 19 13 9 10 15
42 33 10 6 8 13 100 50 72 63 22 16 45 80 100 100 96 82 72 62 51 44 46 48 48 45 39 22 19 36 49 61 37 28 27 32 30 26 30 31 25 23 38 39 19 14 10 12 16
54 92 17 18 11 64 58 95 55 81 75 70 100 94 87 91 76 72 70 69 60 48 43 43 42 41 58 51 63 46 55 36 30 28 27 32 35 28 32 34 29 26 39 44 21 14 11 11 16
96 32 32 78 36 50 59 99 47 88 41 100 96 99 80 69 75 64 65 60 65 57 48 45 42 40 45 47 40 92 96 66 38 25 21 26 33 26 29 36 32 29 43 49 23 15 12 10 13
81 81 79 100 98 59 100 83 96 76 99 82 97 92 84 65 69 70 68 71 67 63 54 48 41 38 37 35 38 43 64 76 60 30 17 18 20 27 44 47 32 36 47 51 25 15 12 10 11
100 95 80 89 89 79 86 65 87 95 99 95 90 78 82 56 47 54 53 58 54 56 60 53 46 42 37 37 39 37 30 34 49 42 14 15 14 18 42 45 35 41 52 51 26 16 12 10 12
90 76 69 88 87 83 93 94 84 92 88 98 97 96 83 78 82 88 86 81 66 63 59 59 52 46 43 40 38 33 24 24 43 34 15 16 12 16 22 31 36 45 56 54 24 17 13 11 19
87 94 70 88 100 100 74 79 62 44 37 56 51 80 89 89 80 75 71 74 73 63 54 46 41 40 38 38 37 41 38 24 38 45 24 23 29 25 20 29 36 58 63 53 23 18 14 13 58
91 62 65 75 82 84 97 99 72 73 67 98 90 62 82 97 81 89 90 77 58 56 48 46 51 62 56 35 60 47 29 28 23 37 36 32 54 58 34 34 45 67 72 52 22 18 16 15 38
92 87 81 69 79 100 100 100 98 100 100 100 98 85 89 96 90 89 100 82 70 59 49 59 39 60 88 73 32 25 35 40 61 59 58 56 57 66 43 33 57 81 80 52 23 20 18 15 20

GFSSGP_500_rhum_120.txt.gz
RH
18 17 17 16 10 11 11 5 3 3 3 4 4 4 4 4 4 4 6 11 12 15 18 15 12 7 5 4 4 5 4 4 3 3 4 4 5 6 5 4 4 6 10 11 12 17 22 34 31
25 23 21 17 14 14 12 7 6 4 2 2 3 3 3 3 3 3 3 5 7 17 18 16 15 12 7 5 4 5 4 4 4 4 4 4 6 6 6 6 5 6 12 15 18 32 42 35 32
19 16 16 15 15 18 16 19 18 14 8 4 4 3 4 4 5 4 3 3 5 11 17 17 18 14 10 6 5 5 5 4 4 4 4 5 6 6 6 7 6 5 9 13 8 12 23 26 33
16 14 11 7 7 13 24 34 35 32 28 25 21 16 19 17 16 16 10 5 6 7 10 18 19 17 16 12 7 6 6 5 5 4 4 5 5 6 6 7 6 6 7 14 18 12 16 25 32
15 13 11 7 9 13 20 35 38 41 41 36 30 22 25 24 26 24 15 12 9 9 8 18 21 20 21 16 10 6 6 6 5 5 5 4 4 6 6 7 7 7 7 14 22 21 22 25 30
14 13 9 7 9 13 20 30 28 30 41 37 32 32 29 24 24 23 14 15 16 11 12 20 23 23 23 20 14 8 7 7 7 6 5 5 5 5 6 7 7 5 9 13 21 23 21 25 31
12 10 8 7 7 8 15 36 31 28 31 38 24 19 23 20 20 20 15 11 14 13 14 26 25 25 26 26 20 13 8 7 7 7 6 6 6 5 6 7 6 4 6 9 14 22 34 32 35
10 9 7 7 6 7 17 27 32 28 32 37 24 16 19 22 21 20 21 22 21 20 18 23 29 25 27 28 25 19 12 9 8 8 8 7 6 5 5 7 6 4 6 8 11 13 20 35 38
10 9 8 7 8 10 11 12 23 21 14 30 32 15 18 21 20 20 22 24 26 28 23 20 26 24 25 28 28 23 18 13 9 8 9 10 7 6 6 7 6 5 12 8 7 8 12 24 32
8 7 7 6 6 6 8 7 10 11 9 15 37 33 9 20 27 24 23 20 22 22 24 23 21 23 24 26 28 26 24 18 13 9 9 10 10 7 7 7 6 5 6 6 8 8 10 24 31
10 8 8 7 6 5 5 5 4 7 5 6 32 48 20 23 20 23 25 19 19 20 21 18 23 22 20 24 28 27 26 24 17 12 10 10 11 8 8 8 7 6 6 6 8 8 8 14 26
12 11 9 8 7 6 6 5 4 5 4 6 15 27 17 21 24 19 24 28 25 25 25 20 21 16 18 25 27 28 28 29 24 17 14 12 11 11 9 10 10 8 6 7 9 7 7 7 9
19 19 14 12 9 7 6 6 5 4 3 4 6 17 18 8 14 30 34 30 30 31 31 26 24 25 18 20 25 28 28 29 31 22 18 14 12 12 11 12 12 12 10 6 7 7 7 8 8
26 28 21 11 8 6 5 5 4 5 3 3 3 4 10 7 7 12 24 39 36 34 34 31 26 31 26 24 22 26 28 32 37 28 23 19 15 14 14 13 14 15 15 11 8 7 9 9 9
20 17 11 9 7 6 5 6 4 3 3 2 2 3 8 7 14 7 16 31 45 41 38 36 30 35 34 32 26 25 31 37 43 38 26 22 18 16 16 17 16 17 18 16 11 8 8 10 10
15 12 13 11 6 5 4 9 5 4 3 3 3 3 3 19 22 16 20 22 49 47 41 38 38 38 47 40 30 28 31 36 46 44 30 22 22 21 18 20 20 17 18 18 17 10 7 9 12
9 8 6 12 6 5 3 3 8 6 4 4 4 3 4 5 26 38 37 45 49 53 48 44 42 44 57 62 43 52 44 52 53 48 38 25 26 26 21 23 23 20 17 18 20 18 10 8 9
6 3 4 4 4 2 2 3 3 3 3 3 3 3 3 4 7 47 79 70 63 58 55 52 49 50 61 69 62 64 63 60 54 46 40 32 29 28 25 25 26 22 20 20 21 20 18 9 9
2 2 2 2 2 2 2 2 2 2 2 2 2 2 2 4 5 39 100 98 91 70 60 56 56 55 60 57 63 64 55 54 58 55 43 35 31 30 28 28 28 26 23 23 23 22 22 15 11
3 4 10 8 9 8 4 8 6 4 2 4 7 5 5 6 6 42 100 99 98 93 80 70 62 60 57 51 53 58 48 44 42 50 44 36 38 33 31 32 30 32 28 27 27 25 24 20 12
11 34 32 35 26 23 26 18 28 27 18 13 12 8 6 6 6 8 93 93 97 82 80 71 65 73 58 57 62 52 48 43 39 35 35 41 53 50 49 47 45 39 33 30 31 30 25 22 17
27 49 37 53 20 19 35 37 30 24 10 7 8 7 6 6 5 6 57 100 88 79 62 64 63 76 70 66 64 62 58 51 46 46 41 35 46 81 79 84 90 85 43 36 36 36 30 23 19
28 48 58 37 46 72 68 71 9 8 13 20 22 5 6 9 6 6 25 87 81 65 58 61 64 75 88 81 68 67 63 59 51 48 44 59 77 99 97 97 65 44 36 36 43 44 31 24 22
10 30 60 21 63 63 37 23 21 85 94 46 39 6 4 7 6 6 9 38 46 97 95 88 87 89 97 93 76 72 65 56 49 51 88 89 67 71 90 98 86 53 39 34 41 40 33 25 23
10 16 15 49 73 97 100 20 21 89 100 84 84 42 5 3 6 7 10 15 23 46 82 98 95 96 98 97 79 74 70 65 60 52 53 68 97 96 98 97 93 76 66 50 46 31 28 31 29
40 14 36 74 99 100 99 90 96 100 100 94 99 97 53 7 5 8 13 11 11 52 86 92 96 98 97 97 95 80 69 64 69 65 69 92 92 75 96 97 96 81 75 51 48 44 34 35 34
70 81 69 62 99 93 100 96 100 80 100 84 83 92 94 54 20 14 20 19 26 58 82 98 98 98 98 97 97 94 68 60 64 68 70 82 75 60 86 99 99 86 74 60 52 41 46 46 34
60 71 99 76 93 100 100 100 100 99 100 100 99 99 55 84 94 69 69 61 43 82 100 100 100 98 97 97 98 97 78 55 51 51 59 64 55 55 53 75 77 82 61 60 55 43 50 49 31
65 62 82 99 100 100 100 100 94 100 100 100 100 100 99 73 97 96 100 99 94 81 81 95 97 95 97 98 96 85 67 59 54 52 47 48 58 65 68 68 71 79 70 64 65 44 46 44 29
88 84 68 73 88 100 100 100 100 100 100 99 100 100 100 99 67 97 93 100 98 99 98 99 99 96 93 89 83 79 74 66 60 57 60 51 44 40 56 65 61 71 77 84 93 95 65 36 34

GFSSGP_500_rhum_123.txt.gz
RH
20 19 17 15 15 16 16 11 4 3 3 3 3 3 4 4 4 4 4 5 6 5 7 13 12 9 7 5 4 4 4 5 4 4 3 4 5 6 6 7 6 5 5 9 11 18 31 27 34
22 21 21 20 20 18 15 10 9 7 5 4 3 3 3 3 3 2 2 4 6 4 4 6 15 13 9 8 6 5 5 5 4 4 4 4 5 6 6 7 7 6 5 7 11 9 12 31 31
12 12 13 12 12 18 22 24 24 22 17 10 8 4 3 3 3 5 9 10 12 11 8 5 7 15 14 11 11 8 5 5 5 4 4 4 5 5 6 7 7 7 6 6 8 13 12 13 17
16 13 12 10 10 13 20 29 34 33 30 26 17 13 13 14 12 17 19 19 20 17 13 9 8 10 17 17 16 13 7 5 5 5 4 5 4 5 5 6 8 7 6 5 6 14 19 18 22
18 16 13 10 12 15 22 26 27 34 34 35 27 30 22 21 20 21 24 25 25 25 24 18 15 12 17 20 21 17 12 7 6 6 6 5 5 4 5 6 7 8 5 12 7 12 20 20 23
15 14 11 10 11 12 17 30 26 26 25 30 25 27 31 28 28 26 24 23 26 28 28 23 19 17 27 23 23 20 17 12 7 6 6 6 5 5 5 5 6 8 5 6 8 9 16 27 26
16 15 13 12 11 10 17 25 25 22 23 26 15 14 22 21 21 24 23 21 26 29 32 29 24 21 28 26 25 24 22 19 11 7 7 7 6 5 6 5 5 7 6 11 8 8 12 15 27
16 14 13 12 10 10 14 16 16 15 16 19 14 9 16 18 20 22 23 22 22 29 32 34 30 25 26 29 26 26 25 22 18 10 8 7 8 7 6 5 5 6 6 9 7 6 8 9 18
18 17 15 12 11 10 9 9 10 12 14 13 10 6 6 12 18 18 21 22 24 22 25 33 34 30 26 31 26 26 27 25 23 16 12 9 8 9 8 6 5 5 6 6 6 6 7 8 16
21 17 13 11 9 8 7 7 7 8 9 13 15 8 5 10 13 15 20 21 20 24 26 29 30 30 26 30 26 23 25 27 26 24 17 13 10 9 10 7 6 5 5 5 5 7 6 7 11
20 19 16 14 12 10 9 8 7 7 7 10 14 13 7 5 9 14 18 24 26 21 24 31 27 22 24 26 28 23 23 29 27 27 25 17 13 11 10 9 7 6 5 5 5 7 7 6 7
39 23 19 17 13 11 10 9 8 8 7 6 8 18 14 7 7 8 12 23 24 26 22 23 26 26 24 28 26 21 27 30 28 29 30 24 18 14 12 12 9 8 6 6 5 5 6 6 6
55 46 38 31 28 26 22 20 17 14 9 7 6 6 6 5 5 7 8 10 14 23 30 28 28 26 26 32 31 27 25 27 28 28 29 31 23 18 14 14 12 10 8 8 8 5 5 7 8
48 45 42 42 42 43 39 34 34 23 13 8 6 5 4 4 4 4 8 10 5 20 28 39 40 35 32 32 33 30 25 24 26 29 30 34 29 22 20 16 15 14 12 9 10 10 6 5 7
43 38 37 34 32 28 29 28 21 21 21 15 9 6 6 5 4 3 3 4 9 18 36 38 44 44 36 36 32 33 30 25 26 28 33 39 37 26 21 19 17 17 16 13 11 12 12 7 6
35 32 29 25 21 16 11 18 13 14 13 13 12 9 6 4 3 3 3 3 5 16 27 43 42 41 45 39 36 37 36 28 31 36 40 43 44 37 24 22 21 19 20 18 14 12 13 14 9
33 28 25 22 17 15 14 20 17 13 10 10 7 10 10 6 4 4 3 3 4 12 31 32 29 43 51 43 38 44 45 38 31 41 44 50 50 42 32 26 24 23 24 21 18 15 14 13 14
16 11 8 7 6 5 5 7 10 10 12 13 14 13 9 7 4 4 4 3 3 6 21 33 30 45 52 51 42 45 56 46 44 59 69 64 58 47 39 31 27 26 28 23 21 20 17 17 16
2 2 3 4 3 2 2 2 3 3 3 3 4 5 7 9 7 4 4 4 4 6 32 32 19 31 46 54 47 48 63 74 57 65 72 67 60 50 43 34 29 28 31 28 26 25 22 21 20
2 2 2 3 2 3 3 4 5 3 2 4 2 2 2 4 5 4 4 5 10 13 25 49 37 38 51 56 52 49 54 71 71 68 66 66 66 60 53 41 35 32 34 35 30 31 26 25 22
3 6 5 6 4 6 12 10 13 21 21 7 7 9 5 2 2 2 3 5 5 32 45 81 51 56 64 69 64 61 62 66 68 76 78 76 81 78 70 55 45 44 36 37 37 37 30 29 25
12 27 28 11 9 7 18 40 38 36 9 8 10 13 10 13 8 5 5 6 6 45 50 94 89 80 75 70 67 57 64 63 71 77 80 59 70 67 57 51 48 39 45 48 76 60 55 32 30
31 38 28 8 14 17 90 33 14 6 34 81 34 27 33 11 12 14 8 6 6 26 99 83 90 68 67 85 72 70 76 71 88 87 75 65 62 70 74 83 57 68 80 87 98 79 38 34 32
39 43 14 12 29 61 74 98 8 58 97 100 100 97 60 10 15 30 8 8 7 51 100 96 42 44 48 66 61 75 93 97 95 98 80 65 57 58 60 93 91 95 97 96 97 87 46 39 32
42 40 28 33 54 84 99 73 47 99 100 98 80 84 63 20 20 55 14 11 9 38 93 93 73 60 61 58 69 93 97 96 96 100 76 81 73 51 72 83 88 74 89 99 97 94 67 55 48
38 43 34 42 57 66 100 100 95 100 100 100 100 93 100 97 40 42 31 11 8 8 18 90 93 99 100 99 98 89 98 92 98 98 88 89 86 72 66 72 95 94 95 95 96 97 95 70 55
50 39 31 41 66 90 99 100 100 100 100 100 100 100 100 100 34 10 22 28 24 19 24 45 98 99 98 99 99 94 97 94 97 96 93 81 73 81 92 87 95 94 78 96 82 84 87 89 74
61 37 36 49 76 91 100 100 100 100 100 100 100 99 85 100 49 8 9 12 20 29 35 44 52 76 91 92 81 98 98 98 98 95 94 77 70 74 79 84 91 73 63 84 97 98 93 85 70
63 49 47 45 70 78 94 100 100 100 98 100 100 100 100 98 91 100 62 21 28 38 38 53 58 100 79 91 97 98 98 97 98 97 94 74 66 70 75 78 80 74 60 58 72 81 79 88 70
78 60 40 41 63 58 92 99 100 100 100 100 99 99 100 99 100 99 81 99 73 77 69 88 100 99 100 99 97 98 96 98 97 99 96 86 64 55 52 60 68 69 75 73 76 83 79 80 85